<?xml version="1.0" encoding="UTF-8" standalone="no" ?>
<gpx xmlns="http://www.topografix.com/GPX/1/1" xmlns:xsi="http://www.w3.org/2001/XMLSchema-instance" xsi:schemaLocation="http://www.topografix.com/GPX/1/1 http://www.topografix.com/GPX/1/1/gpx.xsd" version="1.1" creator="VisuGPX - https://www.visugpx.com">
  <metadata>
    <name>De Brouelles à Maxou et retour</name>
    <desc><![CDATA[Circuit nature n'empruntant que très peu de routes macadamisées.]]></desc>
  </metadata>
  <trk>
    <name><![CDATA[De Brouelles à Maxou et retour_1]]></name>
    <trkseg>
      <trkpt lat="44.55612" lon="1.44701">
        <ele>225.7</ele>
        <time>2022-02-06T13:09:23Z</time>
      </trkpt>
      <trkpt lat="44.55614" lon="1.44707">
        <ele>226</ele>
        <time>2022-02-06T13:09:28Z</time>
      </trkpt>
      <trkpt lat="44.55616" lon="1.44714">
        <ele>226.2</ele>
        <time>2022-02-06T13:09:33Z</time>
      </trkpt>
      <trkpt lat="44.55618" lon="1.44721">
        <ele>226.8</ele>
        <time>2022-02-06T13:09:38Z</time>
      </trkpt>
      <trkpt lat="44.55619" lon="1.44729">
        <ele>226.9</ele>
        <time>2022-02-06T13:09:43Z</time>
      </trkpt>
      <trkpt lat="44.55624" lon="1.44745">
        <ele>227.5</ele>
        <time>2022-02-06T13:09:54Z</time>
      </trkpt>
      <trkpt lat="44.55626" lon="1.44751">
        <ele>227.8</ele>
        <time>2022-02-06T13:09:58Z</time>
      </trkpt>
      <trkpt lat="44.55628" lon="1.44756">
        <ele>228.1</ele>
        <time>2022-02-06T13:10:02Z</time>
      </trkpt>
      <trkpt lat="44.5563" lon="1.44762">
        <ele>228</ele>
        <time>2022-02-06T13:10:06Z</time>
      </trkpt>
      <trkpt lat="44.55632" lon="1.44768">
        <ele>227.8</ele>
        <time>2022-02-06T13:10:10Z</time>
      </trkpt>
      <trkpt lat="44.55635" lon="1.44773">
        <ele>227.7</ele>
        <time>2022-02-06T13:10:14Z</time>
      </trkpt>
      <trkpt lat="44.55637" lon="1.44779">
        <ele>228</ele>
        <time>2022-02-06T13:10:18Z</time>
      </trkpt>
      <trkpt lat="44.5564" lon="1.44784">
        <ele>228.1</ele>
        <time>2022-02-06T13:10:22Z</time>
      </trkpt>
      <trkpt lat="44.55643" lon="1.4479">
        <ele>228.3</ele>
        <time>2022-02-06T13:10:26Z</time>
      </trkpt>
      <trkpt lat="44.55646" lon="1.44794">
        <ele>228.5</ele>
        <time>2022-02-06T13:10:30Z</time>
      </trkpt>
      <trkpt lat="44.5565" lon="1.44799">
        <ele>228.4</ele>
        <time>2022-02-06T13:10:34Z</time>
      </trkpt>
      <trkpt lat="44.55653" lon="1.44805">
        <ele>228.1</ele>
        <time>2022-02-06T13:10:39Z</time>
      </trkpt>
      <trkpt lat="44.55656" lon="1.4481">
        <ele>227.9</ele>
        <time>2022-02-06T13:10:43Z</time>
      </trkpt>
      <trkpt lat="44.55659" lon="1.44815">
        <ele>228.1</ele>
        <time>2022-02-06T13:10:47Z</time>
      </trkpt>
      <trkpt lat="44.55664" lon="1.44819">
        <ele>228.1</ele>
        <time>2022-02-06T13:10:52Z</time>
      </trkpt>
      <trkpt lat="44.55668" lon="1.44823">
        <ele>228</ele>
        <time>2022-02-06T13:10:57Z</time>
      </trkpt>
      <trkpt lat="44.55673" lon="1.44828">
        <ele>228.1</ele>
        <time>2022-02-06T13:11:02Z</time>
      </trkpt>
      <trkpt lat="44.55677" lon="1.44832">
        <ele>228.6</ele>
        <time>2022-02-06T13:11:07Z</time>
      </trkpt>
      <trkpt lat="44.5568" lon="1.44837">
        <ele>228.8</ele>
        <time>2022-02-06T13:11:12Z</time>
      </trkpt>
      <trkpt lat="44.55684" lon="1.44842">
        <ele>228.7</ele>
        <time>2022-02-06T13:11:17Z</time>
      </trkpt>
      <trkpt lat="44.55687" lon="1.44846">
        <ele>227.9</ele>
        <time>2022-02-06T13:11:22Z</time>
      </trkpt>
      <trkpt lat="44.5569" lon="1.44851">
        <ele>227.3</ele>
        <time>2022-02-06T13:11:27Z</time>
      </trkpt>
      <trkpt lat="44.55693" lon="1.44856">
        <ele>227.2</ele>
        <time>2022-02-06T13:11:32Z</time>
      </trkpt>
      <trkpt lat="44.55696" lon="1.44862">
        <ele>227</ele>
        <time>2022-02-06T13:11:37Z</time>
      </trkpt>
      <trkpt lat="44.55699" lon="1.44867">
        <ele>226.8</ele>
        <time>2022-02-06T13:11:42Z</time>
      </trkpt>
      <trkpt lat="44.55702" lon="1.44873">
        <ele>226.5</ele>
        <time>2022-02-06T13:11:47Z</time>
      </trkpt>
      <trkpt lat="44.55705" lon="1.44879">
        <ele>226</ele>
        <time>2022-02-06T13:11:52Z</time>
      </trkpt>
      <trkpt lat="44.55708" lon="1.44884">
        <ele>225.7</ele>
        <time>2022-02-06T13:11:57Z</time>
      </trkpt>
      <trkpt lat="44.5571" lon="1.4489">
        <ele>225.3</ele>
        <time>2022-02-06T13:12:02Z</time>
      </trkpt>
      <trkpt lat="44.55713" lon="1.44896">
        <ele>225.4</ele>
        <time>2022-02-06T13:12:07Z</time>
      </trkpt>
      <trkpt lat="44.55716" lon="1.44902">
        <ele>225.7</ele>
        <time>2022-02-06T13:12:12Z</time>
      </trkpt>
      <trkpt lat="44.55719" lon="1.44909">
        <ele>225.7</ele>
        <time>2022-02-06T13:12:17Z</time>
      </trkpt>
      <trkpt lat="44.55721" lon="1.44916">
        <ele>226</ele>
        <time>2022-02-06T13:12:22Z</time>
      </trkpt>
      <trkpt lat="44.55723" lon="1.44922">
        <ele>226.3</ele>
        <time>2022-02-06T13:12:27Z</time>
      </trkpt>
      <trkpt lat="44.55725" lon="1.44929">
        <ele>226.5</ele>
        <time>2022-02-06T13:12:32Z</time>
      </trkpt>
      <trkpt lat="44.55726" lon="1.44935">
        <ele>226.9</ele>
        <time>2022-02-06T13:12:37Z</time>
      </trkpt>
      <trkpt lat="44.55728" lon="1.44943">
        <ele>227.5</ele>
        <time>2022-02-06T13:12:42Z</time>
      </trkpt>
      <trkpt lat="44.55729" lon="1.4495">
        <ele>227.9</ele>
        <time>2022-02-06T13:12:47Z</time>
      </trkpt>
      <trkpt lat="44.55729" lon="1.44956">
        <ele>228.2</ele>
        <time>2022-02-06T13:12:51Z</time>
      </trkpt>
      <trkpt lat="44.5573" lon="1.44963">
        <ele>228.3</ele>
        <time>2022-02-06T13:12:56Z</time>
      </trkpt>
      <trkpt lat="44.55731" lon="1.4497">
        <ele>228.4</ele>
        <time>2022-02-06T13:13:01Z</time>
      </trkpt>
      <trkpt lat="44.55732" lon="1.44977">
        <ele>228.6</ele>
        <time>2022-02-06T13:13:06Z</time>
      </trkpt>
      <trkpt lat="44.55733" lon="1.44985">
        <ele>228.6</ele>
        <time>2022-02-06T13:13:11Z</time>
      </trkpt>
      <trkpt lat="44.55734" lon="1.44991">
        <ele>228.5</ele>
        <time>2022-02-06T13:13:15Z</time>
      </trkpt>
      <trkpt lat="44.55735" lon="1.44999">
        <ele>228.3</ele>
        <time>2022-02-06T13:13:20Z</time>
      </trkpt>
      <trkpt lat="44.55736" lon="1.45006">
        <ele>228.4</ele>
        <time>2022-02-06T13:13:25Z</time>
      </trkpt>
      <trkpt lat="44.55737" lon="1.45014">
        <ele>228.1</ele>
        <time>2022-02-06T13:13:30Z</time>
      </trkpt>
      <trkpt lat="44.55738" lon="1.45021">
        <ele>227.7</ele>
        <time>2022-02-06T13:13:35Z</time>
      </trkpt>
      <trkpt lat="44.55739" lon="1.45028">
        <ele>227.8</ele>
        <time>2022-02-06T13:13:40Z</time>
      </trkpt>
      <trkpt lat="44.5574" lon="1.45036">
        <ele>227.9</ele>
        <time>2022-02-06T13:13:45Z</time>
      </trkpt>
      <trkpt lat="44.55742" lon="1.45043">
        <ele>228.2</ele>
        <time>2022-02-06T13:13:50Z</time>
      </trkpt>
      <trkpt lat="44.55741" lon="1.45049">
        <ele>229.4</ele>
        <time>2022-02-06T13:13:55Z</time>
      </trkpt>
      <trkpt lat="44.5574" lon="1.45057">
        <ele>228.7</ele>
        <time>2022-02-06T13:14:01Z</time>
      </trkpt>
      <trkpt lat="44.55742" lon="1.45063">
        <ele>228.5</ele>
        <time>2022-02-06T13:14:05Z</time>
      </trkpt>
      <trkpt lat="44.55743" lon="1.4507">
        <ele>228.1</ele>
        <time>2022-02-06T13:14:10Z</time>
      </trkpt>
      <trkpt lat="44.55745" lon="1.45077">
        <ele>227.7</ele>
        <time>2022-02-06T13:14:15Z</time>
      </trkpt>
      <trkpt lat="44.55746" lon="1.45084">
        <ele>228</ele>
        <time>2022-02-06T13:14:20Z</time>
      </trkpt>
      <trkpt lat="44.55747" lon="1.4509">
        <ele>228.3</ele>
        <time>2022-02-06T13:14:24Z</time>
      </trkpt>
      <trkpt lat="44.55748" lon="1.45097">
        <ele>228.8</ele>
        <time>2022-02-06T13:14:28Z</time>
      </trkpt>
      <trkpt lat="44.55749" lon="1.45105">
        <ele>229.1</ele>
        <time>2022-02-06T13:14:33Z</time>
      </trkpt>
      <trkpt lat="44.5575" lon="1.45111">
        <ele>229.2</ele>
        <time>2022-02-06T13:14:37Z</time>
      </trkpt>
      <trkpt lat="44.5575" lon="1.45118">
        <ele>229.4</ele>
        <time>2022-02-06T13:14:41Z</time>
      </trkpt>
      <trkpt lat="44.55751" lon="1.45124">
        <ele>229.5</ele>
        <time>2022-02-06T13:14:45Z</time>
      </trkpt>
      <trkpt lat="44.55752" lon="1.45132">
        <ele>229.7</ele>
        <time>2022-02-06T13:14:50Z</time>
      </trkpt>
      <trkpt lat="44.55753" lon="1.45139">
        <ele>229.5</ele>
        <time>2022-02-06T13:14:55Z</time>
      </trkpt>
      <trkpt lat="44.55754" lon="1.45145">
        <ele>229.5</ele>
        <time>2022-02-06T13:14:59Z</time>
      </trkpt>
      <trkpt lat="44.55755" lon="1.45153">
        <ele>229.5</ele>
        <time>2022-02-06T13:15:04Z</time>
      </trkpt>
      <trkpt lat="44.55755" lon="1.45159">
        <ele>229.5</ele>
        <time>2022-02-06T13:15:08Z</time>
      </trkpt>
      <trkpt lat="44.55757" lon="1.45166">
        <ele>229.7</ele>
        <time>2022-02-06T13:15:13Z</time>
      </trkpt>
      <trkpt lat="44.55758" lon="1.45173">
        <ele>229.8</ele>
        <time>2022-02-06T13:15:17Z</time>
      </trkpt>
      <trkpt lat="44.55758" lon="1.4518">
        <ele>229.8</ele>
        <time>2022-02-06T13:15:21Z</time>
      </trkpt>
      <trkpt lat="44.55759" lon="1.45187">
        <ele>229.8</ele>
        <time>2022-02-06T13:15:26Z</time>
      </trkpt>
      <trkpt lat="44.5576" lon="1.45194">
        <ele>230.8</ele>
        <time>2022-02-06T13:15:31Z</time>
      </trkpt>
      <trkpt lat="44.55762" lon="1.452">
        <ele>231.1</ele>
        <time>2022-02-06T13:15:36Z</time>
      </trkpt>
      <trkpt lat="44.55763" lon="1.45208">
        <ele>231.8</ele>
        <time>2022-02-06T13:15:41Z</time>
      </trkpt>
      <trkpt lat="44.55764" lon="1.45215">
        <ele>232</ele>
        <time>2022-02-06T13:15:46Z</time>
      </trkpt>
      <trkpt lat="44.55766" lon="1.45222">
        <ele>231.8</ele>
        <time>2022-02-06T13:15:51Z</time>
      </trkpt>
      <trkpt lat="44.55768" lon="1.4523">
        <ele>231.8</ele>
        <time>2022-02-06T13:15:56Z</time>
      </trkpt>
      <trkpt lat="44.5577" lon="1.45235">
        <ele>232.1</ele>
        <time>2022-02-06T13:16:00Z</time>
      </trkpt>
      <trkpt lat="44.55772" lon="1.45242">
        <ele>232.1</ele>
        <time>2022-02-06T13:16:05Z</time>
      </trkpt>
      <trkpt lat="44.55774" lon="1.45248">
        <ele>232.1</ele>
        <time>2022-02-06T13:16:10Z</time>
      </trkpt>
      <trkpt lat="44.55777" lon="1.45253">
        <ele>231.8</ele>
        <time>2022-02-06T13:16:15Z</time>
      </trkpt>
      <trkpt lat="44.5578" lon="1.45259">
        <ele>231.2</ele>
        <time>2022-02-06T13:16:20Z</time>
      </trkpt>
      <trkpt lat="44.55783" lon="1.45265">
        <ele>230.8</ele>
        <time>2022-02-06T13:16:25Z</time>
      </trkpt>
      <trkpt lat="44.55786" lon="1.45271">
        <ele>231</ele>
        <time>2022-02-06T13:16:30Z</time>
      </trkpt>
      <trkpt lat="44.55789" lon="1.45277">
        <ele>231.2</ele>
        <time>2022-02-06T13:16:35Z</time>
      </trkpt>
      <trkpt lat="44.55793" lon="1.45282">
        <ele>231.4</ele>
        <time>2022-02-06T13:16:40Z</time>
      </trkpt>
      <trkpt lat="44.55797" lon="1.45286">
        <ele>231.1</ele>
        <time>2022-02-06T13:16:45Z</time>
      </trkpt>
      <trkpt lat="44.55801" lon="1.45289">
        <ele>231.4</ele>
        <time>2022-02-06T13:16:50Z</time>
      </trkpt>
      <trkpt lat="44.55806" lon="1.45292">
        <ele>231.5</ele>
        <time>2022-02-06T13:16:55Z</time>
      </trkpt>
      <trkpt lat="44.55811" lon="1.45294">
        <ele>232</ele>
        <time>2022-02-06T13:17:00Z</time>
      </trkpt>
      <trkpt lat="44.55816" lon="1.45294">
        <ele>232.8</ele>
        <time>2022-02-06T13:17:05Z</time>
      </trkpt>
      <trkpt lat="44.55821" lon="1.45295">
        <ele>232.9</ele>
        <time>2022-02-06T13:17:10Z</time>
      </trkpt>
      <trkpt lat="44.55827" lon="1.45296">
        <ele>232.8</ele>
        <time>2022-02-06T13:17:15Z</time>
      </trkpt>
      <trkpt lat="44.55832" lon="1.45297">
        <ele>232.8</ele>
        <time>2022-02-06T13:17:19Z</time>
      </trkpt>
      <trkpt lat="44.55836" lon="1.45297">
        <ele>232.9</ele>
        <time>2022-02-06T13:17:23Z</time>
      </trkpt>
      <trkpt lat="44.55842" lon="1.45297">
        <ele>232.9</ele>
        <time>2022-02-06T13:17:28Z</time>
      </trkpt>
      <trkpt lat="44.55847" lon="1.45298">
        <ele>233.1</ele>
        <time>2022-02-06T13:17:33Z</time>
      </trkpt>
      <trkpt lat="44.55852" lon="1.45298">
        <ele>233.4</ele>
        <time>2022-02-06T13:17:38Z</time>
      </trkpt>
      <trkpt lat="44.55857" lon="1.45299">
        <ele>233.9</ele>
        <time>2022-02-06T13:17:42Z</time>
      </trkpt>
      <trkpt lat="44.55861" lon="1.453">
        <ele>234.4</ele>
        <time>2022-02-06T13:17:46Z</time>
      </trkpt>
      <trkpt lat="44.55866" lon="1.453">
        <ele>234.6</ele>
        <time>2022-02-06T13:17:51Z</time>
      </trkpt>
      <trkpt lat="44.55872" lon="1.45301">
        <ele>235.2</ele>
        <time>2022-02-06T13:17:56Z</time>
      </trkpt>
      <trkpt lat="44.55876" lon="1.45302">
        <ele>235.7</ele>
        <time>2022-02-06T13:18:00Z</time>
      </trkpt>
      <trkpt lat="44.55882" lon="1.45304">
        <ele>236.2</ele>
        <time>2022-02-06T13:18:05Z</time>
      </trkpt>
      <trkpt lat="44.55887" lon="1.45304">
        <ele>236.2</ele>
        <time>2022-02-06T13:18:10Z</time>
      </trkpt>
      <trkpt lat="44.55892" lon="1.45306">
        <ele>236.3</ele>
        <time>2022-02-06T13:18:14Z</time>
      </trkpt>
      <trkpt lat="44.55896" lon="1.45307">
        <ele>236.5</ele>
        <time>2022-02-06T13:18:18Z</time>
      </trkpt>
      <trkpt lat="44.55901" lon="1.45309">
        <ele>236.5</ele>
        <time>2022-02-06T13:18:22Z</time>
      </trkpt>
      <trkpt lat="44.55906" lon="1.45313">
        <ele>236.8</ele>
        <time>2022-02-06T13:18:27Z</time>
      </trkpt>
      <trkpt lat="44.55911" lon="1.45316">
        <ele>236.9</ele>
        <time>2022-02-06T13:18:32Z</time>
      </trkpt>
      <trkpt lat="44.55915" lon="1.4532">
        <ele>237</ele>
        <time>2022-02-06T13:18:37Z</time>
      </trkpt>
      <trkpt lat="44.5592" lon="1.45325">
        <ele>237</ele>
        <time>2022-02-06T13:18:42Z</time>
      </trkpt>
      <trkpt lat="44.55924" lon="1.4533">
        <ele>237.1</ele>
        <time>2022-02-06T13:18:47Z</time>
      </trkpt>
      <trkpt lat="44.55928" lon="1.45334">
        <ele>237</ele>
        <time>2022-02-06T13:18:52Z</time>
      </trkpt>
      <trkpt lat="44.55933" lon="1.45338">
        <ele>236.9</ele>
        <time>2022-02-06T13:18:57Z</time>
      </trkpt>
      <trkpt lat="44.55937" lon="1.45342">
        <ele>237.1</ele>
        <time>2022-02-06T13:19:02Z</time>
      </trkpt>
      <trkpt lat="44.55941" lon="1.45346">
        <ele>237.5</ele>
        <time>2022-02-06T13:19:07Z</time>
      </trkpt>
      <trkpt lat="44.55946" lon="1.4535">
        <ele>237.9</ele>
        <time>2022-02-06T13:19:12Z</time>
      </trkpt>
      <trkpt lat="44.55951" lon="1.45354">
        <ele>238.1</ele>
        <time>2022-02-06T13:19:17Z</time>
      </trkpt>
      <trkpt lat="44.55955" lon="1.45357">
        <ele>238.1</ele>
        <time>2022-02-06T13:19:22Z</time>
      </trkpt>
      <trkpt lat="44.5596" lon="1.45361">
        <ele>238.3</ele>
        <time>2022-02-06T13:19:27Z</time>
      </trkpt>
      <trkpt lat="44.55965" lon="1.45365">
        <ele>238.4</ele>
        <time>2022-02-06T13:19:32Z</time>
      </trkpt>
      <trkpt lat="44.55969" lon="1.45368">
        <ele>238.7</ele>
        <time>2022-02-06T13:19:37Z</time>
      </trkpt>
      <trkpt lat="44.55974" lon="1.45372">
        <ele>239.1</ele>
        <time>2022-02-06T13:19:42Z</time>
      </trkpt>
      <trkpt lat="44.55979" lon="1.45375">
        <ele>239.5</ele>
        <time>2022-02-06T13:19:47Z</time>
      </trkpt>
      <trkpt lat="44.55983" lon="1.45379">
        <ele>239.9</ele>
        <time>2022-02-06T13:19:52Z</time>
      </trkpt>
      <trkpt lat="44.55988" lon="1.45381">
        <ele>239.9</ele>
        <time>2022-02-06T13:19:56Z</time>
      </trkpt>
      <trkpt lat="44.55992" lon="1.45384">
        <ele>239.9</ele>
        <time>2022-02-06T13:20:00Z</time>
      </trkpt>
      <trkpt lat="44.55996" lon="1.45387">
        <ele>240.3</ele>
        <time>2022-02-06T13:20:05Z</time>
      </trkpt>
      <trkpt lat="44.56001" lon="1.45391">
        <ele>240.1</ele>
        <time>2022-02-06T13:20:10Z</time>
      </trkpt>
      <trkpt lat="44.56006" lon="1.45395">
        <ele>239.9</ele>
        <time>2022-02-06T13:20:15Z</time>
      </trkpt>
      <trkpt lat="44.56009" lon="1.454">
        <ele>239.8</ele>
        <time>2022-02-06T13:20:19Z</time>
      </trkpt>
      <trkpt lat="44.56013" lon="1.45405">
        <ele>239.9</ele>
        <time>2022-02-06T13:20:24Z</time>
      </trkpt>
      <trkpt lat="44.56015" lon="1.45411">
        <ele>240</ele>
        <time>2022-02-06T13:20:29Z</time>
      </trkpt>
      <trkpt lat="44.56016" lon="1.45417">
        <ele>240.4</ele>
        <time>2022-02-06T13:20:34Z</time>
      </trkpt>
      <trkpt lat="44.56016" lon="1.45424">
        <ele>241</ele>
        <time>2022-02-06T13:20:39Z</time>
      </trkpt>
      <trkpt lat="44.56016" lon="1.45431">
        <ele>241.5</ele>
        <time>2022-02-06T13:20:44Z</time>
      </trkpt>
      <trkpt lat="44.56016" lon="1.45438">
        <ele>241.9</ele>
        <time>2022-02-06T13:20:49Z</time>
      </trkpt>
      <trkpt lat="44.56014" lon="1.45445">
        <ele>242.4</ele>
        <time>2022-02-06T13:20:54Z</time>
      </trkpt>
      <trkpt lat="44.56013" lon="1.45452">
        <ele>243.3</ele>
        <time>2022-02-06T13:20:59Z</time>
      </trkpt>
      <trkpt lat="44.56013" lon="1.45459">
        <ele>243.7</ele>
        <time>2022-02-06T13:21:04Z</time>
      </trkpt>
      <trkpt lat="44.56012" lon="1.45466">
        <ele>243.9</ele>
        <time>2022-02-06T13:21:09Z</time>
      </trkpt>
      <trkpt lat="44.56011" lon="1.45473">
        <ele>244</ele>
        <time>2022-02-06T13:21:14Z</time>
      </trkpt>
      <trkpt lat="44.5601" lon="1.4548">
        <ele>244</ele>
        <time>2022-02-06T13:21:19Z</time>
      </trkpt>
      <trkpt lat="44.56007" lon="1.45486">
        <ele>244.1</ele>
        <time>2022-02-06T13:21:24Z</time>
      </trkpt>
      <trkpt lat="44.56003" lon="1.4549">
        <ele>244.2</ele>
        <time>2022-02-06T13:21:29Z</time>
      </trkpt>
      <trkpt lat="44.55999" lon="1.45493">
        <ele>244.4</ele>
        <time>2022-02-06T13:21:34Z</time>
      </trkpt>
      <trkpt lat="44.55994" lon="1.45496">
        <ele>244.3</ele>
        <time>2022-02-06T13:21:39Z</time>
      </trkpt>
      <trkpt lat="44.5599" lon="1.45499">
        <ele>244.3</ele>
        <time>2022-02-06T13:21:44Z</time>
      </trkpt>
      <trkpt lat="44.55985" lon="1.455">
        <ele>244.2</ele>
        <time>2022-02-06T13:21:49Z</time>
      </trkpt>
      <trkpt lat="44.5598" lon="1.45503">
        <ele>244.2</ele>
        <time>2022-02-06T13:21:54Z</time>
      </trkpt>
      <trkpt lat="44.55975" lon="1.45506">
        <ele>244.5</ele>
        <time>2022-02-06T13:21:59Z</time>
      </trkpt>
      <trkpt lat="44.55971" lon="1.45509">
        <ele>244.5</ele>
        <time>2022-02-06T13:22:04Z</time>
      </trkpt>
      <trkpt lat="44.55967" lon="1.45513">
        <ele>244.6</ele>
        <time>2022-02-06T13:22:09Z</time>
      </trkpt>
      <trkpt lat="44.55962" lon="1.45514">
        <ele>245.3</ele>
        <time>2022-02-06T13:22:14Z</time>
      </trkpt>
      <trkpt lat="44.55957" lon="1.45515">
        <ele>245.8</ele>
        <time>2022-02-06T13:22:20Z</time>
      </trkpt>
      <trkpt lat="44.55952" lon="1.45516">
        <ele>246.6</ele>
        <time>2022-02-06T13:22:26Z</time>
      </trkpt>
      <trkpt lat="44.55947" lon="1.45516">
        <ele>247.6</ele>
        <time>2022-02-06T13:22:32Z</time>
      </trkpt>
      <trkpt lat="44.55943" lon="1.45514">
        <ele>248.2</ele>
        <time>2022-02-06T13:22:37Z</time>
      </trkpt>
      <trkpt lat="44.55937" lon="1.45514">
        <ele>248.7</ele>
        <time>2022-02-06T13:22:42Z</time>
      </trkpt>
      <trkpt lat="44.55933" lon="1.45514">
        <ele>249.1</ele>
        <time>2022-02-06T13:22:47Z</time>
      </trkpt>
      <trkpt lat="44.55928" lon="1.45514">
        <ele>249.9</ele>
        <time>2022-02-06T13:22:52Z</time>
      </trkpt>
      <trkpt lat="44.55923" lon="1.45514">
        <ele>251</ele>
        <time>2022-02-06T13:22:58Z</time>
      </trkpt>
      <trkpt lat="44.55918" lon="1.45515">
        <ele>251.7</ele>
        <time>2022-02-06T13:23:04Z</time>
      </trkpt>
      <trkpt lat="44.55913" lon="1.45517">
        <ele>251.8</ele>
        <time>2022-02-06T13:23:10Z</time>
      </trkpt>
      <trkpt lat="44.55909" lon="1.45522">
        <ele>252.9</ele>
        <time>2022-02-06T13:23:17Z</time>
      </trkpt>
      <trkpt lat="44.55906" lon="1.45527">
        <ele>253.7</ele>
        <time>2022-02-06T13:23:22Z</time>
      </trkpt>
      <trkpt lat="44.55904" lon="1.45533">
        <ele>254.7</ele>
        <time>2022-02-06T13:23:27Z</time>
      </trkpt>
      <trkpt lat="44.55902" lon="1.45539">
        <ele>255.5</ele>
        <time>2022-02-06T13:23:32Z</time>
      </trkpt>
      <trkpt lat="44.559" lon="1.45546">
        <ele>256.7</ele>
        <time>2022-02-06T13:23:37Z</time>
      </trkpt>
      <trkpt lat="44.55898" lon="1.45553">
        <ele>257.9</ele>
        <time>2022-02-06T13:23:42Z</time>
      </trkpt>
      <trkpt lat="44.55896" lon="1.45558">
        <ele>258.8</ele>
        <time>2022-02-06T13:23:47Z</time>
      </trkpt>
      <trkpt lat="44.55892" lon="1.4556">
        <ele>259.5</ele>
        <time>2022-02-06T13:23:53Z</time>
      </trkpt>
      <trkpt lat="44.55887" lon="1.45557">
        <ele>258.9</ele>
        <time>2022-02-06T13:23:58Z</time>
      </trkpt>
      <trkpt lat="44.55883" lon="1.45561">
        <ele>258.8</ele>
        <time>2022-02-06T13:24:04Z</time>
      </trkpt>
      <trkpt lat="44.55879" lon="1.45564">
        <ele>259.5</ele>
        <time>2022-02-06T13:24:10Z</time>
      </trkpt>
      <trkpt lat="44.55875" lon="1.45568">
        <ele>260.4</ele>
        <time>2022-02-06T13:24:15Z</time>
      </trkpt>
      <trkpt lat="44.55871" lon="1.45572">
        <ele>261.4</ele>
        <time>2022-02-06T13:24:20Z</time>
      </trkpt>
      <trkpt lat="44.55867" lon="1.45576">
        <ele>262.2</ele>
        <time>2022-02-06T13:24:25Z</time>
      </trkpt>
      <trkpt lat="44.55863" lon="1.4558">
        <ele>262.8</ele>
        <time>2022-02-06T13:24:31Z</time>
      </trkpt>
      <trkpt lat="44.55859" lon="1.45584">
        <ele>263.8</ele>
        <time>2022-02-06T13:24:37Z</time>
      </trkpt>
      <trkpt lat="44.55855" lon="1.45588">
        <ele>265.1</ele>
        <time>2022-02-06T13:24:43Z</time>
      </trkpt>
      <trkpt lat="44.55852" lon="1.45593">
        <ele>266</ele>
        <time>2022-02-06T13:24:49Z</time>
      </trkpt>
      <trkpt lat="44.55848" lon="1.45597">
        <ele>266.8</ele>
        <time>2022-02-06T13:24:54Z</time>
      </trkpt>
      <trkpt lat="44.55845" lon="1.45602">
        <ele>268.1</ele>
        <time>2022-02-06T13:24:59Z</time>
      </trkpt>
      <trkpt lat="44.5584" lon="1.45605">
        <ele>269.1</ele>
        <time>2022-02-06T13:25:05Z</time>
      </trkpt>
      <trkpt lat="44.55836" lon="1.45609">
        <ele>270.6</ele>
        <time>2022-02-06T13:25:12Z</time>
      </trkpt>
      <trkpt lat="44.55832" lon="1.45613">
        <ele>271.6</ele>
        <time>2022-02-06T13:25:19Z</time>
      </trkpt>
      <trkpt lat="44.55828" lon="1.45616">
        <ele>272.1</ele>
        <time>2022-02-06T13:25:25Z</time>
      </trkpt>
      <trkpt lat="44.55824" lon="1.45621">
        <ele>272.9</ele>
        <time>2022-02-06T13:25:31Z</time>
      </trkpt>
      <trkpt lat="44.55821" lon="1.45625">
        <ele>273.5</ele>
        <time>2022-02-06T13:25:39Z</time>
      </trkpt>
      <trkpt lat="44.55818" lon="1.45619">
        <ele>273.4</ele>
        <time>2022-02-06T13:25:47Z</time>
      </trkpt>
      <trkpt lat="44.55819" lon="1.45613">
        <ele>273.3</ele>
        <time>2022-02-06T13:25:52Z</time>
      </trkpt>
      <trkpt lat="44.55821" lon="1.45607">
        <ele>273.3</ele>
        <time>2022-02-06T13:25:57Z</time>
      </trkpt>
      <trkpt lat="44.55824" lon="1.45601">
        <ele>273.6</ele>
        <time>2022-02-06T13:26:02Z</time>
      </trkpt>
      <trkpt lat="44.55826" lon="1.45594">
        <ele>274</ele>
        <time>2022-02-06T13:26:07Z</time>
      </trkpt>
      <trkpt lat="44.55827" lon="1.45587">
        <ele>274.1</ele>
        <time>2022-02-06T13:26:13Z</time>
      </trkpt>
      <trkpt lat="44.55828" lon="1.45581">
        <ele>273.3</ele>
        <time>2022-02-06T13:26:19Z</time>
      </trkpt>
      <trkpt lat="44.55828" lon="1.45573">
        <ele>273.4</ele>
        <time>2022-02-06T13:26:25Z</time>
      </trkpt>
      <trkpt lat="44.55826" lon="1.45567">
        <ele>274.3</ele>
        <time>2022-02-06T13:26:31Z</time>
      </trkpt>
      <trkpt lat="44.55822" lon="1.45564">
        <ele>277.6</ele>
        <time>2022-02-06T13:28:59Z</time>
      </trkpt>
      <trkpt lat="44.55819" lon="1.45558">
        <ele>277.2</ele>
        <time>2022-02-06T13:29:05Z</time>
      </trkpt>
      <trkpt lat="44.55815" lon="1.45552">
        <ele>276.5</ele>
        <time>2022-02-06T13:29:11Z</time>
      </trkpt>
      <trkpt lat="44.55811" lon="1.45549">
        <ele>276.1</ele>
        <time>2022-02-06T13:29:16Z</time>
      </trkpt>
      <trkpt lat="44.55806" lon="1.45547">
        <ele>275.5</ele>
        <time>2022-02-06T13:29:21Z</time>
      </trkpt>
      <trkpt lat="44.55801" lon="1.45545">
        <ele>274.3</ele>
        <time>2022-02-06T13:29:26Z</time>
      </trkpt>
      <trkpt lat="44.55796" lon="1.45544">
        <ele>273.4</ele>
        <time>2022-02-06T13:29:31Z</time>
      </trkpt>
      <trkpt lat="44.55792" lon="1.45542">
        <ele>273.2</ele>
        <time>2022-02-06T13:29:36Z</time>
      </trkpt>
      <trkpt lat="44.55787" lon="1.4554">
        <ele>273.2</ele>
        <time>2022-02-06T13:29:41Z</time>
      </trkpt>
      <trkpt lat="44.55782" lon="1.45538">
        <ele>272.4</ele>
        <time>2022-02-06T13:29:46Z</time>
      </trkpt>
      <trkpt lat="44.55777" lon="1.45536">
        <ele>271.8</ele>
        <time>2022-02-06T13:29:51Z</time>
      </trkpt>
      <trkpt lat="44.55772" lon="1.45534">
        <ele>270.8</ele>
        <time>2022-02-06T13:29:56Z</time>
      </trkpt>
      <trkpt lat="44.55767" lon="1.45532">
        <ele>270.1</ele>
        <time>2022-02-06T13:30:01Z</time>
      </trkpt>
      <trkpt lat="44.55762" lon="1.4553">
        <ele>269.4</ele>
        <time>2022-02-06T13:30:06Z</time>
      </trkpt>
      <trkpt lat="44.55757" lon="1.45527">
        <ele>269.1</ele>
        <time>2022-02-06T13:30:11Z</time>
      </trkpt>
      <trkpt lat="44.55752" lon="1.45524">
        <ele>269.8</ele>
        <time>2022-02-06T13:30:15Z</time>
      </trkpt>
      <trkpt lat="44.55748" lon="1.45521">
        <ele>270</ele>
        <time>2022-02-06T13:30:19Z</time>
      </trkpt>
      <trkpt lat="44.55744" lon="1.45515">
        <ele>269.6</ele>
        <time>2022-02-06T13:30:24Z</time>
      </trkpt>
      <trkpt lat="44.55742" lon="1.45509">
        <ele>268.6</ele>
        <time>2022-02-06T13:30:29Z</time>
      </trkpt>
      <trkpt lat="44.55739" lon="1.45502">
        <ele>267.6</ele>
        <time>2022-02-06T13:30:34Z</time>
      </trkpt>
      <trkpt lat="44.55737" lon="1.45496">
        <ele>266.4</ele>
        <time>2022-02-06T13:30:39Z</time>
      </trkpt>
      <trkpt lat="44.55735" lon="1.4549">
        <ele>265.5</ele>
        <time>2022-02-06T13:30:44Z</time>
      </trkpt>
      <trkpt lat="44.55731" lon="1.45484">
        <ele>264.6</ele>
        <time>2022-02-06T13:30:49Z</time>
      </trkpt>
      <trkpt lat="44.55728" lon="1.45478">
        <ele>263.6</ele>
        <time>2022-02-06T13:30:54Z</time>
      </trkpt>
      <trkpt lat="44.55725" lon="1.45473">
        <ele>262.5</ele>
        <time>2022-02-06T13:30:59Z</time>
      </trkpt>
      <trkpt lat="44.55721" lon="1.45468">
        <ele>261.5</ele>
        <time>2022-02-06T13:31:04Z</time>
      </trkpt>
      <trkpt lat="44.55718" lon="1.45462">
        <ele>260.6</ele>
        <time>2022-02-06T13:31:09Z</time>
      </trkpt>
      <trkpt lat="44.55714" lon="1.45457">
        <ele>259.7</ele>
        <time>2022-02-06T13:31:14Z</time>
      </trkpt>
      <trkpt lat="44.5571" lon="1.45452">
        <ele>258.9</ele>
        <time>2022-02-06T13:31:19Z</time>
      </trkpt>
      <trkpt lat="44.55707" lon="1.45447">
        <ele>258</ele>
        <time>2022-02-06T13:31:24Z</time>
      </trkpt>
      <trkpt lat="44.55703" lon="1.45442">
        <ele>257.2</ele>
        <time>2022-02-06T13:31:29Z</time>
      </trkpt>
      <trkpt lat="44.55699" lon="1.45437">
        <ele>256.2</ele>
        <time>2022-02-06T13:31:34Z</time>
      </trkpt>
      <trkpt lat="44.55695" lon="1.45432">
        <ele>255.5</ele>
        <time>2022-02-06T13:31:39Z</time>
      </trkpt>
      <trkpt lat="44.55691" lon="1.45427">
        <ele>254.8</ele>
        <time>2022-02-06T13:31:44Z</time>
      </trkpt>
      <trkpt lat="44.55687" lon="1.45421">
        <ele>254.9</ele>
        <time>2022-02-06T13:31:49Z</time>
      </trkpt>
      <trkpt lat="44.55684" lon="1.45416">
        <ele>254.9</ele>
        <time>2022-02-06T13:31:53Z</time>
      </trkpt>
      <trkpt lat="44.5568" lon="1.45411">
        <ele>254.5</ele>
        <time>2022-02-06T13:31:58Z</time>
      </trkpt>
      <trkpt lat="44.55677" lon="1.45406">
        <ele>254.4</ele>
        <time>2022-02-06T13:32:02Z</time>
      </trkpt>
      <trkpt lat="44.55675" lon="1.454">
        <ele>254.5</ele>
        <time>2022-02-06T13:32:06Z</time>
      </trkpt>
      <trkpt lat="44.55673" lon="1.45394">
        <ele>254.6</ele>
        <time>2022-02-06T13:32:10Z</time>
      </trkpt>
      <trkpt lat="44.5567" lon="1.45388">
        <ele>254.7</ele>
        <time>2022-02-06T13:32:14Z</time>
      </trkpt>
      <trkpt lat="44.55668" lon="1.45381">
        <ele>254.2</ele>
        <time>2022-02-06T13:32:19Z</time>
      </trkpt>
      <trkpt lat="44.55666" lon="1.45374">
        <ele>253.9</ele>
        <time>2022-02-06T13:32:24Z</time>
      </trkpt>
      <trkpt lat="44.55664" lon="1.45367">
        <ele>253.6</ele>
        <time>2022-02-06T13:32:29Z</time>
      </trkpt>
      <trkpt lat="44.55661" lon="1.45361">
        <ele>253.3</ele>
        <time>2022-02-06T13:32:34Z</time>
      </trkpt>
      <trkpt lat="44.55659" lon="1.45353">
        <ele>253.2</ele>
        <time>2022-02-06T13:32:39Z</time>
      </trkpt>
      <trkpt lat="44.55658" lon="1.45346">
        <ele>253.3</ele>
        <time>2022-02-06T13:32:43Z</time>
      </trkpt>
      <trkpt lat="44.55656" lon="1.4534">
        <ele>253.3</ele>
        <time>2022-02-06T13:32:47Z</time>
      </trkpt>
      <trkpt lat="44.55654" lon="1.45333">
        <ele>253.1</ele>
        <time>2022-02-06T13:32:51Z</time>
      </trkpt>
      <trkpt lat="44.5565" lon="1.45328">
        <ele>253.2</ele>
        <time>2022-02-06T13:32:55Z</time>
      </trkpt>
      <trkpt lat="44.55646" lon="1.45323">
        <ele>253.3</ele>
        <time>2022-02-06T13:32:59Z</time>
      </trkpt>
      <trkpt lat="44.55642" lon="1.45321">
        <ele>253.3</ele>
        <time>2022-02-06T13:33:03Z</time>
      </trkpt>
      <trkpt lat="44.55637" lon="1.45321">
        <ele>252.2</ele>
        <time>2022-02-06T13:33:08Z</time>
      </trkpt>
      <trkpt lat="44.55631" lon="1.45322">
        <ele>251.2</ele>
        <time>2022-02-06T13:33:13Z</time>
      </trkpt>
      <trkpt lat="44.55627" lon="1.45321">
        <ele>251.6</ele>
        <time>2022-02-06T13:33:17Z</time>
      </trkpt>
      <trkpt lat="44.55622" lon="1.45319">
        <ele>252.5</ele>
        <time>2022-02-06T13:33:21Z</time>
      </trkpt>
      <trkpt lat="44.55617" lon="1.45316">
        <ele>254.1</ele>
        <time>2022-02-06T13:33:26Z</time>
      </trkpt>
      <trkpt lat="44.55613" lon="1.45313">
        <ele>254.9</ele>
        <time>2022-02-06T13:33:30Z</time>
      </trkpt>
      <trkpt lat="44.5561" lon="1.45308">
        <ele>255.9</ele>
        <time>2022-02-06T13:33:35Z</time>
      </trkpt>
      <trkpt lat="44.55608" lon="1.45301">
        <ele>257.9</ele>
        <time>2022-02-06T13:33:41Z</time>
      </trkpt>
      <trkpt lat="44.55608" lon="1.45295">
        <ele>259.5</ele>
        <time>2022-02-06T13:33:49Z</time>
      </trkpt>
      <trkpt lat="44.55606" lon="1.45288">
        <ele>259.7</ele>
        <time>2022-02-06T13:33:55Z</time>
      </trkpt>
      <trkpt lat="44.55605" lon="1.45281">
        <ele>259.8</ele>
        <time>2022-02-06T13:34:01Z</time>
      </trkpt>
      <trkpt lat="44.55604" lon="1.45273">
        <ele>260.3</ele>
        <time>2022-02-06T13:34:07Z</time>
      </trkpt>
      <trkpt lat="44.55603" lon="1.45267">
        <ele>261</ele>
        <time>2022-02-06T13:34:11Z</time>
      </trkpt>
      <trkpt lat="44.55601" lon="1.4526">
        <ele>261.8</ele>
        <time>2022-02-06T13:34:17Z</time>
      </trkpt>
      <trkpt lat="44.556" lon="1.45253">
        <ele>263.1</ele>
        <time>2022-02-06T13:34:23Z</time>
      </trkpt>
      <trkpt lat="44.55599" lon="1.45246">
        <ele>264.4</ele>
        <time>2022-02-06T13:34:29Z</time>
      </trkpt>
      <trkpt lat="44.55597" lon="1.45239">
        <ele>265.4</ele>
        <time>2022-02-06T13:34:36Z</time>
      </trkpt>
      <trkpt lat="44.55595" lon="1.45233">
        <ele>265.6</ele>
        <time>2022-02-06T13:34:42Z</time>
      </trkpt>
      <trkpt lat="44.55593" lon="1.45227">
        <ele>265.4</ele>
        <time>2022-02-06T13:34:47Z</time>
      </trkpt>
      <trkpt lat="44.55591" lon="1.45221">
        <ele>265.9</ele>
        <time>2022-02-06T13:34:53Z</time>
      </trkpt>
      <trkpt lat="44.55589" lon="1.45214">
        <ele>266.6</ele>
        <time>2022-02-06T13:34:59Z</time>
      </trkpt>
      <trkpt lat="44.55587" lon="1.45207">
        <ele>267.5</ele>
        <time>2022-02-06T13:35:04Z</time>
      </trkpt>
      <trkpt lat="44.55585" lon="1.45201">
        <ele>268.1</ele>
        <time>2022-02-06T13:35:09Z</time>
      </trkpt>
      <trkpt lat="44.55582" lon="1.45196">
        <ele>269.1</ele>
        <time>2022-02-06T13:35:15Z</time>
      </trkpt>
      <trkpt lat="44.55578" lon="1.45191">
        <ele>269.2</ele>
        <time>2022-02-06T13:35:21Z</time>
      </trkpt>
      <trkpt lat="44.55575" lon="1.45186">
        <ele>269.1</ele>
        <time>2022-02-06T13:35:26Z</time>
      </trkpt>
      <trkpt lat="44.55571" lon="1.45181">
        <ele>268.6</ele>
        <time>2022-02-06T13:35:32Z</time>
      </trkpt>
      <trkpt lat="44.55566" lon="1.45178">
        <ele>268.3</ele>
        <time>2022-02-06T13:35:37Z</time>
      </trkpt>
      <trkpt lat="44.55562" lon="1.45175">
        <ele>267.8</ele>
        <time>2022-02-06T13:35:42Z</time>
      </trkpt>
      <trkpt lat="44.55557" lon="1.45175">
        <ele>267.2</ele>
        <time>2022-02-06T13:35:47Z</time>
      </trkpt>
      <trkpt lat="44.55553" lon="1.45175">
        <ele>267.1</ele>
        <time>2022-02-06T13:35:52Z</time>
      </trkpt>
      <trkpt lat="44.55548" lon="1.45176">
        <ele>267.7</ele>
        <time>2022-02-06T13:35:58Z</time>
      </trkpt>
      <trkpt lat="44.55543" lon="1.45177">
        <ele>267.6</ele>
        <time>2022-02-06T13:36:04Z</time>
      </trkpt>
      <trkpt lat="44.55538" lon="1.45179">
        <ele>267.8</ele>
        <time>2022-02-06T13:36:10Z</time>
      </trkpt>
      <trkpt lat="44.55534" lon="1.45181">
        <ele>267.8</ele>
        <time>2022-02-06T13:36:16Z</time>
      </trkpt>
      <trkpt lat="44.55529" lon="1.45183">
        <ele>268.7</ele>
        <time>2022-02-06T13:36:22Z</time>
      </trkpt>
      <trkpt lat="44.55524" lon="1.45184">
        <ele>269.2</ele>
        <time>2022-02-06T13:36:27Z</time>
      </trkpt>
      <trkpt lat="44.55519" lon="1.45186">
        <ele>269.5</ele>
        <time>2022-02-06T13:36:33Z</time>
      </trkpt>
      <trkpt lat="44.55515" lon="1.45188">
        <ele>268.9</ele>
        <time>2022-02-06T13:36:39Z</time>
      </trkpt>
      <trkpt lat="44.55509" lon="1.4519">
        <ele>268.4</ele>
        <time>2022-02-06T13:36:45Z</time>
      </trkpt>
      <trkpt lat="44.55505" lon="1.45192">
        <ele>268.6</ele>
        <time>2022-02-06T13:36:50Z</time>
      </trkpt>
      <trkpt lat="44.555" lon="1.45194">
        <ele>269.9</ele>
        <time>2022-02-06T13:36:56Z</time>
      </trkpt>
      <trkpt lat="44.55496" lon="1.45196">
        <ele>270</ele>
        <time>2022-02-06T13:37:02Z</time>
      </trkpt>
      <trkpt lat="44.55491" lon="1.45199">
        <ele>270.4</ele>
        <time>2022-02-06T13:37:08Z</time>
      </trkpt>
      <trkpt lat="44.55486" lon="1.452">
        <ele>272.2</ele>
        <time>2022-02-06T13:37:14Z</time>
      </trkpt>
      <trkpt lat="44.55481" lon="1.452">
        <ele>275</ele>
        <time>2022-02-06T13:37:19Z</time>
      </trkpt>
      <trkpt lat="44.55476" lon="1.452">
        <ele>277.3</ele>
        <time>2022-02-06T13:37:25Z</time>
      </trkpt>
      <trkpt lat="44.55471" lon="1.45199">
        <ele>279</ele>
        <time>2022-02-06T13:37:31Z</time>
      </trkpt>
      <trkpt lat="44.55466" lon="1.45198">
        <ele>280</ele>
        <time>2022-02-06T13:37:36Z</time>
      </trkpt>
      <trkpt lat="44.55461" lon="1.45196">
        <ele>281.1</ele>
        <time>2022-02-06T13:37:42Z</time>
      </trkpt>
      <trkpt lat="44.55457" lon="1.45193">
        <ele>281.8</ele>
        <time>2022-02-06T13:37:48Z</time>
      </trkpt>
      <trkpt lat="44.55452" lon="1.4519">
        <ele>281.5</ele>
        <time>2022-02-06T13:37:54Z</time>
      </trkpt>
      <trkpt lat="44.55447" lon="1.45189">
        <ele>281.5</ele>
        <time>2022-02-06T13:37:59Z</time>
      </trkpt>
      <trkpt lat="44.55443" lon="1.45188">
        <ele>283.4</ele>
        <time>2022-02-06T13:38:04Z</time>
      </trkpt>
      <trkpt lat="44.55439" lon="1.45192">
        <ele>285.1</ele>
        <time>2022-02-06T13:38:11Z</time>
      </trkpt>
      <trkpt lat="44.55441" lon="1.45198">
        <ele>285.4</ele>
        <time>2022-02-06T13:38:19Z</time>
      </trkpt>
      <trkpt lat="44.55445" lon="1.45201">
        <ele>286.2</ele>
        <time>2022-02-06T13:38:25Z</time>
      </trkpt>
      <trkpt lat="44.55449" lon="1.45206">
        <ele>286.8</ele>
        <time>2022-02-06T13:38:31Z</time>
      </trkpt>
      <trkpt lat="44.55453" lon="1.4521">
        <ele>287.3</ele>
        <time>2022-02-06T13:38:37Z</time>
      </trkpt>
      <trkpt lat="44.55457" lon="1.45215">
        <ele>287.6</ele>
        <time>2022-02-06T13:38:43Z</time>
      </trkpt>
      <trkpt lat="44.55461" lon="1.45219">
        <ele>288.1</ele>
        <time>2022-02-06T13:38:49Z</time>
      </trkpt>
      <trkpt lat="44.55465" lon="1.45223">
        <ele>288.4</ele>
        <time>2022-02-06T13:38:55Z</time>
      </trkpt>
      <trkpt lat="44.55468" lon="1.45228">
        <ele>289</ele>
        <time>2022-02-06T13:39:01Z</time>
      </trkpt>
      <trkpt lat="44.55472" lon="1.45231">
        <ele>289.3</ele>
        <time>2022-02-06T13:39:07Z</time>
      </trkpt>
      <trkpt lat="44.55477" lon="1.45234">
        <ele>289.8</ele>
        <time>2022-02-06T13:39:13Z</time>
      </trkpt>
      <trkpt lat="44.55482" lon="1.45238">
        <ele>290.2</ele>
        <time>2022-02-06T13:39:18Z</time>
      </trkpt>
      <trkpt lat="44.55486" lon="1.45242">
        <ele>291.1</ele>
        <time>2022-02-06T13:39:24Z</time>
      </trkpt>
      <trkpt lat="44.5549" lon="1.45246">
        <ele>292</ele>
        <time>2022-02-06T13:39:30Z</time>
      </trkpt>
      <trkpt lat="44.55493" lon="1.45251">
        <ele>292.7</ele>
        <time>2022-02-06T13:39:36Z</time>
      </trkpt>
      <trkpt lat="44.55493" lon="1.45257">
        <ele>293</ele>
        <time>2022-02-06T13:39:43Z</time>
      </trkpt>
      <trkpt lat="44.55488" lon="1.45259">
        <ele>292.6</ele>
        <time>2022-02-06T13:39:49Z</time>
      </trkpt>
      <trkpt lat="44.55483" lon="1.45259">
        <ele>292.2</ele>
        <time>2022-02-06T13:39:55Z</time>
      </trkpt>
      <trkpt lat="44.55478" lon="1.45257">
        <ele>292.5</ele>
        <time>2022-02-06T13:40:00Z</time>
      </trkpt>
      <trkpt lat="44.55473" lon="1.45256">
        <ele>293.9</ele>
        <time>2022-02-06T13:40:05Z</time>
      </trkpt>
      <trkpt lat="44.55468" lon="1.45255">
        <ele>295.8</ele>
        <time>2022-02-06T13:40:11Z</time>
      </trkpt>
      <trkpt lat="44.55464" lon="1.45253">
        <ele>296.6</ele>
        <time>2022-02-06T13:40:17Z</time>
      </trkpt>
      <trkpt lat="44.55459" lon="1.45253">
        <ele>296.8</ele>
        <time>2022-02-06T13:40:23Z</time>
      </trkpt>
      <trkpt lat="44.55454" lon="1.4525">
        <ele>297.6</ele>
        <time>2022-02-06T13:40:30Z</time>
      </trkpt>
      <trkpt lat="44.55449" lon="1.45248">
        <ele>298.1</ele>
        <time>2022-02-06T13:40:36Z</time>
      </trkpt>
      <trkpt lat="44.55444" lon="1.45247">
        <ele>299</ele>
        <time>2022-02-06T13:40:42Z</time>
      </trkpt>
      <trkpt lat="44.5544" lon="1.45245">
        <ele>299.3</ele>
        <time>2022-02-06T13:40:48Z</time>
      </trkpt>
      <trkpt lat="44.55435" lon="1.45242">
        <ele>299.5</ele>
        <time>2022-02-06T13:40:54Z</time>
      </trkpt>
      <trkpt lat="44.55431" lon="1.45239">
        <ele>300</ele>
        <time>2022-02-06T13:40:59Z</time>
      </trkpt>
      <trkpt lat="44.55427" lon="1.45237">
        <ele>300.6</ele>
        <time>2022-02-06T13:41:04Z</time>
      </trkpt>
      <trkpt lat="44.55422" lon="1.45234">
        <ele>301.4</ele>
        <time>2022-02-06T13:41:08Z</time>
      </trkpt>
      <trkpt lat="44.55418" lon="1.4523">
        <ele>302.8</ele>
        <time>2022-02-06T13:41:13Z</time>
      </trkpt>
      <trkpt lat="44.55414" lon="1.45226">
        <ele>303.1</ele>
        <time>2022-02-06T13:41:20Z</time>
      </trkpt>
      <trkpt lat="44.5541" lon="1.45222">
        <ele>303.8</ele>
        <time>2022-02-06T13:41:26Z</time>
      </trkpt>
      <trkpt lat="44.55406" lon="1.45219">
        <ele>304.8</ele>
        <time>2022-02-06T13:41:31Z</time>
      </trkpt>
      <trkpt lat="44.55402" lon="1.45215">
        <ele>305.7</ele>
        <time>2022-02-06T13:41:37Z</time>
      </trkpt>
      <trkpt lat="44.55397" lon="1.45211">
        <ele>306.8</ele>
        <time>2022-02-06T13:41:43Z</time>
      </trkpt>
      <trkpt lat="44.55393" lon="1.45209">
        <ele>307.7</ele>
        <time>2022-02-06T13:41:48Z</time>
      </trkpt>
      <trkpt lat="44.55389" lon="1.45207">
        <ele>307.5</ele>
        <time>2022-02-06T13:41:53Z</time>
      </trkpt>
      <trkpt lat="44.55384" lon="1.45204">
        <ele>307.8</ele>
        <time>2022-02-06T13:41:59Z</time>
      </trkpt>
      <trkpt lat="44.55379" lon="1.45203">
        <ele>307.2</ele>
        <time>2022-02-06T13:42:05Z</time>
      </trkpt>
      <trkpt lat="44.55375" lon="1.45205">
        <ele>306.5</ele>
        <time>2022-02-06T13:42:10Z</time>
      </trkpt>
      <trkpt lat="44.5537" lon="1.45209">
        <ele>306.9</ele>
        <time>2022-02-06T13:42:16Z</time>
      </trkpt>
      <trkpt lat="44.55366" lon="1.45212">
        <ele>308</ele>
        <time>2022-02-06T13:42:22Z</time>
      </trkpt>
      <trkpt lat="44.55362" lon="1.45216">
        <ele>309.3</ele>
        <time>2022-02-06T13:42:28Z</time>
      </trkpt>
      <trkpt lat="44.55358" lon="1.45221">
        <ele>310</ele>
        <time>2022-02-06T13:42:34Z</time>
      </trkpt>
      <trkpt lat="44.55355" lon="1.45225">
        <ele>310.6</ele>
        <time>2022-02-06T13:42:40Z</time>
      </trkpt>
      <trkpt lat="44.55351" lon="1.45229">
        <ele>310.4</ele>
        <time>2022-02-06T13:42:46Z</time>
      </trkpt>
      <trkpt lat="44.55347" lon="1.45233">
        <ele>309.5</ele>
        <time>2022-02-06T13:42:52Z</time>
      </trkpt>
      <trkpt lat="44.55344" lon="1.45238">
        <ele>309.4</ele>
        <time>2022-02-06T13:42:58Z</time>
      </trkpt>
      <trkpt lat="44.5534" lon="1.45242">
        <ele>309.1</ele>
        <time>2022-02-06T13:43:04Z</time>
      </trkpt>
      <trkpt lat="44.55335" lon="1.45246">
        <ele>308.8</ele>
        <time>2022-02-06T13:43:10Z</time>
      </trkpt>
      <trkpt lat="44.55331" lon="1.4525">
        <ele>308.9</ele>
        <time>2022-02-06T13:43:17Z</time>
      </trkpt>
      <trkpt lat="44.55326" lon="1.4525">
        <ele>306.1</ele>
        <time>2022-02-06T13:46:01Z</time>
      </trkpt>
      <trkpt lat="44.55324" lon="1.45256">
        <ele>304.8</ele>
        <time>2022-02-06T13:46:08Z</time>
      </trkpt>
      <trkpt lat="44.55323" lon="1.45262">
        <ele>304</ele>
        <time>2022-02-06T13:46:15Z</time>
      </trkpt>
      <trkpt lat="44.55325" lon="1.45268">
        <ele>304.2</ele>
        <time>2022-02-06T13:46:20Z</time>
      </trkpt>
      <trkpt lat="44.55329" lon="1.45274">
        <ele>305.2</ele>
        <time>2022-02-06T13:46:25Z</time>
      </trkpt>
      <trkpt lat="44.55331" lon="1.45281">
        <ele>305</ele>
        <time>2022-02-06T13:46:36Z</time>
      </trkpt>
      <trkpt lat="44.55332" lon="1.45287">
        <ele>305.3</ele>
        <time>2022-02-06T13:46:41Z</time>
      </trkpt>
      <trkpt lat="44.55334" lon="1.45293">
        <ele>305.4</ele>
        <time>2022-02-06T13:46:46Z</time>
      </trkpt>
      <trkpt lat="44.55336" lon="1.45299">
        <ele>305.4</ele>
        <time>2022-02-06T13:46:51Z</time>
      </trkpt>
      <trkpt lat="44.55337" lon="1.45306">
        <ele>305.3</ele>
        <time>2022-02-06T13:46:56Z</time>
      </trkpt>
      <trkpt lat="44.5534" lon="1.45313">
        <ele>305.5</ele>
        <time>2022-02-06T13:47:02Z</time>
      </trkpt>
      <trkpt lat="44.55341" lon="1.45319">
        <ele>305.3</ele>
        <time>2022-02-06T13:47:07Z</time>
      </trkpt>
      <trkpt lat="44.55342" lon="1.45327">
        <ele>305.4</ele>
        <time>2022-02-06T13:47:12Z</time>
      </trkpt>
      <trkpt lat="44.55344" lon="1.45333">
        <ele>305.8</ele>
        <time>2022-02-06T13:47:17Z</time>
      </trkpt>
      <trkpt lat="44.55345" lon="1.45341">
        <ele>306.9</ele>
        <time>2022-02-06T13:47:22Z</time>
      </trkpt>
      <trkpt lat="44.55346" lon="1.45347">
        <ele>307.7</ele>
        <time>2022-02-06T13:47:26Z</time>
      </trkpt>
      <trkpt lat="44.55347" lon="1.45355">
        <ele>308.8</ele>
        <time>2022-02-06T13:47:31Z</time>
      </trkpt>
      <trkpt lat="44.55348" lon="1.45362">
        <ele>310.1</ele>
        <time>2022-02-06T13:47:36Z</time>
      </trkpt>
      <trkpt lat="44.55349" lon="1.45369">
        <ele>311.2</ele>
        <time>2022-02-06T13:47:41Z</time>
      </trkpt>
      <trkpt lat="44.5535" lon="1.45376">
        <ele>311.7</ele>
        <time>2022-02-06T13:47:46Z</time>
      </trkpt>
      <trkpt lat="44.5535" lon="1.45384">
        <ele>312.5</ele>
        <time>2022-02-06T13:47:50Z</time>
      </trkpt>
      <trkpt lat="44.5535" lon="1.4539">
        <ele>312.8</ele>
        <time>2022-02-06T13:47:54Z</time>
      </trkpt>
      <trkpt lat="44.5535" lon="1.45398">
        <ele>313.4</ele>
        <time>2022-02-06T13:47:59Z</time>
      </trkpt>
      <trkpt lat="44.55349" lon="1.45404">
        <ele>313.8</ele>
        <time>2022-02-06T13:48:03Z</time>
      </trkpt>
      <trkpt lat="44.55347" lon="1.45411">
        <ele>313.8</ele>
        <time>2022-02-06T13:48:08Z</time>
      </trkpt>
      <trkpt lat="44.55345" lon="1.45418">
        <ele>312.7</ele>
        <time>2022-02-06T13:48:14Z</time>
      </trkpt>
      <trkpt lat="44.55342" lon="1.45423">
        <ele>310.6</ele>
        <time>2022-02-06T13:48:20Z</time>
      </trkpt>
      <trkpt lat="44.55338" lon="1.45427">
        <ele>307.9</ele>
        <time>2022-02-06T13:48:26Z</time>
      </trkpt>
      <trkpt lat="44.55334" lon="1.45431">
        <ele>304.7</ele>
        <time>2022-02-06T13:48:32Z</time>
      </trkpt>
      <trkpt lat="44.55332" lon="1.45438">
        <ele>303</ele>
        <time>2022-02-06T13:48:38Z</time>
      </trkpt>
      <trkpt lat="44.5533" lon="1.45444">
        <ele>302.7</ele>
        <time>2022-02-06T13:48:43Z</time>
      </trkpt>
      <trkpt lat="44.55327" lon="1.45451">
        <ele>302.7</ele>
        <time>2022-02-06T13:48:48Z</time>
      </trkpt>
      <trkpt lat="44.55324" lon="1.45456">
        <ele>302.1</ele>
        <time>2022-02-06T13:48:53Z</time>
      </trkpt>
      <trkpt lat="44.55322" lon="1.45463">
        <ele>301.5</ele>
        <time>2022-02-06T13:48:59Z</time>
      </trkpt>
      <trkpt lat="44.55319" lon="1.45469">
        <ele>302.7</ele>
        <time>2022-02-06T13:49:04Z</time>
      </trkpt>
      <trkpt lat="44.55315" lon="1.45472">
        <ele>304.2</ele>
        <time>2022-02-06T13:49:09Z</time>
      </trkpt>
      <trkpt lat="44.5531" lon="1.45473">
        <ele>304.2</ele>
        <time>2022-02-06T13:49:14Z</time>
      </trkpt>
      <trkpt lat="44.55305" lon="1.45474">
        <ele>303.3</ele>
        <time>2022-02-06T13:49:20Z</time>
      </trkpt>
      <trkpt lat="44.553" lon="1.45475">
        <ele>301.6</ele>
        <time>2022-02-06T13:49:26Z</time>
      </trkpt>
      <trkpt lat="44.55295" lon="1.45477">
        <ele>300.4</ele>
        <time>2022-02-06T13:49:31Z</time>
      </trkpt>
      <trkpt lat="44.55291" lon="1.45479">
        <ele>299.2</ele>
        <time>2022-02-06T13:49:36Z</time>
      </trkpt>
      <trkpt lat="44.55286" lon="1.45483">
        <ele>298</ele>
        <time>2022-02-06T13:49:41Z</time>
      </trkpt>
      <trkpt lat="44.55282" lon="1.45486">
        <ele>296.8</ele>
        <time>2022-02-06T13:49:46Z</time>
      </trkpt>
      <trkpt lat="44.55277" lon="1.4549">
        <ele>295.5</ele>
        <time>2022-02-06T13:49:51Z</time>
      </trkpt>
      <trkpt lat="44.55273" lon="1.45493">
        <ele>294.6</ele>
        <time>2022-02-06T13:49:56Z</time>
      </trkpt>
      <trkpt lat="44.55269" lon="1.45496">
        <ele>293.6</ele>
        <time>2022-02-06T13:50:01Z</time>
      </trkpt>
      <trkpt lat="44.55265" lon="1.45499">
        <ele>292.9</ele>
        <time>2022-02-06T13:50:06Z</time>
      </trkpt>
      <trkpt lat="44.5526" lon="1.45503">
        <ele>291.8</ele>
        <time>2022-02-06T13:50:11Z</time>
      </trkpt>
      <trkpt lat="44.55256" lon="1.45507">
        <ele>291.2</ele>
        <time>2022-02-06T13:50:16Z</time>
      </trkpt>
      <trkpt lat="44.55252" lon="1.4551">
        <ele>290.4</ele>
        <time>2022-02-06T13:50:21Z</time>
      </trkpt>
      <trkpt lat="44.55248" lon="1.45514">
        <ele>290.1</ele>
        <time>2022-02-06T13:50:26Z</time>
      </trkpt>
      <trkpt lat="44.55243" lon="1.45518">
        <ele>289.6</ele>
        <time>2022-02-06T13:50:31Z</time>
      </trkpt>
      <trkpt lat="44.55239" lon="1.45522">
        <ele>289.6</ele>
        <time>2022-02-06T13:50:36Z</time>
      </trkpt>
      <trkpt lat="44.55235" lon="1.45527">
        <ele>289.6</ele>
        <time>2022-02-06T13:50:41Z</time>
      </trkpt>
      <trkpt lat="44.55231" lon="1.45532">
        <ele>289.8</ele>
        <time>2022-02-06T13:50:46Z</time>
      </trkpt>
      <trkpt lat="44.55228" lon="1.45537">
        <ele>290.5</ele>
        <time>2022-02-06T13:50:50Z</time>
      </trkpt>
      <trkpt lat="44.55225" lon="1.45542">
        <ele>291.2</ele>
        <time>2022-02-06T13:50:54Z</time>
      </trkpt>
      <trkpt lat="44.55222" lon="1.45547">
        <ele>292.2</ele>
        <time>2022-02-06T13:50:58Z</time>
      </trkpt>
      <trkpt lat="44.55219" lon="1.45552">
        <ele>293.1</ele>
        <time>2022-02-06T13:51:02Z</time>
      </trkpt>
      <trkpt lat="44.55216" lon="1.45558">
        <ele>293.9</ele>
        <time>2022-02-06T13:51:07Z</time>
      </trkpt>
      <trkpt lat="44.55214" lon="1.45565">
        <ele>295.3</ele>
        <time>2022-02-06T13:51:12Z</time>
      </trkpt>
      <trkpt lat="44.55212" lon="1.45572">
        <ele>297.5</ele>
        <time>2022-02-06T13:51:17Z</time>
      </trkpt>
      <trkpt lat="44.5521" lon="1.45579">
        <ele>300.4</ele>
        <time>2022-02-06T13:51:27Z</time>
      </trkpt>
      <trkpt lat="44.55209" lon="1.45587">
        <ele>301.8</ele>
        <time>2022-02-06T13:51:32Z</time>
      </trkpt>
      <trkpt lat="44.55208" lon="1.45594">
        <ele>302.7</ele>
        <time>2022-02-06T13:51:36Z</time>
      </trkpt>
      <trkpt lat="44.55207" lon="1.456">
        <ele>304.4</ele>
        <time>2022-02-06T13:51:39Z</time>
      </trkpt>
      <trkpt lat="44.55206" lon="1.45608">
        <ele>306.5</ele>
        <time>2022-02-06T13:51:43Z</time>
      </trkpt>
      <trkpt lat="44.55205" lon="1.45614">
        <ele>308.5</ele>
        <time>2022-02-06T13:51:47Z</time>
      </trkpt>
      <trkpt lat="44.55204" lon="1.45621">
        <ele>310.9</ele>
        <time>2022-02-06T13:51:52Z</time>
      </trkpt>
      <trkpt lat="44.55203" lon="1.45628">
        <ele>312.1</ele>
        <time>2022-02-06T13:51:57Z</time>
      </trkpt>
      <trkpt lat="44.55203" lon="1.45636">
        <ele>315</ele>
        <time>2022-02-06T13:52:02Z</time>
      </trkpt>
      <trkpt lat="44.55202" lon="1.45642">
        <ele>317.1</ele>
        <time>2022-02-06T13:52:06Z</time>
      </trkpt>
      <trkpt lat="44.55202" lon="1.45649">
        <ele>319.3</ele>
        <time>2022-02-06T13:52:11Z</time>
      </trkpt>
      <trkpt lat="44.55202" lon="1.45657">
        <ele>320.6</ele>
        <time>2022-02-06T13:52:16Z</time>
      </trkpt>
      <trkpt lat="44.55202" lon="1.45663">
        <ele>322</ele>
        <time>2022-02-06T13:52:20Z</time>
      </trkpt>
      <trkpt lat="44.55201" lon="1.4567">
        <ele>323.4</ele>
        <time>2022-02-06T13:52:25Z</time>
      </trkpt>
      <trkpt lat="44.55201" lon="1.45678">
        <ele>324</ele>
        <time>2022-02-06T13:52:30Z</time>
      </trkpt>
      <trkpt lat="44.552" lon="1.45685">
        <ele>324.1</ele>
        <time>2022-02-06T13:52:35Z</time>
      </trkpt>
      <trkpt lat="44.552" lon="1.45691">
        <ele>324.2</ele>
        <time>2022-02-06T13:52:40Z</time>
      </trkpt>
      <trkpt lat="44.55199" lon="1.45698">
        <ele>324.2</ele>
        <time>2022-02-06T13:52:46Z</time>
      </trkpt>
      <trkpt lat="44.55198" lon="1.45705">
        <ele>323.8</ele>
        <time>2022-02-06T13:52:51Z</time>
      </trkpt>
      <trkpt lat="44.55198" lon="1.45711">
        <ele>323.6</ele>
        <time>2022-02-06T13:52:56Z</time>
      </trkpt>
      <trkpt lat="44.55197" lon="1.45718">
        <ele>323</ele>
        <time>2022-02-06T13:53:01Z</time>
      </trkpt>
      <trkpt lat="44.55196" lon="1.45724">
        <ele>322.8</ele>
        <time>2022-02-06T13:53:06Z</time>
      </trkpt>
      <trkpt lat="44.55196" lon="1.45731">
        <ele>323</ele>
        <time>2022-02-06T13:53:11Z</time>
      </trkpt>
      <trkpt lat="44.55195" lon="1.45737">
        <ele>323.5</ele>
        <time>2022-02-06T13:53:16Z</time>
      </trkpt>
      <trkpt lat="44.55195" lon="1.45744">
        <ele>323.7</ele>
        <time>2022-02-06T13:53:21Z</time>
      </trkpt>
      <trkpt lat="44.55195" lon="1.4575">
        <ele>323.4</ele>
        <time>2022-02-06T13:53:26Z</time>
      </trkpt>
      <trkpt lat="44.55193" lon="1.45757">
        <ele>322.9</ele>
        <time>2022-02-06T13:53:32Z</time>
      </trkpt>
      <trkpt lat="44.55192" lon="1.45763">
        <ele>322</ele>
        <time>2022-02-06T13:53:37Z</time>
      </trkpt>
      <trkpt lat="44.5519" lon="1.4577">
        <ele>320.6</ele>
        <time>2022-02-06T13:53:43Z</time>
      </trkpt>
      <trkpt lat="44.55186" lon="1.45776">
        <ele>319.1</ele>
        <time>2022-02-06T13:53:49Z</time>
      </trkpt>
      <trkpt lat="44.55181" lon="1.45778">
        <ele>317.4</ele>
        <time>2022-02-06T13:53:54Z</time>
      </trkpt>
      <trkpt lat="44.55177" lon="1.45782">
        <ele>316.3</ele>
        <time>2022-02-06T13:53:59Z</time>
      </trkpt>
      <trkpt lat="44.55173" lon="1.45786">
        <ele>315.7</ele>
        <time>2022-02-06T13:54:04Z</time>
      </trkpt>
      <trkpt lat="44.55168" lon="1.45789">
        <ele>314.4</ele>
        <time>2022-02-06T13:54:08Z</time>
      </trkpt>
      <trkpt lat="44.55163" lon="1.4579">
        <ele>312.3</ele>
        <time>2022-02-06T13:54:13Z</time>
      </trkpt>
      <trkpt lat="44.55159" lon="1.45792">
        <ele>310.6</ele>
        <time>2022-02-06T13:54:18Z</time>
      </trkpt>
      <trkpt lat="44.55154" lon="1.45794">
        <ele>308.5</ele>
        <time>2022-02-06T13:54:23Z</time>
      </trkpt>
      <trkpt lat="44.55149" lon="1.45795">
        <ele>306.7</ele>
        <time>2022-02-06T13:54:27Z</time>
      </trkpt>
      <trkpt lat="44.55145" lon="1.45797">
        <ele>305.5</ele>
        <time>2022-02-06T13:54:31Z</time>
      </trkpt>
      <trkpt lat="44.5514" lon="1.458">
        <ele>304.2</ele>
        <time>2022-02-06T13:54:36Z</time>
      </trkpt>
      <trkpt lat="44.55136" lon="1.45804">
        <ele>304</ele>
        <time>2022-02-06T13:54:41Z</time>
      </trkpt>
      <trkpt lat="44.55132" lon="1.45809">
        <ele>303.9</ele>
        <time>2022-02-06T13:54:46Z</time>
      </trkpt>
      <trkpt lat="44.55129" lon="1.45814">
        <ele>303.7</ele>
        <time>2022-02-06T13:54:51Z</time>
      </trkpt>
      <trkpt lat="44.55126" lon="1.4582">
        <ele>303.9</ele>
        <time>2022-02-06T13:54:56Z</time>
      </trkpt>
      <trkpt lat="44.55121" lon="1.45823">
        <ele>304</ele>
        <time>2022-02-06T13:55:02Z</time>
      </trkpt>
      <trkpt lat="44.55118" lon="1.45828">
        <ele>305.8</ele>
        <time>2022-02-06T13:55:17Z</time>
      </trkpt>
      <trkpt lat="44.55116" lon="1.45834">
        <ele>306.6</ele>
        <time>2022-02-06T13:55:23Z</time>
      </trkpt>
      <trkpt lat="44.55114" lon="1.4584">
        <ele>307.8</ele>
        <time>2022-02-06T13:55:28Z</time>
      </trkpt>
      <trkpt lat="44.5511" lon="1.45844">
        <ele>308</ele>
        <time>2022-02-06T13:55:33Z</time>
      </trkpt>
      <trkpt lat="44.55105" lon="1.45845">
        <ele>307.4</ele>
        <time>2022-02-06T13:55:38Z</time>
      </trkpt>
      <trkpt lat="44.55101" lon="1.45846">
        <ele>306.7</ele>
        <time>2022-02-06T13:55:43Z</time>
      </trkpt>
      <trkpt lat="44.55096" lon="1.45848">
        <ele>305.8</ele>
        <time>2022-02-06T13:55:48Z</time>
      </trkpt>
      <trkpt lat="44.5509" lon="1.45849">
        <ele>304.9</ele>
        <time>2022-02-06T13:55:53Z</time>
      </trkpt>
      <trkpt lat="44.55086" lon="1.45849">
        <ele>303.3</ele>
        <time>2022-02-06T13:55:57Z</time>
      </trkpt>
      <trkpt lat="44.55081" lon="1.45849">
        <ele>301.6</ele>
        <time>2022-02-06T13:56:01Z</time>
      </trkpt>
      <trkpt lat="44.55076" lon="1.45849">
        <ele>299.4</ele>
        <time>2022-02-06T13:56:05Z</time>
      </trkpt>
      <trkpt lat="44.55071" lon="1.45849">
        <ele>296.7</ele>
        <time>2022-02-06T13:56:10Z</time>
      </trkpt>
      <trkpt lat="44.55066" lon="1.45849">
        <ele>295.2</ele>
        <time>2022-02-06T13:56:14Z</time>
      </trkpt>
      <trkpt lat="44.55061" lon="1.45848">
        <ele>294</ele>
        <time>2022-02-06T13:56:19Z</time>
      </trkpt>
      <trkpt lat="44.55055" lon="1.45847">
        <ele>292.8</ele>
        <time>2022-02-06T13:56:24Z</time>
      </trkpt>
      <trkpt lat="44.5505" lon="1.45848">
        <ele>291.3</ele>
        <time>2022-02-06T13:56:29Z</time>
      </trkpt>
      <trkpt lat="44.55045" lon="1.45848">
        <ele>289.7</ele>
        <time>2022-02-06T13:56:34Z</time>
      </trkpt>
      <trkpt lat="44.5504" lon="1.45848">
        <ele>288.2</ele>
        <time>2022-02-06T13:56:39Z</time>
      </trkpt>
      <trkpt lat="44.55034" lon="1.45849">
        <ele>286.8</ele>
        <time>2022-02-06T13:56:44Z</time>
      </trkpt>
      <trkpt lat="44.5503" lon="1.4585">
        <ele>286.3</ele>
        <time>2022-02-06T13:56:48Z</time>
      </trkpt>
      <trkpt lat="44.55025" lon="1.45852">
        <ele>286.7</ele>
        <time>2022-02-06T13:56:53Z</time>
      </trkpt>
      <trkpt lat="44.55021" lon="1.45857">
        <ele>286.3</ele>
        <time>2022-02-06T13:56:59Z</time>
      </trkpt>
      <trkpt lat="44.55016" lon="1.4586">
        <ele>285</ele>
        <time>2022-02-06T13:57:04Z</time>
      </trkpt>
      <trkpt lat="44.55012" lon="1.45864">
        <ele>284</ele>
        <time>2022-02-06T13:57:09Z</time>
      </trkpt>
      <trkpt lat="44.55008" lon="1.45869">
        <ele>283.7</ele>
        <time>2022-02-06T13:57:14Z</time>
      </trkpt>
      <trkpt lat="44.55004" lon="1.45873">
        <ele>283.9</ele>
        <time>2022-02-06T13:57:19Z</time>
      </trkpt>
      <trkpt lat="44.55001" lon="1.45878">
        <ele>284.5</ele>
        <time>2022-02-06T13:57:24Z</time>
      </trkpt>
      <trkpt lat="44.54996" lon="1.45882">
        <ele>284.7</ele>
        <time>2022-02-06T13:57:29Z</time>
      </trkpt>
      <trkpt lat="44.54992" lon="1.45887">
        <ele>285.6</ele>
        <time>2022-02-06T13:57:34Z</time>
      </trkpt>
      <trkpt lat="44.54988" lon="1.45892">
        <ele>286.8</ele>
        <time>2022-02-06T13:57:39Z</time>
      </trkpt>
      <trkpt lat="44.54983" lon="1.45896">
        <ele>287.2</ele>
        <time>2022-02-06T13:57:44Z</time>
      </trkpt>
      <trkpt lat="44.54979" lon="1.45899">
        <ele>286.7</ele>
        <time>2022-02-06T13:57:48Z</time>
      </trkpt>
      <trkpt lat="44.54974" lon="1.45902">
        <ele>286.5</ele>
        <time>2022-02-06T13:57:52Z</time>
      </trkpt>
      <trkpt lat="44.5497" lon="1.45905">
        <ele>285.9</ele>
        <time>2022-02-06T13:57:56Z</time>
      </trkpt>
      <trkpt lat="44.54966" lon="1.45907">
        <ele>285.2</ele>
        <time>2022-02-06T13:58:00Z</time>
      </trkpt>
      <trkpt lat="44.54961" lon="1.45909">
        <ele>283.8</ele>
        <time>2022-02-06T13:58:04Z</time>
      </trkpt>
      <trkpt lat="44.54957" lon="1.45913">
        <ele>284.3</ele>
        <time>2022-02-06T13:58:08Z</time>
      </trkpt>
      <trkpt lat="44.54953" lon="1.45918">
        <ele>285.1</ele>
        <time>2022-02-06T13:58:13Z</time>
      </trkpt>
      <trkpt lat="44.54949" lon="1.45922">
        <ele>285.1</ele>
        <time>2022-02-06T13:58:18Z</time>
      </trkpt>
      <trkpt lat="44.54946" lon="1.45927">
        <ele>284.7</ele>
        <time>2022-02-06T13:58:23Z</time>
      </trkpt>
      <trkpt lat="44.54943" lon="1.45932">
        <ele>283.6</ele>
        <time>2022-02-06T13:58:28Z</time>
      </trkpt>
      <trkpt lat="44.54941" lon="1.45937">
        <ele>283.1</ele>
        <time>2022-02-06T13:58:33Z</time>
      </trkpt>
      <trkpt lat="44.54939" lon="1.45944">
        <ele>283.1</ele>
        <time>2022-02-06T13:58:38Z</time>
      </trkpt>
      <trkpt lat="44.54937" lon="1.45951">
        <ele>283.4</ele>
        <time>2022-02-06T13:58:44Z</time>
      </trkpt>
      <trkpt lat="44.54935" lon="1.45957">
        <ele>283.8</ele>
        <time>2022-02-06T13:58:49Z</time>
      </trkpt>
      <trkpt lat="44.54934" lon="1.45963">
        <ele>283.5</ele>
        <time>2022-02-06T13:58:54Z</time>
      </trkpt>
      <trkpt lat="44.54933" lon="1.45971">
        <ele>283.3</ele>
        <time>2022-02-06T13:58:59Z</time>
      </trkpt>
      <trkpt lat="44.54933" lon="1.45978">
        <ele>282.8</ele>
        <time>2022-02-06T13:59:04Z</time>
      </trkpt>
      <trkpt lat="44.54934" lon="1.45985">
        <ele>282.8</ele>
        <time>2022-02-06T13:59:09Z</time>
      </trkpt>
      <trkpt lat="44.54934" lon="1.45992">
        <ele>282.6</ele>
        <time>2022-02-06T13:59:14Z</time>
      </trkpt>
      <trkpt lat="44.54935" lon="1.45999">
        <ele>282.9</ele>
        <time>2022-02-06T13:59:19Z</time>
      </trkpt>
      <trkpt lat="44.54935" lon="1.46006">
        <ele>282.9</ele>
        <time>2022-02-06T13:59:23Z</time>
      </trkpt>
      <trkpt lat="44.54937" lon="1.46013">
        <ele>283.2</ele>
        <time>2022-02-06T13:59:28Z</time>
      </trkpt>
      <trkpt lat="44.54938" lon="1.4602">
        <ele>283.3</ele>
        <time>2022-02-06T13:59:33Z</time>
      </trkpt>
      <trkpt lat="44.54939" lon="1.46027">
        <ele>283.6</ele>
        <time>2022-02-06T13:59:38Z</time>
      </trkpt>
      <trkpt lat="44.54941" lon="1.46034">
        <ele>283.5</ele>
        <time>2022-02-06T13:59:43Z</time>
      </trkpt>
      <trkpt lat="44.54943" lon="1.46041">
        <ele>283.4</ele>
        <time>2022-02-06T13:59:48Z</time>
      </trkpt>
      <trkpt lat="44.54946" lon="1.46047">
        <ele>283.3</ele>
        <time>2022-02-06T13:59:53Z</time>
      </trkpt>
      <trkpt lat="44.54948" lon="1.46053">
        <ele>282.9</ele>
        <time>2022-02-06T13:59:58Z</time>
      </trkpt>
      <trkpt lat="44.54951" lon="1.4606">
        <ele>282.9</ele>
        <time>2022-02-06T14:00:03Z</time>
      </trkpt>
      <trkpt lat="44.54952" lon="1.46067">
        <ele>282.8</ele>
        <time>2022-02-06T14:00:08Z</time>
      </trkpt>
      <trkpt lat="44.54947" lon="1.46071">
        <ele>281.4</ele>
        <time>2022-02-06T14:00:13Z</time>
      </trkpt>
      <trkpt lat="44.54942" lon="1.46069">
        <ele>279.9</ele>
        <time>2022-02-06T14:00:17Z</time>
      </trkpt>
      <trkpt lat="44.54938" lon="1.46066">
        <ele>278.7</ele>
        <time>2022-02-06T14:00:22Z</time>
      </trkpt>
      <trkpt lat="44.54936" lon="1.46059">
        <ele>278.2</ele>
        <time>2022-02-06T14:00:27Z</time>
      </trkpt>
      <trkpt lat="44.54933" lon="1.46053">
        <ele>277.7</ele>
        <time>2022-02-06T14:00:32Z</time>
      </trkpt>
      <trkpt lat="44.5493" lon="1.46048">
        <ele>276.4</ele>
        <time>2022-02-06T14:00:37Z</time>
      </trkpt>
      <trkpt lat="44.54926" lon="1.46043">
        <ele>275.7</ele>
        <time>2022-02-06T14:00:42Z</time>
      </trkpt>
      <trkpt lat="44.54922" lon="1.46038">
        <ele>274</ele>
        <time>2022-02-06T14:00:47Z</time>
      </trkpt>
      <trkpt lat="44.54919" lon="1.46032">
        <ele>273.4</ele>
        <time>2022-02-06T14:00:52Z</time>
      </trkpt>
      <trkpt lat="44.54916" lon="1.46027">
        <ele>272.6</ele>
        <time>2022-02-06T14:00:57Z</time>
      </trkpt>
      <trkpt lat="44.54913" lon="1.46021">
        <ele>272.1</ele>
        <time>2022-02-06T14:01:02Z</time>
      </trkpt>
      <trkpt lat="44.5491" lon="1.46017">
        <ele>271.4</ele>
        <time>2022-02-06T14:01:06Z</time>
      </trkpt>
      <trkpt lat="44.54906" lon="1.46011">
        <ele>270.9</ele>
        <time>2022-02-06T14:01:11Z</time>
      </trkpt>
      <trkpt lat="44.54904" lon="1.46005">
        <ele>270.3</ele>
        <time>2022-02-06T14:01:15Z</time>
      </trkpt>
      <trkpt lat="44.54901" lon="1.46">
        <ele>269.8</ele>
        <time>2022-02-06T14:01:19Z</time>
      </trkpt>
      <trkpt lat="44.54898" lon="1.45994">
        <ele>269</ele>
        <time>2022-02-06T14:01:24Z</time>
      </trkpt>
      <trkpt lat="44.54895" lon="1.45988">
        <ele>268.4</ele>
        <time>2022-02-06T14:01:29Z</time>
      </trkpt>
      <trkpt lat="44.54892" lon="1.45982">
        <ele>267.8</ele>
        <time>2022-02-06T14:01:34Z</time>
      </trkpt>
      <trkpt lat="44.5489" lon="1.45976">
        <ele>267.1</ele>
        <time>2022-02-06T14:01:39Z</time>
      </trkpt>
      <trkpt lat="44.54887" lon="1.45969">
        <ele>266.7</ele>
        <time>2022-02-06T14:01:44Z</time>
      </trkpt>
      <trkpt lat="44.54885" lon="1.45962">
        <ele>265.8</ele>
        <time>2022-02-06T14:01:49Z</time>
      </trkpt>
      <trkpt lat="44.54884" lon="1.45956">
        <ele>265</ele>
        <time>2022-02-06T14:01:54Z</time>
      </trkpt>
      <trkpt lat="44.54884" lon="1.45949">
        <ele>264.2</ele>
        <time>2022-02-06T14:01:59Z</time>
      </trkpt>
      <trkpt lat="44.54885" lon="1.45942">
        <ele>263.1</ele>
        <time>2022-02-06T14:02:04Z</time>
      </trkpt>
      <trkpt lat="44.54886" lon="1.45936">
        <ele>261.9</ele>
        <time>2022-02-06T14:02:09Z</time>
      </trkpt>
      <trkpt lat="44.54888" lon="1.4593">
        <ele>260.6</ele>
        <time>2022-02-06T14:02:14Z</time>
      </trkpt>
      <trkpt lat="44.54889" lon="1.45924">
        <ele>259.8</ele>
        <time>2022-02-06T14:02:18Z</time>
      </trkpt>
      <trkpt lat="44.54892" lon="1.45918">
        <ele>259.2</ele>
        <time>2022-02-06T14:02:22Z</time>
      </trkpt>
      <trkpt lat="44.54895" lon="1.45913">
        <ele>258.9</ele>
        <time>2022-02-06T14:02:26Z</time>
      </trkpt>
      <trkpt lat="44.54898" lon="1.45908">
        <ele>258.6</ele>
        <time>2022-02-06T14:02:30Z</time>
      </trkpt>
      <trkpt lat="44.54901" lon="1.45902">
        <ele>258.9</ele>
        <time>2022-02-06T14:02:34Z</time>
      </trkpt>
      <trkpt lat="44.54905" lon="1.45896">
        <ele>258.9</ele>
        <time>2022-02-06T14:02:39Z</time>
      </trkpt>
      <trkpt lat="44.54908" lon="1.4589">
        <ele>259.1</ele>
        <time>2022-02-06T14:02:44Z</time>
      </trkpt>
      <trkpt lat="44.54912" lon="1.45886">
        <ele>259.7</ele>
        <time>2022-02-06T14:02:48Z</time>
      </trkpt>
      <trkpt lat="44.54916" lon="1.45881">
        <ele>260.2</ele>
        <time>2022-02-06T14:02:53Z</time>
      </trkpt>
      <trkpt lat="44.5492" lon="1.45876">
        <ele>260.2</ele>
        <time>2022-02-06T14:02:58Z</time>
      </trkpt>
      <trkpt lat="44.54925" lon="1.45872">
        <ele>261.2</ele>
        <time>2022-02-06T14:03:03Z</time>
      </trkpt>
      <trkpt lat="44.54929" lon="1.45867">
        <ele>262.1</ele>
        <time>2022-02-06T14:03:08Z</time>
      </trkpt>
      <trkpt lat="44.54933" lon="1.45863">
        <ele>262.6</ele>
        <time>2022-02-06T14:03:13Z</time>
      </trkpt>
      <trkpt lat="44.54937" lon="1.45859">
        <ele>262.2</ele>
        <time>2022-02-06T14:03:18Z</time>
      </trkpt>
      <trkpt lat="44.54942" lon="1.45854">
        <ele>261.4</ele>
        <time>2022-02-06T14:03:23Z</time>
      </trkpt>
      <trkpt lat="44.54946" lon="1.4585">
        <ele>260.6</ele>
        <time>2022-02-06T14:03:28Z</time>
      </trkpt>
      <trkpt lat="44.5495" lon="1.45847">
        <ele>260</ele>
        <time>2022-02-06T14:03:32Z</time>
      </trkpt>
      <trkpt lat="44.54955" lon="1.45843">
        <ele>259.6</ele>
        <time>2022-02-06T14:03:37Z</time>
      </trkpt>
      <trkpt lat="44.54959" lon="1.45839">
        <ele>259.4</ele>
        <time>2022-02-06T14:03:42Z</time>
      </trkpt>
      <trkpt lat="44.54963" lon="1.45834">
        <ele>259.5</ele>
        <time>2022-02-06T14:03:46Z</time>
      </trkpt>
      <trkpt lat="44.54966" lon="1.4583">
        <ele>259.7</ele>
        <time>2022-02-06T14:03:50Z</time>
      </trkpt>
      <trkpt lat="44.54969" lon="1.45825">
        <ele>260.1</ele>
        <time>2022-02-06T14:03:54Z</time>
      </trkpt>
      <trkpt lat="44.54973" lon="1.45819">
        <ele>260.2</ele>
        <time>2022-02-06T14:03:59Z</time>
      </trkpt>
      <trkpt lat="44.54977" lon="1.45814">
        <ele>259.7</ele>
        <time>2022-02-06T14:04:04Z</time>
      </trkpt>
      <trkpt lat="44.5498" lon="1.4581">
        <ele>259.2</ele>
        <time>2022-02-06T14:04:08Z</time>
      </trkpt>
      <trkpt lat="44.54984" lon="1.45804">
        <ele>258.4</ele>
        <time>2022-02-06T14:04:13Z</time>
      </trkpt>
      <trkpt lat="44.54987" lon="1.45798">
        <ele>258.3</ele>
        <time>2022-02-06T14:04:18Z</time>
      </trkpt>
      <trkpt lat="44.54991" lon="1.45792">
        <ele>258.4</ele>
        <time>2022-02-06T14:04:23Z</time>
      </trkpt>
      <trkpt lat="44.54994" lon="1.45786">
        <ele>258.4</ele>
        <time>2022-02-06T14:04:28Z</time>
      </trkpt>
      <trkpt lat="44.54998" lon="1.45781">
        <ele>258.1</ele>
        <time>2022-02-06T14:04:33Z</time>
      </trkpt>
      <trkpt lat="44.55001" lon="1.45775">
        <ele>257.6</ele>
        <time>2022-02-06T14:04:38Z</time>
      </trkpt>
      <trkpt lat="44.55004" lon="1.4577">
        <ele>257.1</ele>
        <time>2022-02-06T14:04:43Z</time>
      </trkpt>
      <trkpt lat="44.55007" lon="1.45764">
        <ele>256.8</ele>
        <time>2022-02-06T14:04:48Z</time>
      </trkpt>
      <trkpt lat="44.5501" lon="1.45758">
        <ele>256.5</ele>
        <time>2022-02-06T14:04:53Z</time>
      </trkpt>
      <trkpt lat="44.55013" lon="1.45752">
        <ele>256.3</ele>
        <time>2022-02-06T14:04:58Z</time>
      </trkpt>
      <trkpt lat="44.55015" lon="1.45745">
        <ele>256.2</ele>
        <time>2022-02-06T14:05:03Z</time>
      </trkpt>
      <trkpt lat="44.55015" lon="1.45739">
        <ele>254.4</ele>
        <time>2022-02-06T14:05:08Z</time>
      </trkpt>
      <trkpt lat="44.55012" lon="1.45734">
        <ele>251.8</ele>
        <time>2022-02-06T14:05:13Z</time>
      </trkpt>
      <trkpt lat="44.55008" lon="1.45729">
        <ele>249</ele>
        <time>2022-02-06T14:05:18Z</time>
      </trkpt>
      <trkpt lat="44.55006" lon="1.45722">
        <ele>248</ele>
        <time>2022-02-06T14:05:23Z</time>
      </trkpt>
      <trkpt lat="44.55004" lon="1.45715">
        <ele>248.6</ele>
        <time>2022-02-06T14:05:27Z</time>
      </trkpt>
      <trkpt lat="44.55003" lon="1.45707">
        <ele>249.5</ele>
        <time>2022-02-06T14:05:31Z</time>
      </trkpt>
      <trkpt lat="44.55003" lon="1.457">
        <ele>250.4</ele>
        <time>2022-02-06T14:05:35Z</time>
      </trkpt>
      <trkpt lat="44.55004" lon="1.45694">
        <ele>251.1</ele>
        <time>2022-02-06T14:05:39Z</time>
      </trkpt>
      <trkpt lat="44.55006" lon="1.45688">
        <ele>251.3</ele>
        <time>2022-02-06T14:05:44Z</time>
      </trkpt>
      <trkpt lat="44.5501" lon="1.45683">
        <ele>250.6</ele>
        <time>2022-02-06T14:05:49Z</time>
      </trkpt>
      <trkpt lat="44.55014" lon="1.45678">
        <ele>249.2</ele>
        <time>2022-02-06T14:05:54Z</time>
      </trkpt>
      <trkpt lat="44.55017" lon="1.45673">
        <ele>248.3</ele>
        <time>2022-02-06T14:05:58Z</time>
      </trkpt>
      <trkpt lat="44.5502" lon="1.45668">
        <ele>247.7</ele>
        <time>2022-02-06T14:06:02Z</time>
      </trkpt>
      <trkpt lat="44.55023" lon="1.45662">
        <ele>247</ele>
        <time>2022-02-06T14:06:07Z</time>
      </trkpt>
      <trkpt lat="44.55025" lon="1.45655">
        <ele>246.6</ele>
        <time>2022-02-06T14:06:12Z</time>
      </trkpt>
      <trkpt lat="44.55026" lon="1.45649">
        <ele>247.2</ele>
        <time>2022-02-06T14:06:16Z</time>
      </trkpt>
      <trkpt lat="44.55026" lon="1.45642">
        <ele>248.5</ele>
        <time>2022-02-06T14:06:20Z</time>
      </trkpt>
      <trkpt lat="44.55025" lon="1.45635">
        <ele>249.5</ele>
        <time>2022-02-06T14:06:24Z</time>
      </trkpt>
      <trkpt lat="44.55024" lon="1.45628">
        <ele>251.3</ele>
        <time>2022-02-06T14:06:28Z</time>
      </trkpt>
      <trkpt lat="44.55022" lon="1.45622">
        <ele>252.2</ele>
        <time>2022-02-06T14:06:32Z</time>
      </trkpt>
      <trkpt lat="44.55021" lon="1.45616">
        <ele>253.3</ele>
        <time>2022-02-06T14:06:36Z</time>
      </trkpt>
      <trkpt lat="44.5502" lon="1.45609">
        <ele>254.3</ele>
        <time>2022-02-06T14:06:40Z</time>
      </trkpt>
      <trkpt lat="44.55018" lon="1.45602">
        <ele>255.5</ele>
        <time>2022-02-06T14:06:45Z</time>
      </trkpt>
      <trkpt lat="44.55017" lon="1.45595">
        <ele>257.4</ele>
        <time>2022-02-06T14:06:49Z</time>
      </trkpt>
      <trkpt lat="44.55015" lon="1.45588">
        <ele>258.2</ele>
        <time>2022-02-06T14:06:54Z</time>
      </trkpt>
      <trkpt lat="44.55013" lon="1.45581">
        <ele>258.1</ele>
        <time>2022-02-06T14:06:59Z</time>
      </trkpt>
      <trkpt lat="44.55012" lon="1.45574">
        <ele>256.9</ele>
        <time>2022-02-06T14:07:04Z</time>
      </trkpt>
      <trkpt lat="44.55011" lon="1.45567">
        <ele>255.7</ele>
        <time>2022-02-06T14:07:09Z</time>
      </trkpt>
      <trkpt lat="44.5501" lon="1.4556">
        <ele>255</ele>
        <time>2022-02-06T14:07:14Z</time>
      </trkpt>
      <trkpt lat="44.55007" lon="1.45553">
        <ele>254.6</ele>
        <time>2022-02-06T14:07:19Z</time>
      </trkpt>
      <trkpt lat="44.55006" lon="1.45547">
        <ele>254.8</ele>
        <time>2022-02-06T14:07:23Z</time>
      </trkpt>
      <trkpt lat="44.55003" lon="1.45541">
        <ele>253.6</ele>
        <time>2022-02-06T14:07:28Z</time>
      </trkpt>
      <trkpt lat="44.55001" lon="1.45534">
        <ele>252.9</ele>
        <time>2022-02-06T14:07:33Z</time>
      </trkpt>
      <trkpt lat="44.55" lon="1.45527">
        <ele>252.3</ele>
        <time>2022-02-06T14:07:38Z</time>
      </trkpt>
      <trkpt lat="44.54999" lon="1.4552">
        <ele>252.8</ele>
        <time>2022-02-06T14:07:43Z</time>
      </trkpt>
      <trkpt lat="44.54998" lon="1.45512">
        <ele>254</ele>
        <time>2022-02-06T14:07:48Z</time>
      </trkpt>
      <trkpt lat="44.54997" lon="1.45506">
        <ele>253.9</ele>
        <time>2022-02-06T14:07:52Z</time>
      </trkpt>
      <trkpt lat="44.54997" lon="1.45499">
        <ele>252.8</ele>
        <time>2022-02-06T14:07:56Z</time>
      </trkpt>
      <trkpt lat="44.54997" lon="1.45493">
        <ele>251.8</ele>
        <time>2022-02-06T14:08:00Z</time>
      </trkpt>
      <trkpt lat="44.54997" lon="1.45485">
        <ele>250.8</ele>
        <time>2022-02-06T14:08:05Z</time>
      </trkpt>
      <trkpt lat="44.54997" lon="1.45478">
        <ele>249.6</ele>
        <time>2022-02-06T14:08:10Z</time>
      </trkpt>
      <trkpt lat="44.54996" lon="1.45471">
        <ele>248.3</ele>
        <time>2022-02-06T14:08:15Z</time>
      </trkpt>
      <trkpt lat="44.54995" lon="1.45464">
        <ele>247.2</ele>
        <time>2022-02-06T14:08:20Z</time>
      </trkpt>
      <trkpt lat="44.54994" lon="1.45457">
        <ele>246.7</ele>
        <time>2022-02-06T14:08:25Z</time>
      </trkpt>
      <trkpt lat="44.54992" lon="1.45451">
        <ele>246.5</ele>
        <time>2022-02-06T14:08:29Z</time>
      </trkpt>
      <trkpt lat="44.54991" lon="1.45444">
        <ele>246.2</ele>
        <time>2022-02-06T14:08:34Z</time>
      </trkpt>
      <trkpt lat="44.54989" lon="1.45437">
        <ele>245.8</ele>
        <time>2022-02-06T14:08:39Z</time>
      </trkpt>
      <trkpt lat="44.54988" lon="1.4543">
        <ele>245.2</ele>
        <time>2022-02-06T14:08:44Z</time>
      </trkpt>
      <trkpt lat="44.54986" lon="1.45423">
        <ele>244.7</ele>
        <time>2022-02-06T14:08:49Z</time>
      </trkpt>
      <trkpt lat="44.54985" lon="1.45415">
        <ele>244.1</ele>
        <time>2022-02-06T14:08:54Z</time>
      </trkpt>
      <trkpt lat="44.54985" lon="1.45409">
        <ele>243.6</ele>
        <time>2022-02-06T14:08:58Z</time>
      </trkpt>
      <trkpt lat="44.54984" lon="1.45402">
        <ele>242.9</ele>
        <time>2022-02-06T14:09:03Z</time>
      </trkpt>
      <trkpt lat="44.54983" lon="1.45394">
        <ele>242.2</ele>
        <time>2022-02-06T14:09:08Z</time>
      </trkpt>
      <trkpt lat="44.54983" lon="1.45388">
        <ele>241.8</ele>
        <time>2022-02-06T14:09:12Z</time>
      </trkpt>
      <trkpt lat="44.54982" lon="1.4538">
        <ele>241.2</ele>
        <time>2022-02-06T14:09:17Z</time>
      </trkpt>
      <trkpt lat="44.54981" lon="1.45373">
        <ele>240.9</ele>
        <time>2022-02-06T14:09:22Z</time>
      </trkpt>
      <trkpt lat="44.54981" lon="1.45365">
        <ele>240.4</ele>
        <time>2022-02-06T14:09:27Z</time>
      </trkpt>
      <trkpt lat="44.5498" lon="1.45359">
        <ele>240.5</ele>
        <time>2022-02-06T14:09:31Z</time>
      </trkpt>
      <trkpt lat="44.54978" lon="1.45352">
        <ele>240.6</ele>
        <time>2022-02-06T14:09:35Z</time>
      </trkpt>
      <trkpt lat="44.54977" lon="1.45346">
        <ele>241.5</ele>
        <time>2022-02-06T14:09:39Z</time>
      </trkpt>
      <trkpt lat="44.54976" lon="1.45339">
        <ele>242.4</ele>
        <time>2022-02-06T14:09:43Z</time>
      </trkpt>
      <trkpt lat="44.54974" lon="1.45332">
        <ele>242.6</ele>
        <time>2022-02-06T14:09:48Z</time>
      </trkpt>
      <trkpt lat="44.54971" lon="1.45325">
        <ele>242</ele>
        <time>2022-02-06T14:09:53Z</time>
      </trkpt>
      <trkpt lat="44.54969" lon="1.4532">
        <ele>241.4</ele>
        <time>2022-02-06T14:09:57Z</time>
      </trkpt>
      <trkpt lat="44.54966" lon="1.45315">
        <ele>240.6</ele>
        <time>2022-02-06T14:10:01Z</time>
      </trkpt>
      <trkpt lat="44.54963" lon="1.45309">
        <ele>240.3</ele>
        <time>2022-02-06T14:10:05Z</time>
      </trkpt>
      <trkpt lat="44.5496" lon="1.45304">
        <ele>239.5</ele>
        <time>2022-02-06T14:10:09Z</time>
      </trkpt>
      <trkpt lat="44.54957" lon="1.45299">
        <ele>239.5</ele>
        <time>2022-02-06T14:10:13Z</time>
      </trkpt>
      <trkpt lat="44.54955" lon="1.45294">
        <ele>239</ele>
        <time>2022-02-06T14:10:17Z</time>
      </trkpt>
      <trkpt lat="44.54952" lon="1.45289">
        <ele>239.4</ele>
        <time>2022-02-06T14:10:21Z</time>
      </trkpt>
      <trkpt lat="44.5495" lon="1.45283">
        <ele>239.6</ele>
        <time>2022-02-06T14:10:25Z</time>
      </trkpt>
      <trkpt lat="44.54947" lon="1.45278">
        <ele>239.6</ele>
        <time>2022-02-06T14:10:29Z</time>
      </trkpt>
      <trkpt lat="44.54944" lon="1.45273">
        <ele>239.1</ele>
        <time>2022-02-06T14:10:33Z</time>
      </trkpt>
      <trkpt lat="44.54941" lon="1.45266">
        <ele>238.9</ele>
        <time>2022-02-06T14:10:38Z</time>
      </trkpt>
      <trkpt lat="44.54938" lon="1.4526">
        <ele>238.8</ele>
        <time>2022-02-06T14:10:42Z</time>
      </trkpt>
      <trkpt lat="44.54935" lon="1.45253">
        <ele>239</ele>
        <time>2022-02-06T14:10:46Z</time>
      </trkpt>
      <trkpt lat="44.54933" lon="1.45247">
        <ele>238.9</ele>
        <time>2022-02-06T14:10:49Z</time>
      </trkpt>
      <trkpt lat="44.54931" lon="1.45241">
        <ele>238.8</ele>
        <time>2022-02-06T14:10:53Z</time>
      </trkpt>
      <trkpt lat="44.54929" lon="1.45235">
        <ele>238</ele>
        <time>2022-02-06T14:10:58Z</time>
      </trkpt>
      <trkpt lat="44.54925" lon="1.45229">
        <ele>237.8</ele>
        <time>2022-02-06T14:11:03Z</time>
      </trkpt>
      <trkpt lat="44.54922" lon="1.45223">
        <ele>238</ele>
        <time>2022-02-06T14:11:07Z</time>
      </trkpt>
      <trkpt lat="44.54919" lon="1.45218">
        <ele>238.1</ele>
        <time>2022-02-06T14:11:11Z</time>
      </trkpt>
      <trkpt lat="44.54916" lon="1.45212">
        <ele>237.8</ele>
        <time>2022-02-06T14:11:15Z</time>
      </trkpt>
      <trkpt lat="44.54919" lon="1.45205">
        <ele>237.5</ele>
        <time>2022-02-06T14:11:20Z</time>
      </trkpt>
      <trkpt lat="44.54917" lon="1.45199">
        <ele>236.8</ele>
        <time>2022-02-06T14:11:24Z</time>
      </trkpt>
      <trkpt lat="44.54914" lon="1.45194">
        <ele>236.6</ele>
        <time>2022-02-06T14:11:28Z</time>
      </trkpt>
      <trkpt lat="44.54911" lon="1.45189">
        <ele>236.5</ele>
        <time>2022-02-06T14:11:32Z</time>
      </trkpt>
      <trkpt lat="44.54908" lon="1.45183">
        <ele>236.5</ele>
        <time>2022-02-06T14:11:36Z</time>
      </trkpt>
      <trkpt lat="44.54905" lon="1.45177">
        <ele>236.7</ele>
        <time>2022-02-06T14:11:40Z</time>
      </trkpt>
      <trkpt lat="44.54902" lon="1.45171">
        <ele>236.2</ele>
        <time>2022-02-06T14:11:44Z</time>
      </trkpt>
      <trkpt lat="44.549" lon="1.45165">
        <ele>236</ele>
        <time>2022-02-06T14:11:48Z</time>
      </trkpt>
      <trkpt lat="44.54898" lon="1.45159">
        <ele>236.9</ele>
        <time>2022-02-06T14:11:52Z</time>
      </trkpt>
      <trkpt lat="44.54896" lon="1.45153">
        <ele>237.4</ele>
        <time>2022-02-06T14:11:56Z</time>
      </trkpt>
      <trkpt lat="44.54893" lon="1.45147">
        <ele>238.3</ele>
        <time>2022-02-06T14:12:00Z</time>
      </trkpt>
      <trkpt lat="44.54891" lon="1.4514">
        <ele>237.7</ele>
        <time>2022-02-06T14:12:05Z</time>
      </trkpt>
      <trkpt lat="44.54888" lon="1.45133">
        <ele>237.9</ele>
        <time>2022-02-06T14:12:10Z</time>
      </trkpt>
      <trkpt lat="44.54886" lon="1.45127">
        <ele>238.3</ele>
        <time>2022-02-06T14:12:14Z</time>
      </trkpt>
      <trkpt lat="44.54884" lon="1.45121">
        <ele>239.1</ele>
        <time>2022-02-06T14:12:18Z</time>
      </trkpt>
      <trkpt lat="44.54882" lon="1.45115">
        <ele>239.5</ele>
        <time>2022-02-06T14:12:22Z</time>
      </trkpt>
      <trkpt lat="44.54879" lon="1.45109">
        <ele>239.9</ele>
        <time>2022-02-06T14:12:26Z</time>
      </trkpt>
      <trkpt lat="44.54876" lon="1.45103">
        <ele>240.1</ele>
        <time>2022-02-06T14:12:31Z</time>
      </trkpt>
      <trkpt lat="44.54874" lon="1.45097">
        <ele>240.2</ele>
        <time>2022-02-06T14:12:35Z</time>
      </trkpt>
      <trkpt lat="44.54873" lon="1.45091">
        <ele>239.8</ele>
        <time>2022-02-06T14:12:39Z</time>
      </trkpt>
      <trkpt lat="44.54871" lon="1.45084">
        <ele>239</ele>
        <time>2022-02-06T14:12:44Z</time>
      </trkpt>
      <trkpt lat="44.54869" lon="1.45078">
        <ele>238.4</ele>
        <time>2022-02-06T14:12:48Z</time>
      </trkpt>
      <trkpt lat="44.54867" lon="1.45071">
        <ele>237.8</ele>
        <time>2022-02-06T14:12:53Z</time>
      </trkpt>
      <trkpt lat="44.54865" lon="1.45064">
        <ele>236.8</ele>
        <time>2022-02-06T14:12:58Z</time>
      </trkpt>
      <trkpt lat="44.54863" lon="1.45057">
        <ele>236.9</ele>
        <time>2022-02-06T14:13:03Z</time>
      </trkpt>
      <trkpt lat="44.54861" lon="1.45052">
        <ele>237.5</ele>
        <time>2022-02-06T14:13:07Z</time>
      </trkpt>
      <trkpt lat="44.54859" lon="1.45044">
        <ele>237.3</ele>
        <time>2022-02-06T14:13:12Z</time>
      </trkpt>
      <trkpt lat="44.54857" lon="1.45037">
        <ele>236.1</ele>
        <time>2022-02-06T14:13:17Z</time>
      </trkpt>
      <trkpt lat="44.54855" lon="1.45031">
        <ele>235.7</ele>
        <time>2022-02-06T14:13:22Z</time>
      </trkpt>
      <trkpt lat="44.54854" lon="1.45023">
        <ele>236.1</ele>
        <time>2022-02-06T14:13:27Z</time>
      </trkpt>
      <trkpt lat="44.54852" lon="1.45016">
        <ele>236.3</ele>
        <time>2022-02-06T14:13:31Z</time>
      </trkpt>
      <trkpt lat="44.5485" lon="1.4501">
        <ele>236.6</ele>
        <time>2022-02-06T14:13:35Z</time>
      </trkpt>
      <trkpt lat="44.54848" lon="1.45003">
        <ele>236.5</ele>
        <time>2022-02-06T14:13:40Z</time>
      </trkpt>
      <trkpt lat="44.54845" lon="1.44998">
        <ele>236.4</ele>
        <time>2022-02-06T14:13:44Z</time>
      </trkpt>
      <trkpt lat="44.54842" lon="1.44993">
        <ele>236.9</ele>
        <time>2022-02-06T14:13:48Z</time>
      </trkpt>
      <trkpt lat="44.54839" lon="1.44987">
        <ele>238.1</ele>
        <time>2022-02-06T14:13:52Z</time>
      </trkpt>
      <trkpt lat="44.54835" lon="1.44982">
        <ele>239.2</ele>
        <time>2022-02-06T14:13:56Z</time>
      </trkpt>
      <trkpt lat="44.54832" lon="1.44978">
        <ele>240</ele>
        <time>2022-02-06T14:14:00Z</time>
      </trkpt>
      <trkpt lat="44.54829" lon="1.44972">
        <ele>240.4</ele>
        <time>2022-02-06T14:14:05Z</time>
      </trkpt>
      <trkpt lat="44.54825" lon="1.44968">
        <ele>240.3</ele>
        <time>2022-02-06T14:14:10Z</time>
      </trkpt>
      <trkpt lat="44.54821" lon="1.44965">
        <ele>239.4</ele>
        <time>2022-02-06T14:14:14Z</time>
      </trkpt>
      <trkpt lat="44.54817" lon="1.44961">
        <ele>238.3</ele>
        <time>2022-02-06T14:14:18Z</time>
      </trkpt>
      <trkpt lat="44.54813" lon="1.44958">
        <ele>238.1</ele>
        <time>2022-02-06T14:14:22Z</time>
      </trkpt>
      <trkpt lat="44.54809" lon="1.44955">
        <ele>238.5</ele>
        <time>2022-02-06T14:14:26Z</time>
      </trkpt>
      <trkpt lat="44.54805" lon="1.44952">
        <ele>238.5</ele>
        <time>2022-02-06T14:14:30Z</time>
      </trkpt>
      <trkpt lat="44.54801" lon="1.44948">
        <ele>238.2</ele>
        <time>2022-02-06T14:14:35Z</time>
      </trkpt>
      <trkpt lat="44.54797" lon="1.44944">
        <ele>237.5</ele>
        <time>2022-02-06T14:14:40Z</time>
      </trkpt>
      <trkpt lat="44.54793" lon="1.4494">
        <ele>236.9</ele>
        <time>2022-02-06T14:14:44Z</time>
      </trkpt>
      <trkpt lat="44.54789" lon="1.44935">
        <ele>235.7</ele>
        <time>2022-02-06T14:14:49Z</time>
      </trkpt>
      <trkpt lat="44.54788" lon="1.44929">
        <ele>234.8</ele>
        <time>2022-02-06T14:14:54Z</time>
      </trkpt>
      <trkpt lat="44.54788" lon="1.44922">
        <ele>234.1</ele>
        <time>2022-02-06T14:14:59Z</time>
      </trkpt>
      <trkpt lat="44.5479" lon="1.44916">
        <ele>234.1</ele>
        <time>2022-02-06T14:15:04Z</time>
      </trkpt>
      <trkpt lat="44.54793" lon="1.44909">
        <ele>233.4</ele>
        <time>2022-02-06T14:15:13Z</time>
      </trkpt>
      <trkpt lat="44.54796" lon="1.44905">
        <ele>231.5</ele>
        <time>2022-02-06T14:17:12Z</time>
      </trkpt>
      <trkpt lat="44.54797" lon="1.44898">
        <ele>229.7</ele>
        <time>2022-02-06T14:17:26Z</time>
      </trkpt>
      <trkpt lat="44.54799" lon="1.44892">
        <ele>230.1</ele>
        <time>2022-02-06T14:17:39Z</time>
      </trkpt>
      <trkpt lat="44.54799" lon="1.44885">
        <ele>229.5</ele>
        <time>2022-02-06T14:17:46Z</time>
      </trkpt>
      <trkpt lat="44.54797" lon="1.44879">
        <ele>230</ele>
        <time>2022-02-06T14:17:52Z</time>
      </trkpt>
      <trkpt lat="44.54793" lon="1.44874">
        <ele>230.7</ele>
        <time>2022-02-06T14:17:57Z</time>
      </trkpt>
      <trkpt lat="44.54789" lon="1.4487">
        <ele>231.9</ele>
        <time>2022-02-06T14:18:02Z</time>
      </trkpt>
      <trkpt lat="44.54784" lon="1.44866">
        <ele>233</ele>
        <time>2022-02-06T14:18:06Z</time>
      </trkpt>
      <trkpt lat="44.5478" lon="1.44863">
        <ele>234</ele>
        <time>2022-02-06T14:18:10Z</time>
      </trkpt>
      <trkpt lat="44.54777" lon="1.44858">
        <ele>234.6</ele>
        <time>2022-02-06T14:18:14Z</time>
      </trkpt>
      <trkpt lat="44.54773" lon="1.44853">
        <ele>234.8</ele>
        <time>2022-02-06T14:18:18Z</time>
      </trkpt>
      <trkpt lat="44.5477" lon="1.44848">
        <ele>235.4</ele>
        <time>2022-02-06T14:18:22Z</time>
      </trkpt>
      <trkpt lat="44.54767" lon="1.44842">
        <ele>235.2</ele>
        <time>2022-02-06T14:18:27Z</time>
      </trkpt>
      <trkpt lat="44.54764" lon="1.44835">
        <ele>234.5</ele>
        <time>2022-02-06T14:18:32Z</time>
      </trkpt>
      <trkpt lat="44.54762" lon="1.44829">
        <ele>234.1</ele>
        <time>2022-02-06T14:18:37Z</time>
      </trkpt>
      <trkpt lat="44.5476" lon="1.44821">
        <ele>233.5</ele>
        <time>2022-02-06T14:18:42Z</time>
      </trkpt>
      <trkpt lat="44.54759" lon="1.44814">
        <ele>233</ele>
        <time>2022-02-06T14:18:47Z</time>
      </trkpt>
      <trkpt lat="44.54758" lon="1.44808">
        <ele>232.9</ele>
        <time>2022-02-06T14:18:51Z</time>
      </trkpt>
      <trkpt lat="44.54756" lon="1.44801">
        <ele>233.2</ele>
        <time>2022-02-06T14:18:55Z</time>
      </trkpt>
      <trkpt lat="44.54754" lon="1.44795">
        <ele>233.1</ele>
        <time>2022-02-06T14:18:59Z</time>
      </trkpt>
      <trkpt lat="44.54753" lon="1.44788">
        <ele>233.3</ele>
        <time>2022-02-06T14:19:03Z</time>
      </trkpt>
      <trkpt lat="44.54752" lon="1.44782">
        <ele>233.6</ele>
        <time>2022-02-06T14:19:07Z</time>
      </trkpt>
      <trkpt lat="44.54751" lon="1.44775">
        <ele>234.1</ele>
        <time>2022-02-06T14:19:11Z</time>
      </trkpt>
      <trkpt lat="44.54751" lon="1.44768">
        <ele>233.5</ele>
        <time>2022-02-06T14:19:15Z</time>
      </trkpt>
      <trkpt lat="44.5475" lon="1.44761">
        <ele>233.2</ele>
        <time>2022-02-06T14:19:19Z</time>
      </trkpt>
      <trkpt lat="44.5475" lon="1.44753">
        <ele>232.4</ele>
        <time>2022-02-06T14:19:23Z</time>
      </trkpt>
      <trkpt lat="44.54751" lon="1.44747">
        <ele>231.1</ele>
        <time>2022-02-06T14:19:27Z</time>
      </trkpt>
      <trkpt lat="44.54751" lon="1.44739">
        <ele>229.6</ele>
        <time>2022-02-06T14:19:33Z</time>
      </trkpt>
      <trkpt lat="44.5475" lon="1.44732">
        <ele>229.3</ele>
        <time>2022-02-06T14:19:36Z</time>
      </trkpt>
      <trkpt lat="44.54749" lon="1.44725">
        <ele>229</ele>
        <time>2022-02-06T14:19:41Z</time>
      </trkpt>
      <trkpt lat="44.5475" lon="1.44718">
        <ele>228.8</ele>
        <time>2022-02-06T14:19:45Z</time>
      </trkpt>
      <trkpt lat="44.54751" lon="1.44712">
        <ele>228.6</ele>
        <time>2022-02-06T14:19:49Z</time>
      </trkpt>
      <trkpt lat="44.54752" lon="1.44704">
        <ele>228.2</ele>
        <time>2022-02-06T14:19:54Z</time>
      </trkpt>
      <trkpt lat="44.54751" lon="1.44696">
        <ele>228.4</ele>
        <time>2022-02-06T14:19:59Z</time>
      </trkpt>
      <trkpt lat="44.54751" lon="1.44689">
        <ele>227.9</ele>
        <time>2022-02-06T14:20:04Z</time>
      </trkpt>
      <trkpt lat="44.54751" lon="1.44681">
        <ele>227.8</ele>
        <time>2022-02-06T14:20:09Z</time>
      </trkpt>
      <trkpt lat="44.54752" lon="1.44675">
        <ele>227.2</ele>
        <time>2022-02-06T14:20:13Z</time>
      </trkpt>
      <trkpt lat="44.54752" lon="1.44668">
        <ele>227</ele>
        <time>2022-02-06T14:20:17Z</time>
      </trkpt>
      <trkpt lat="44.54752" lon="1.44661">
        <ele>227.2</ele>
        <time>2022-02-06T14:20:21Z</time>
      </trkpt>
      <trkpt lat="44.54753" lon="1.44654">
        <ele>226.7</ele>
        <time>2022-02-06T14:20:25Z</time>
      </trkpt>
      <trkpt lat="44.54753" lon="1.44647">
        <ele>226.5</ele>
        <time>2022-02-06T14:20:29Z</time>
      </trkpt>
      <trkpt lat="44.54753" lon="1.44641">
        <ele>226</ele>
        <time>2022-02-06T14:20:33Z</time>
      </trkpt>
      <trkpt lat="44.54754" lon="1.44634">
        <ele>225.5</ele>
        <time>2022-02-06T14:20:37Z</time>
      </trkpt>
      <trkpt lat="44.54754" lon="1.44627">
        <ele>225.5</ele>
        <time>2022-02-06T14:20:41Z</time>
      </trkpt>
      <trkpt lat="44.54754" lon="1.44621">
        <ele>225.4</ele>
        <time>2022-02-06T14:20:45Z</time>
      </trkpt>
      <trkpt lat="44.54755" lon="1.44614">
        <ele>225.1</ele>
        <time>2022-02-06T14:20:49Z</time>
      </trkpt>
      <trkpt lat="44.54755" lon="1.44608">
        <ele>224.7</ele>
        <time>2022-02-06T14:20:53Z</time>
      </trkpt>
      <trkpt lat="44.54756" lon="1.44601">
        <ele>224.2</ele>
        <time>2022-02-06T14:20:57Z</time>
      </trkpt>
      <trkpt lat="44.54757" lon="1.44594">
        <ele>224.3</ele>
        <time>2022-02-06T14:21:01Z</time>
      </trkpt>
      <trkpt lat="44.54757" lon="1.44587">
        <ele>224.2</ele>
        <time>2022-02-06T14:21:05Z</time>
      </trkpt>
      <trkpt lat="44.54758" lon="1.4458">
        <ele>224</ele>
        <time>2022-02-06T14:21:09Z</time>
      </trkpt>
      <trkpt lat="44.54758" lon="1.44573">
        <ele>223.7</ele>
        <time>2022-02-06T14:21:14Z</time>
      </trkpt>
      <trkpt lat="44.54758" lon="1.44566">
        <ele>224</ele>
        <time>2022-02-06T14:21:18Z</time>
      </trkpt>
      <trkpt lat="44.54759" lon="1.44559">
        <ele>224.1</ele>
        <time>2022-02-06T14:21:22Z</time>
      </trkpt>
      <trkpt lat="44.54758" lon="1.44552">
        <ele>224.1</ele>
        <time>2022-02-06T14:21:27Z</time>
      </trkpt>
      <trkpt lat="44.54757" lon="1.44545">
        <ele>224.1</ele>
        <time>2022-02-06T14:21:32Z</time>
      </trkpt>
      <trkpt lat="44.54757" lon="1.44537">
        <ele>224.3</ele>
        <time>2022-02-06T14:21:37Z</time>
      </trkpt>
      <trkpt lat="44.54757" lon="1.44531">
        <ele>224.3</ele>
        <time>2022-02-06T14:21:41Z</time>
      </trkpt>
      <trkpt lat="44.54756" lon="1.44525">
        <ele>224.1</ele>
        <time>2022-02-06T14:21:45Z</time>
      </trkpt>
      <trkpt lat="44.54756" lon="1.44518">
        <ele>223.8</ele>
        <time>2022-02-06T14:21:49Z</time>
      </trkpt>
      <trkpt lat="44.54756" lon="1.44511">
        <ele>223.6</ele>
        <time>2022-02-06T14:21:53Z</time>
      </trkpt>
      <trkpt lat="44.54755" lon="1.44505">
        <ele>223.7</ele>
        <time>2022-02-06T14:21:57Z</time>
      </trkpt>
      <trkpt lat="44.54753" lon="1.44499">
        <ele>223.9</ele>
        <time>2022-02-06T14:22:01Z</time>
      </trkpt>
      <trkpt lat="44.54753" lon="1.44492">
        <ele>224.3</ele>
        <time>2022-02-06T14:22:05Z</time>
      </trkpt>
      <trkpt lat="44.54751" lon="1.44485">
        <ele>224.9</ele>
        <time>2022-02-06T14:22:10Z</time>
      </trkpt>
      <trkpt lat="44.54751" lon="1.44478">
        <ele>225.2</ele>
        <time>2022-02-06T14:22:14Z</time>
      </trkpt>
      <trkpt lat="44.5475" lon="1.44471">
        <ele>224.8</ele>
        <time>2022-02-06T14:22:19Z</time>
      </trkpt>
      <trkpt lat="44.54748" lon="1.44465">
        <ele>225.1</ele>
        <time>2022-02-06T14:22:23Z</time>
      </trkpt>
      <trkpt lat="44.54746" lon="1.44459">
        <ele>225.6</ele>
        <time>2022-02-06T14:22:27Z</time>
      </trkpt>
      <trkpt lat="44.54744" lon="1.44453">
        <ele>226</ele>
        <time>2022-02-06T14:22:31Z</time>
      </trkpt>
      <trkpt lat="44.54742" lon="1.44447">
        <ele>226.1</ele>
        <time>2022-02-06T14:22:35Z</time>
      </trkpt>
      <trkpt lat="44.5474" lon="1.44441">
        <ele>226.3</ele>
        <time>2022-02-06T14:22:39Z</time>
      </trkpt>
      <trkpt lat="44.54737" lon="1.44434">
        <ele>226</ele>
        <time>2022-02-06T14:22:44Z</time>
      </trkpt>
      <trkpt lat="44.54734" lon="1.44428">
        <ele>225.2</ele>
        <time>2022-02-06T14:22:49Z</time>
      </trkpt>
      <trkpt lat="44.54731" lon="1.44421">
        <ele>224.4</ele>
        <time>2022-02-06T14:22:54Z</time>
      </trkpt>
      <trkpt lat="44.54729" lon="1.44415">
        <ele>223.6</ele>
        <time>2022-02-06T14:22:59Z</time>
      </trkpt>
      <trkpt lat="44.54726" lon="1.4441">
        <ele>223.8</ele>
        <time>2022-02-06T14:23:03Z</time>
      </trkpt>
      <trkpt lat="44.54723" lon="1.44403">
        <ele>223.6</ele>
        <time>2022-02-06T14:23:08Z</time>
      </trkpt>
      <trkpt lat="44.54721" lon="1.44396">
        <ele>222.8</ele>
        <time>2022-02-06T14:23:13Z</time>
      </trkpt>
      <trkpt lat="44.54719" lon="1.4439">
        <ele>222.4</ele>
        <time>2022-02-06T14:23:17Z</time>
      </trkpt>
      <trkpt lat="44.54717" lon="1.44383">
        <ele>222.1</ele>
        <time>2022-02-06T14:23:22Z</time>
      </trkpt>
      <trkpt lat="44.54715" lon="1.44377">
        <ele>222.6</ele>
        <time>2022-02-06T14:23:26Z</time>
      </trkpt>
      <trkpt lat="44.54712" lon="1.44371">
        <ele>222.6</ele>
        <time>2022-02-06T14:23:31Z</time>
      </trkpt>
      <trkpt lat="44.5471" lon="1.44365">
        <ele>222.4</ele>
        <time>2022-02-06T14:23:35Z</time>
      </trkpt>
      <trkpt lat="44.54708" lon="1.44359">
        <ele>223.5</ele>
        <time>2022-02-06T14:23:39Z</time>
      </trkpt>
      <trkpt lat="44.54705" lon="1.44353">
        <ele>224.4</ele>
        <time>2022-02-06T14:23:43Z</time>
      </trkpt>
      <trkpt lat="44.54703" lon="1.44347">
        <ele>224.3</ele>
        <time>2022-02-06T14:23:47Z</time>
      </trkpt>
      <trkpt lat="44.54701" lon="1.44341">
        <ele>224.7</ele>
        <time>2022-02-06T14:23:51Z</time>
      </trkpt>
      <trkpt lat="44.54699" lon="1.44335">
        <ele>225.5</ele>
        <time>2022-02-06T14:23:55Z</time>
      </trkpt>
      <trkpt lat="44.54697" lon="1.44329">
        <ele>225.2</ele>
        <time>2022-02-06T14:23:59Z</time>
      </trkpt>
      <trkpt lat="44.54696" lon="1.44323">
        <ele>225.1</ele>
        <time>2022-02-06T14:24:03Z</time>
      </trkpt>
      <trkpt lat="44.54695" lon="1.44317">
        <ele>224.8</ele>
        <time>2022-02-06T14:24:07Z</time>
      </trkpt>
      <trkpt lat="44.54693" lon="1.4431">
        <ele>224.7</ele>
        <time>2022-02-06T14:24:12Z</time>
      </trkpt>
      <trkpt lat="44.54692" lon="1.44303">
        <ele>224.3</ele>
        <time>2022-02-06T14:24:16Z</time>
      </trkpt>
      <trkpt lat="44.54691" lon="1.44297">
        <ele>223.3</ele>
        <time>2022-02-06T14:24:20Z</time>
      </trkpt>
      <trkpt lat="44.54691" lon="1.4429">
        <ele>222</ele>
        <time>2022-02-06T14:24:24Z</time>
      </trkpt>
      <trkpt lat="44.54691" lon="1.44284">
        <ele>220.9</ele>
        <time>2022-02-06T14:24:28Z</time>
      </trkpt>
      <trkpt lat="44.5469" lon="1.44276">
        <ele>220.3</ele>
        <time>2022-02-06T14:24:33Z</time>
      </trkpt>
      <trkpt lat="44.54689" lon="1.44269">
        <ele>219.6</ele>
        <time>2022-02-06T14:24:38Z</time>
      </trkpt>
      <trkpt lat="44.54689" lon="1.44262">
        <ele>218.9</ele>
        <time>2022-02-06T14:24:42Z</time>
      </trkpt>
      <trkpt lat="44.54688" lon="1.44254">
        <ele>218.3</ele>
        <time>2022-02-06T14:24:47Z</time>
      </trkpt>
      <trkpt lat="44.54688" lon="1.44248">
        <ele>218</ele>
        <time>2022-02-06T14:24:51Z</time>
      </trkpt>
      <trkpt lat="44.54688" lon="1.4424">
        <ele>217.6</ele>
        <time>2022-02-06T14:24:56Z</time>
      </trkpt>
      <trkpt lat="44.54689" lon="1.44234">
        <ele>216.5</ele>
        <time>2022-02-06T14:25:00Z</time>
      </trkpt>
      <trkpt lat="44.54689" lon="1.44227">
        <ele>215.9</ele>
        <time>2022-02-06T14:25:04Z</time>
      </trkpt>
      <trkpt lat="44.5469" lon="1.4422">
        <ele>215.3</ele>
        <time>2022-02-06T14:25:08Z</time>
      </trkpt>
      <trkpt lat="44.5469" lon="1.44213">
        <ele>215</ele>
        <time>2022-02-06T14:25:12Z</time>
      </trkpt>
      <trkpt lat="44.5469" lon="1.44207">
        <ele>214.7</ele>
        <time>2022-02-06T14:25:16Z</time>
      </trkpt>
      <trkpt lat="44.54691" lon="1.44201">
        <ele>214.5</ele>
        <time>2022-02-06T14:25:20Z</time>
      </trkpt>
      <trkpt lat="44.54692" lon="1.44194">
        <ele>214.4</ele>
        <time>2022-02-06T14:25:25Z</time>
      </trkpt>
      <trkpt lat="44.54692" lon="1.44187">
        <ele>214.3</ele>
        <time>2022-02-06T14:25:30Z</time>
      </trkpt>
      <trkpt lat="44.54687" lon="1.44185">
        <ele>215.2</ele>
        <time>2022-02-06T14:25:35Z</time>
      </trkpt>
      <trkpt lat="44.54683" lon="1.44188">
        <ele>215</ele>
        <time>2022-02-06T14:25:40Z</time>
      </trkpt>
      <trkpt lat="44.54678" lon="1.44191">
        <ele>214.5</ele>
        <time>2022-02-06T14:25:45Z</time>
      </trkpt>
      <trkpt lat="44.54673" lon="1.44194">
        <ele>214.5</ele>
        <time>2022-02-06T14:25:50Z</time>
      </trkpt>
      <trkpt lat="44.54669" lon="1.44196">
        <ele>213.9</ele>
        <time>2022-02-06T14:25:54Z</time>
      </trkpt>
      <trkpt lat="44.54664" lon="1.44197">
        <ele>213.5</ele>
        <time>2022-02-06T14:25:58Z</time>
      </trkpt>
      <trkpt lat="44.54659" lon="1.44197">
        <ele>213.2</ele>
        <time>2022-02-06T14:26:03Z</time>
      </trkpt>
      <trkpt lat="44.54654" lon="1.44198">
        <ele>213.3</ele>
        <time>2022-02-06T14:26:08Z</time>
      </trkpt>
      <trkpt lat="44.54649" lon="1.442">
        <ele>213.6</ele>
        <time>2022-02-06T14:26:12Z</time>
      </trkpt>
      <trkpt lat="44.54644" lon="1.442">
        <ele>214.2</ele>
        <time>2022-02-06T14:26:16Z</time>
      </trkpt>
      <trkpt lat="44.5464" lon="1.44201">
        <ele>214.5</ele>
        <time>2022-02-06T14:26:20Z</time>
      </trkpt>
      <trkpt lat="44.54635" lon="1.44203">
        <ele>214.6</ele>
        <time>2022-02-06T14:26:25Z</time>
      </trkpt>
      <trkpt lat="44.54631" lon="1.44207">
        <ele>215.5</ele>
        <time>2022-02-06T14:26:35Z</time>
      </trkpt>
      <trkpt lat="44.54632" lon="1.44215">
        <ele>214.6</ele>
        <time>2022-02-06T14:28:50Z</time>
      </trkpt>
      <trkpt lat="44.54633" lon="1.44221">
        <ele>214.2</ele>
        <time>2022-02-06T14:28:55Z</time>
      </trkpt>
      <trkpt lat="44.54633" lon="1.44229">
        <ele>213.9</ele>
        <time>2022-02-06T14:29:01Z</time>
      </trkpt>
      <trkpt lat="44.54632" lon="1.44236">
        <ele>214.1</ele>
        <time>2022-02-06T14:29:07Z</time>
      </trkpt>
      <trkpt lat="44.54631" lon="1.44243">
        <ele>213.8</ele>
        <time>2022-02-06T14:29:13Z</time>
      </trkpt>
      <trkpt lat="44.54629" lon="1.44249">
        <ele>213.7</ele>
        <time>2022-02-06T14:29:18Z</time>
      </trkpt>
      <trkpt lat="44.54627" lon="1.44255">
        <ele>213.8</ele>
        <time>2022-02-06T14:29:23Z</time>
      </trkpt>
      <trkpt lat="44.54626" lon="1.44261">
        <ele>213.7</ele>
        <time>2022-02-06T14:29:28Z</time>
      </trkpt>
      <trkpt lat="44.54624" lon="1.44268">
        <ele>213.3</ele>
        <time>2022-02-06T14:29:33Z</time>
      </trkpt>
      <trkpt lat="44.54622" lon="1.44275">
        <ele>213.6</ele>
        <time>2022-02-06T14:29:38Z</time>
      </trkpt>
      <trkpt lat="44.54621" lon="1.44282">
        <ele>213.9</ele>
        <time>2022-02-06T14:29:43Z</time>
      </trkpt>
      <trkpt lat="44.5462" lon="1.44288">
        <ele>214.2</ele>
        <time>2022-02-06T14:29:48Z</time>
      </trkpt>
      <trkpt lat="44.54619" lon="1.44296">
        <ele>214.8</ele>
        <time>2022-02-06T14:29:53Z</time>
      </trkpt>
      <trkpt lat="44.54618" lon="1.44303">
        <ele>215.2</ele>
        <time>2022-02-06T14:29:58Z</time>
      </trkpt>
      <trkpt lat="44.54617" lon="1.4431">
        <ele>215.4</ele>
        <time>2022-02-06T14:30:03Z</time>
      </trkpt>
      <trkpt lat="44.54615" lon="1.44317">
        <ele>215</ele>
        <time>2022-02-06T14:30:09Z</time>
      </trkpt>
      <trkpt lat="44.54612" lon="1.44323">
        <ele>215.2</ele>
        <time>2022-02-06T14:30:15Z</time>
      </trkpt>
      <trkpt lat="44.54607" lon="1.44324">
        <ele>216.1</ele>
        <time>2022-02-06T14:30:21Z</time>
      </trkpt>
      <trkpt lat="44.54603" lon="1.44327">
        <ele>216.9</ele>
        <time>2022-02-06T14:30:29Z</time>
      </trkpt>
      <trkpt lat="44.54599" lon="1.44332">
        <ele>218.2</ele>
        <time>2022-02-06T14:30:36Z</time>
      </trkpt>
      <trkpt lat="44.54595" lon="1.44335">
        <ele>218.8</ele>
        <time>2022-02-06T14:30:42Z</time>
      </trkpt>
      <trkpt lat="44.54591" lon="1.44339">
        <ele>219.3</ele>
        <time>2022-02-06T14:30:48Z</time>
      </trkpt>
      <trkpt lat="44.54587" lon="1.44342">
        <ele>219.8</ele>
        <time>2022-02-06T14:30:54Z</time>
      </trkpt>
      <trkpt lat="44.54583" lon="1.44347">
        <ele>220.7</ele>
        <time>2022-02-06T14:31:01Z</time>
      </trkpt>
      <trkpt lat="44.5458" lon="1.44351">
        <ele>222</ele>
        <time>2022-02-06T14:31:08Z</time>
      </trkpt>
      <trkpt lat="44.54577" lon="1.44356">
        <ele>223.6</ele>
        <time>2022-02-06T14:31:16Z</time>
      </trkpt>
      <trkpt lat="44.54573" lon="1.44361">
        <ele>224.5</ele>
        <time>2022-02-06T14:31:22Z</time>
      </trkpt>
      <trkpt lat="44.5457" lon="1.44367">
        <ele>225.8</ele>
        <time>2022-02-06T14:31:28Z</time>
      </trkpt>
      <trkpt lat="44.54566" lon="1.44371">
        <ele>227.4</ele>
        <time>2022-02-06T14:31:36Z</time>
      </trkpt>
      <trkpt lat="44.54562" lon="1.44374">
        <ele>227.5</ele>
        <time>2022-02-06T14:31:42Z</time>
      </trkpt>
      <trkpt lat="44.54558" lon="1.44377">
        <ele>227.7</ele>
        <time>2022-02-06T14:31:48Z</time>
      </trkpt>
      <trkpt lat="44.54553" lon="1.4438">
        <ele>228.6</ele>
        <time>2022-02-06T14:31:55Z</time>
      </trkpt>
      <trkpt lat="44.54549" lon="1.44383">
        <ele>229.7</ele>
        <time>2022-02-06T14:32:02Z</time>
      </trkpt>
      <trkpt lat="44.54544" lon="1.44386">
        <ele>230.6</ele>
        <time>2022-02-06T14:32:09Z</time>
      </trkpt>
      <trkpt lat="44.5454" lon="1.44389">
        <ele>230.9</ele>
        <time>2022-02-06T14:32:15Z</time>
      </trkpt>
      <trkpt lat="44.54536" lon="1.44392">
        <ele>231.2</ele>
        <time>2022-02-06T14:32:21Z</time>
      </trkpt>
      <trkpt lat="44.54531" lon="1.44396">
        <ele>231.8</ele>
        <time>2022-02-06T14:32:28Z</time>
      </trkpt>
      <trkpt lat="44.54527" lon="1.44401">
        <ele>233.2</ele>
        <time>2022-02-06T14:32:36Z</time>
      </trkpt>
      <trkpt lat="44.54523" lon="1.44403">
        <ele>233.6</ele>
        <time>2022-02-06T14:32:43Z</time>
      </trkpt>
      <trkpt lat="44.54519" lon="1.44406">
        <ele>233.9</ele>
        <time>2022-02-06T14:32:49Z</time>
      </trkpt>
      <trkpt lat="44.54514" lon="1.44409">
        <ele>234.4</ele>
        <time>2022-02-06T14:32:57Z</time>
      </trkpt>
      <trkpt lat="44.54509" lon="1.44411">
        <ele>234.8</ele>
        <time>2022-02-06T14:33:04Z</time>
      </trkpt>
      <trkpt lat="44.54505" lon="1.44412">
        <ele>235</ele>
        <time>2022-02-06T14:33:11Z</time>
      </trkpt>
      <trkpt lat="44.545" lon="1.44414">
        <ele>235.9</ele>
        <time>2022-02-06T14:33:17Z</time>
      </trkpt>
      <trkpt lat="44.54496" lon="1.44416">
        <ele>237.4</ele>
        <time>2022-02-06T14:33:24Z</time>
      </trkpt>
      <trkpt lat="44.54491" lon="1.44418">
        <ele>238.4</ele>
        <time>2022-02-06T14:33:32Z</time>
      </trkpt>
      <trkpt lat="44.54486" lon="1.44421">
        <ele>239</ele>
        <time>2022-02-06T14:33:40Z</time>
      </trkpt>
      <trkpt lat="44.54482" lon="1.44424">
        <ele>239.5</ele>
        <time>2022-02-06T14:33:47Z</time>
      </trkpt>
      <trkpt lat="44.54477" lon="1.44426">
        <ele>240.1</ele>
        <time>2022-02-06T14:33:55Z</time>
      </trkpt>
      <trkpt lat="44.54473" lon="1.44429">
        <ele>240.7</ele>
        <time>2022-02-06T14:34:02Z</time>
      </trkpt>
      <trkpt lat="44.54468" lon="1.44431">
        <ele>242.4</ele>
        <time>2022-02-06T14:34:09Z</time>
      </trkpt>
      <trkpt lat="44.54464" lon="1.44432">
        <ele>243.7</ele>
        <time>2022-02-06T14:34:16Z</time>
      </trkpt>
      <trkpt lat="44.54459" lon="1.44433">
        <ele>244.6</ele>
        <time>2022-02-06T14:34:23Z</time>
      </trkpt>
      <trkpt lat="44.54454" lon="1.44435">
        <ele>245.2</ele>
        <time>2022-02-06T14:34:31Z</time>
      </trkpt>
      <trkpt lat="44.5445" lon="1.44437">
        <ele>245.8</ele>
        <time>2022-02-06T14:34:38Z</time>
      </trkpt>
      <trkpt lat="44.54445" lon="1.44438">
        <ele>247.3</ele>
        <time>2022-02-06T14:34:45Z</time>
      </trkpt>
      <trkpt lat="44.54441" lon="1.44442">
        <ele>248.7</ele>
        <time>2022-02-06T14:34:53Z</time>
      </trkpt>
      <trkpt lat="44.54438" lon="1.44446">
        <ele>249.6</ele>
        <time>2022-02-06T14:35:01Z</time>
      </trkpt>
      <trkpt lat="44.54434" lon="1.4445">
        <ele>251</ele>
        <time>2022-02-06T14:35:11Z</time>
      </trkpt>
      <trkpt lat="44.5443" lon="1.44455">
        <ele>251.5</ele>
        <time>2022-02-06T14:35:20Z</time>
      </trkpt>
      <trkpt lat="44.54426" lon="1.44458">
        <ele>252</ele>
        <time>2022-02-06T14:35:28Z</time>
      </trkpt>
      <trkpt lat="44.54422" lon="1.44462">
        <ele>252.8</ele>
        <time>2022-02-06T14:35:37Z</time>
      </trkpt>
      <trkpt lat="44.54418" lon="1.44464">
        <ele>254.3</ele>
        <time>2022-02-06T14:35:44Z</time>
      </trkpt>
      <trkpt lat="44.54413" lon="1.44466">
        <ele>256</ele>
        <time>2022-02-06T14:35:51Z</time>
      </trkpt>
      <trkpt lat="44.54408" lon="1.44468">
        <ele>257.8</ele>
        <time>2022-02-06T14:35:58Z</time>
      </trkpt>
      <trkpt lat="44.54404" lon="1.44471">
        <ele>259.2</ele>
        <time>2022-02-06T14:36:05Z</time>
      </trkpt>
      <trkpt lat="44.544" lon="1.44476">
        <ele>259.6</ele>
        <time>2022-02-06T14:36:14Z</time>
      </trkpt>
      <trkpt lat="44.54398" lon="1.44482">
        <ele>259.6</ele>
        <time>2022-02-06T14:36:22Z</time>
      </trkpt>
      <trkpt lat="44.54396" lon="1.44488">
        <ele>260</ele>
        <time>2022-02-06T14:36:30Z</time>
      </trkpt>
      <trkpt lat="44.54393" lon="1.44494">
        <ele>261.1</ele>
        <time>2022-02-06T14:36:37Z</time>
      </trkpt>
      <trkpt lat="44.5439" lon="1.44499">
        <ele>262.2</ele>
        <time>2022-02-06T14:36:44Z</time>
      </trkpt>
      <trkpt lat="44.54387" lon="1.44504">
        <ele>263.1</ele>
        <time>2022-02-06T14:36:50Z</time>
      </trkpt>
      <trkpt lat="44.54384" lon="1.4451">
        <ele>264.3</ele>
        <time>2022-02-06T14:36:57Z</time>
      </trkpt>
      <trkpt lat="44.54382" lon="1.44516">
        <ele>265.5</ele>
        <time>2022-02-06T14:37:04Z</time>
      </trkpt>
      <trkpt lat="44.54379" lon="1.44521">
        <ele>266.5</ele>
        <time>2022-02-06T14:37:10Z</time>
      </trkpt>
      <trkpt lat="44.54376" lon="1.44527">
        <ele>268.3</ele>
        <time>2022-02-06T14:37:16Z</time>
      </trkpt>
      <trkpt lat="44.54374" lon="1.44532">
        <ele>269.4</ele>
        <time>2022-02-06T14:37:22Z</time>
      </trkpt>
      <trkpt lat="44.54371" lon="1.44538">
        <ele>270.4</ele>
        <time>2022-02-06T14:37:29Z</time>
      </trkpt>
      <trkpt lat="44.54368" lon="1.44542">
        <ele>271.3</ele>
        <time>2022-02-06T14:37:36Z</time>
      </trkpt>
      <trkpt lat="44.54365" lon="1.44548">
        <ele>272</ele>
        <time>2022-02-06T14:37:42Z</time>
      </trkpt>
      <trkpt lat="44.54364" lon="1.44554">
        <ele>273</ele>
        <time>2022-02-06T14:37:49Z</time>
      </trkpt>
      <trkpt lat="44.54362" lon="1.4456">
        <ele>273.5</ele>
        <time>2022-02-06T14:37:58Z</time>
      </trkpt>
      <trkpt lat="44.54359" lon="1.44566">
        <ele>274.6</ele>
        <time>2022-02-06T14:38:04Z</time>
      </trkpt>
      <trkpt lat="44.54356" lon="1.44571">
        <ele>275.5</ele>
        <time>2022-02-06T14:38:10Z</time>
      </trkpt>
      <trkpt lat="44.54353" lon="1.44577">
        <ele>276.3</ele>
        <time>2022-02-06T14:38:16Z</time>
      </trkpt>
      <trkpt lat="44.54351" lon="1.44583">
        <ele>276.8</ele>
        <time>2022-02-06T14:38:22Z</time>
      </trkpt>
      <trkpt lat="44.54348" lon="1.4459">
        <ele>277.6</ele>
        <time>2022-02-06T14:38:28Z</time>
      </trkpt>
      <trkpt lat="44.54346" lon="1.44595">
        <ele>278.4</ele>
        <time>2022-02-06T14:38:34Z</time>
      </trkpt>
      <trkpt lat="44.54342" lon="1.44601">
        <ele>279.6</ele>
        <time>2022-02-06T14:38:40Z</time>
      </trkpt>
      <trkpt lat="44.54339" lon="1.44606">
        <ele>280.3</ele>
        <time>2022-02-06T14:38:46Z</time>
      </trkpt>
      <trkpt lat="44.54335" lon="1.44611">
        <ele>281.1</ele>
        <time>2022-02-06T14:38:52Z</time>
      </trkpt>
      <trkpt lat="44.54332" lon="1.44615">
        <ele>282.2</ele>
        <time>2022-02-06T14:38:58Z</time>
      </trkpt>
      <trkpt lat="44.54329" lon="1.4462">
        <ele>283.5</ele>
        <time>2022-02-06T14:39:05Z</time>
      </trkpt>
      <trkpt lat="44.54327" lon="1.44627">
        <ele>284.3</ele>
        <time>2022-02-06T14:39:12Z</time>
      </trkpt>
      <trkpt lat="44.54325" lon="1.44632">
        <ele>284.9</ele>
        <time>2022-02-06T14:39:18Z</time>
      </trkpt>
      <trkpt lat="44.54323" lon="1.44639">
        <ele>285.3</ele>
        <time>2022-02-06T14:39:25Z</time>
      </trkpt>
      <trkpt lat="44.5432" lon="1.44644">
        <ele>286.1</ele>
        <time>2022-02-06T14:39:32Z</time>
      </trkpt>
      <trkpt lat="44.54317" lon="1.44651">
        <ele>286.7</ele>
        <time>2022-02-06T14:39:39Z</time>
      </trkpt>
      <trkpt lat="44.54315" lon="1.44657">
        <ele>287.4</ele>
        <time>2022-02-06T14:39:45Z</time>
      </trkpt>
      <trkpt lat="44.54313" lon="1.44663">
        <ele>288.2</ele>
        <time>2022-02-06T14:39:50Z</time>
      </trkpt>
      <trkpt lat="44.54311" lon="1.44669">
        <ele>288.9</ele>
        <time>2022-02-06T14:39:55Z</time>
      </trkpt>
      <trkpt lat="44.54308" lon="1.44675">
        <ele>289.1</ele>
        <time>2022-02-06T14:40:00Z</time>
      </trkpt>
      <trkpt lat="44.54305" lon="1.4468">
        <ele>289.8</ele>
        <time>2022-02-06T14:40:06Z</time>
      </trkpt>
      <trkpt lat="44.54301" lon="1.44683">
        <ele>292</ele>
        <time>2022-02-06T14:40:24Z</time>
      </trkpt>
      <trkpt lat="44.54296" lon="1.44687">
        <ele>293.5</ele>
        <time>2022-02-06T14:40:30Z</time>
      </trkpt>
      <trkpt lat="44.54292" lon="1.4469">
        <ele>293.8</ele>
        <time>2022-02-06T14:40:36Z</time>
      </trkpt>
      <trkpt lat="44.54289" lon="1.44694">
        <ele>293.8</ele>
        <time>2022-02-06T14:40:43Z</time>
      </trkpt>
      <trkpt lat="44.54286" lon="1.447">
        <ele>294.5</ele>
        <time>2022-02-06T14:40:50Z</time>
      </trkpt>
      <trkpt lat="44.54284" lon="1.44706">
        <ele>295.7</ele>
        <time>2022-02-06T14:40:57Z</time>
      </trkpt>
      <trkpt lat="44.54285" lon="1.44713">
        <ele>297.9</ele>
        <time>2022-02-06T14:41:02Z</time>
      </trkpt>
      <trkpt lat="44.54285" lon="1.44719">
        <ele>300.2</ele>
        <time>2022-02-06T14:41:07Z</time>
      </trkpt>
      <trkpt lat="44.54283" lon="1.44726">
        <ele>302</ele>
        <time>2022-02-06T14:41:14Z</time>
      </trkpt>
      <trkpt lat="44.5428" lon="1.4473">
        <ele>303.2</ele>
        <time>2022-02-06T14:41:20Z</time>
      </trkpt>
      <trkpt lat="44.54277" lon="1.44736">
        <ele>303.7</ele>
        <time>2022-02-06T14:41:26Z</time>
      </trkpt>
      <trkpt lat="44.54274" lon="1.44742">
        <ele>304.3</ele>
        <time>2022-02-06T14:41:33Z</time>
      </trkpt>
      <trkpt lat="44.54273" lon="1.44748">
        <ele>305.5</ele>
        <time>2022-02-06T14:41:39Z</time>
      </trkpt>
      <trkpt lat="44.54273" lon="1.44756">
        <ele>306.5</ele>
        <time>2022-02-06T14:41:45Z</time>
      </trkpt>
      <trkpt lat="44.54273" lon="1.44762">
        <ele>307.9</ele>
        <time>2022-02-06T14:41:53Z</time>
      </trkpt>
      <trkpt lat="44.54275" lon="1.44757">
        <ele>308</ele>
        <time>2022-02-06T14:44:50Z</time>
      </trkpt>
      <trkpt lat="44.5428" lon="1.44758">
        <ele>309.5</ele>
        <time>2022-02-06T14:48:50Z</time>
      </trkpt>
      <trkpt lat="44.54285" lon="1.44759">
        <ele>309.2</ele>
        <time>2022-02-06T14:48:56Z</time>
      </trkpt>
      <trkpt lat="44.5429" lon="1.44762">
        <ele>308.4</ele>
        <time>2022-02-06T14:49:11Z</time>
      </trkpt>
      <trkpt lat="44.54294" lon="1.44765">
        <ele>307.2</ele>
        <time>2022-02-06T14:49:17Z</time>
      </trkpt>
      <trkpt lat="44.54298" lon="1.44767">
        <ele>305.9</ele>
        <time>2022-02-06T14:49:23Z</time>
      </trkpt>
      <trkpt lat="44.54303" lon="1.44769">
        <ele>305.3</ele>
        <time>2022-02-06T14:49:29Z</time>
      </trkpt>
      <trkpt lat="44.54308" lon="1.44769">
        <ele>305.1</ele>
        <time>2022-02-06T14:49:35Z</time>
      </trkpt>
      <trkpt lat="44.54313" lon="1.44769">
        <ele>305.1</ele>
        <time>2022-02-06T14:49:40Z</time>
      </trkpt>
      <trkpt lat="44.54317" lon="1.44773">
        <ele>305.9</ele>
        <time>2022-02-06T14:49:46Z</time>
      </trkpt>
      <trkpt lat="44.54319" lon="1.44779">
        <ele>306.9</ele>
        <time>2022-02-06T14:49:52Z</time>
      </trkpt>
      <trkpt lat="44.54319" lon="1.44786">
        <ele>307.7</ele>
        <time>2022-02-06T14:49:58Z</time>
      </trkpt>
      <trkpt lat="44.54319" lon="1.44792">
        <ele>308.1</ele>
        <time>2022-02-06T14:50:04Z</time>
      </trkpt>
      <trkpt lat="44.5432" lon="1.44799">
        <ele>308.5</ele>
        <time>2022-02-06T14:50:09Z</time>
      </trkpt>
      <trkpt lat="44.54321" lon="1.44806">
        <ele>308</ele>
        <time>2022-02-06T14:50:14Z</time>
      </trkpt>
      <trkpt lat="44.5432" lon="1.44813">
        <ele>308.5</ele>
        <time>2022-02-06T14:50:19Z</time>
      </trkpt>
      <trkpt lat="44.5432" lon="1.44819">
        <ele>308.9</ele>
        <time>2022-02-06T14:50:24Z</time>
      </trkpt>
      <trkpt lat="44.5432" lon="1.44826">
        <ele>309.2</ele>
        <time>2022-02-06T14:50:30Z</time>
      </trkpt>
      <trkpt lat="44.54319" lon="1.44833">
        <ele>309.3</ele>
        <time>2022-02-06T14:50:35Z</time>
      </trkpt>
      <trkpt lat="44.54318" lon="1.4484">
        <ele>309.2</ele>
        <time>2022-02-06T14:50:41Z</time>
      </trkpt>
      <trkpt lat="44.54316" lon="1.44846">
        <ele>308.8</ele>
        <time>2022-02-06T14:50:46Z</time>
      </trkpt>
      <trkpt lat="44.54312" lon="1.4485">
        <ele>309.6</ele>
        <time>2022-02-06T14:50:51Z</time>
      </trkpt>
      <trkpt lat="44.54307" lon="1.44848">
        <ele>310.1</ele>
        <time>2022-02-06T14:50:56Z</time>
      </trkpt>
      <trkpt lat="44.54304" lon="1.44843">
        <ele>310.6</ele>
        <time>2022-02-06T14:51:01Z</time>
      </trkpt>
      <trkpt lat="44.543" lon="1.44839">
        <ele>311</ele>
        <time>2022-02-06T14:51:06Z</time>
      </trkpt>
      <trkpt lat="44.54295" lon="1.44839">
        <ele>311.5</ele>
        <time>2022-02-06T14:51:12Z</time>
      </trkpt>
      <trkpt lat="44.54291" lon="1.44842">
        <ele>310.7</ele>
        <time>2022-02-06T14:51:19Z</time>
      </trkpt>
      <trkpt lat="44.54286" lon="1.44845">
        <ele>310.2</ele>
        <time>2022-02-06T14:51:24Z</time>
      </trkpt>
      <trkpt lat="44.54281" lon="1.44848">
        <ele>309.6</ele>
        <time>2022-02-06T14:51:29Z</time>
      </trkpt>
      <trkpt lat="44.54276" lon="1.44849">
        <ele>309.5</ele>
        <time>2022-02-06T14:51:34Z</time>
      </trkpt>
      <trkpt lat="44.54271" lon="1.4485">
        <ele>309.6</ele>
        <time>2022-02-06T14:51:40Z</time>
      </trkpt>
      <trkpt lat="44.54267" lon="1.4485">
        <ele>310.2</ele>
        <time>2022-02-06T14:51:45Z</time>
      </trkpt>
      <trkpt lat="44.54261" lon="1.44851">
        <ele>310.9</ele>
        <time>2022-02-06T14:51:50Z</time>
      </trkpt>
      <trkpt lat="44.54256" lon="1.4485">
        <ele>311.7</ele>
        <time>2022-02-06T14:51:55Z</time>
      </trkpt>
      <trkpt lat="44.54251" lon="1.44848">
        <ele>311.9</ele>
        <time>2022-02-06T14:52:01Z</time>
      </trkpt>
      <trkpt lat="44.54247" lon="1.4485">
        <ele>312.6</ele>
        <time>2022-02-06T14:52:06Z</time>
      </trkpt>
      <trkpt lat="44.54243" lon="1.44854">
        <ele>313</ele>
        <time>2022-02-06T14:52:12Z</time>
      </trkpt>
      <trkpt lat="44.5424" lon="1.4486">
        <ele>313.2</ele>
        <time>2022-02-06T14:52:17Z</time>
      </trkpt>
      <trkpt lat="44.54237" lon="1.44866">
        <ele>313.5</ele>
        <time>2022-02-06T14:52:22Z</time>
      </trkpt>
      <trkpt lat="44.54234" lon="1.44871">
        <ele>313.7</ele>
        <time>2022-02-06T14:52:27Z</time>
      </trkpt>
      <trkpt lat="44.54231" lon="1.44877">
        <ele>313.7</ele>
        <time>2022-02-06T14:52:32Z</time>
      </trkpt>
      <trkpt lat="44.54227" lon="1.44882">
        <ele>313.7</ele>
        <time>2022-02-06T14:52:37Z</time>
      </trkpt>
      <trkpt lat="44.54224" lon="1.44888">
        <ele>314</ele>
        <time>2022-02-06T14:52:42Z</time>
      </trkpt>
      <trkpt lat="44.54221" lon="1.44893">
        <ele>313.8</ele>
        <time>2022-02-06T14:52:47Z</time>
      </trkpt>
      <trkpt lat="44.54218" lon="1.44898">
        <ele>313.5</ele>
        <time>2022-02-06T14:52:52Z</time>
      </trkpt>
      <trkpt lat="44.54215" lon="1.44903">
        <ele>312.9</ele>
        <time>2022-02-06T14:52:57Z</time>
      </trkpt>
      <trkpt lat="44.54211" lon="1.44908">
        <ele>312.2</ele>
        <time>2022-02-06T14:53:02Z</time>
      </trkpt>
      <trkpt lat="44.54207" lon="1.44912">
        <ele>311.9</ele>
        <time>2022-02-06T14:53:07Z</time>
      </trkpt>
      <trkpt lat="44.54204" lon="1.44919">
        <ele>311.7</ele>
        <time>2022-02-06T14:53:12Z</time>
      </trkpt>
      <trkpt lat="44.54201" lon="1.44925">
        <ele>312.2</ele>
        <time>2022-02-06T14:53:17Z</time>
      </trkpt>
      <trkpt lat="44.54198" lon="1.4493">
        <ele>312.8</ele>
        <time>2022-02-06T14:53:23Z</time>
      </trkpt>
      <trkpt lat="44.54196" lon="1.44936">
        <ele>314.1</ele>
        <time>2022-02-06T14:55:02Z</time>
      </trkpt>
      <trkpt lat="44.54192" lon="1.4493">
        <ele>314.8</ele>
        <time>2022-02-06T14:55:08Z</time>
      </trkpt>
      <trkpt lat="44.54189" lon="1.44936">
        <ele>315.9</ele>
        <time>2022-02-06T14:55:19Z</time>
      </trkpt>
      <trkpt lat="44.54186" lon="1.44941">
        <ele>313.6</ele>
        <time>2022-02-06T14:57:19Z</time>
      </trkpt>
      <trkpt lat="44.54182" lon="1.44944">
        <ele>313.6</ele>
        <time>2022-02-06T14:57:29Z</time>
      </trkpt>
      <trkpt lat="44.54177" lon="1.44946">
        <ele>314.1</ele>
        <time>2022-02-06T14:57:37Z</time>
      </trkpt>
      <trkpt lat="44.54173" lon="1.44949">
        <ele>314</ele>
        <time>2022-02-06T14:57:44Z</time>
      </trkpt>
      <trkpt lat="44.54168" lon="1.4495">
        <ele>313.5</ele>
        <time>2022-02-06T14:57:52Z</time>
      </trkpt>
      <trkpt lat="44.54163" lon="1.44948">
        <ele>313</ele>
        <time>2022-02-06T14:57:58Z</time>
      </trkpt>
      <trkpt lat="44.54159" lon="1.44944">
        <ele>312.7</ele>
        <time>2022-02-06T14:58:04Z</time>
      </trkpt>
      <trkpt lat="44.54154" lon="1.4494">
        <ele>312</ele>
        <time>2022-02-06T14:58:10Z</time>
      </trkpt>
      <trkpt lat="44.54151" lon="1.44936">
        <ele>311.5</ele>
        <time>2022-02-06T14:58:15Z</time>
      </trkpt>
      <trkpt lat="44.54147" lon="1.44932">
        <ele>310.3</ele>
        <time>2022-02-06T14:58:28Z</time>
      </trkpt>
      <trkpt lat="44.54143" lon="1.44929">
        <ele>310</ele>
        <time>2022-02-06T14:58:34Z</time>
      </trkpt>
      <trkpt lat="44.54139" lon="1.44925">
        <ele>309.5</ele>
        <time>2022-02-06T14:58:45Z</time>
      </trkpt>
      <trkpt lat="44.54135" lon="1.44919">
        <ele>308.8</ele>
        <time>2022-02-06T14:58:51Z</time>
      </trkpt>
      <trkpt lat="44.54133" lon="1.44914">
        <ele>308.5</ele>
        <time>2022-02-06T14:58:56Z</time>
      </trkpt>
      <trkpt lat="44.54131" lon="1.44907">
        <ele>307.9</ele>
        <time>2022-02-06T14:59:02Z</time>
      </trkpt>
      <trkpt lat="44.54128" lon="1.44901">
        <ele>308.2</ele>
        <time>2022-02-06T14:59:08Z</time>
      </trkpt>
      <trkpt lat="44.54124" lon="1.44897">
        <ele>308.3</ele>
        <time>2022-02-06T14:59:14Z</time>
      </trkpt>
      <trkpt lat="44.5412" lon="1.44893">
        <ele>308.8</ele>
        <time>2022-02-06T14:59:20Z</time>
      </trkpt>
      <trkpt lat="44.54116" lon="1.44889">
        <ele>308.8</ele>
        <time>2022-02-06T14:59:25Z</time>
      </trkpt>
      <trkpt lat="44.54112" lon="1.44885">
        <ele>308.7</ele>
        <time>2022-02-06T14:59:30Z</time>
      </trkpt>
      <trkpt lat="44.54108" lon="1.44882">
        <ele>308.5</ele>
        <time>2022-02-06T14:59:35Z</time>
      </trkpt>
      <trkpt lat="44.54105" lon="1.44876">
        <ele>308.3</ele>
        <time>2022-02-06T14:59:40Z</time>
      </trkpt>
      <trkpt lat="44.54102" lon="1.44871">
        <ele>308</ele>
        <time>2022-02-06T14:59:45Z</time>
      </trkpt>
      <trkpt lat="44.54099" lon="1.44865">
        <ele>307.9</ele>
        <time>2022-02-06T14:59:50Z</time>
      </trkpt>
      <trkpt lat="44.54098" lon="1.44858">
        <ele>307.3</ele>
        <time>2022-02-06T14:59:55Z</time>
      </trkpt>
      <trkpt lat="44.54097" lon="1.44852">
        <ele>307</ele>
        <time>2022-02-06T15:00:00Z</time>
      </trkpt>
      <trkpt lat="44.54096" lon="1.44845">
        <ele>306.9</ele>
        <time>2022-02-06T15:00:05Z</time>
      </trkpt>
      <trkpt lat="44.54095" lon="1.44839">
        <ele>306.5</ele>
        <time>2022-02-06T15:00:10Z</time>
      </trkpt>
      <trkpt lat="44.54094" lon="1.44832">
        <ele>306</ele>
        <time>2022-02-06T15:00:15Z</time>
      </trkpt>
      <trkpt lat="44.54093" lon="1.44826">
        <ele>305.6</ele>
        <time>2022-02-06T15:00:20Z</time>
      </trkpt>
      <trkpt lat="44.5409" lon="1.4482">
        <ele>305.1</ele>
        <time>2022-02-06T15:00:25Z</time>
      </trkpt>
      <trkpt lat="44.54087" lon="1.44816">
        <ele>304.6</ele>
        <time>2022-02-06T15:00:30Z</time>
      </trkpt>
      <trkpt lat="44.54083" lon="1.44811">
        <ele>303.7</ele>
        <time>2022-02-06T15:00:35Z</time>
      </trkpt>
      <trkpt lat="44.54079" lon="1.44808">
        <ele>302.8</ele>
        <time>2022-02-06T15:00:40Z</time>
      </trkpt>
      <trkpt lat="44.54075" lon="1.44807">
        <ele>302.4</ele>
        <time>2022-02-06T15:00:45Z</time>
      </trkpt>
      <trkpt lat="44.5407" lon="1.44807">
        <ele>302.4</ele>
        <time>2022-02-06T15:00:50Z</time>
      </trkpt>
      <trkpt lat="44.54066" lon="1.44802">
        <ele>302.9</ele>
        <time>2022-02-06T15:00:56Z</time>
      </trkpt>
      <trkpt lat="44.54065" lon="1.44796">
        <ele>301.6</ele>
        <time>2022-02-06T15:01:03Z</time>
      </trkpt>
      <trkpt lat="44.54067" lon="1.44789">
        <ele>300.9</ele>
        <time>2022-02-06T15:01:09Z</time>
      </trkpt>
      <trkpt lat="44.54073" lon="1.4479">
        <ele>299.4</ele>
        <time>2022-02-06T15:01:15Z</time>
      </trkpt>
      <trkpt lat="44.54073" lon="1.44783">
        <ele>297.4</ele>
        <time>2022-02-06T15:01:24Z</time>
      </trkpt>
      <trkpt lat="44.54075" lon="1.44776">
        <ele>296.2</ele>
        <time>2022-02-06T15:01:31Z</time>
      </trkpt>
      <trkpt lat="44.54074" lon="1.44769">
        <ele>296.1</ele>
        <time>2022-02-06T15:01:41Z</time>
      </trkpt>
      <trkpt lat="44.54075" lon="1.44763">
        <ele>297</ele>
        <time>2022-02-06T15:01:47Z</time>
      </trkpt>
      <trkpt lat="44.54078" lon="1.44757">
        <ele>296.4</ele>
        <time>2022-02-06T15:01:53Z</time>
      </trkpt>
      <trkpt lat="44.54081" lon="1.44752">
        <ele>296.2</ele>
        <time>2022-02-06T15:02:01Z</time>
      </trkpt>
      <trkpt lat="44.54081" lon="1.44745">
        <ele>295.7</ele>
        <time>2022-02-06T15:02:09Z</time>
      </trkpt>
      <trkpt lat="44.5408" lon="1.44739">
        <ele>296.3</ele>
        <time>2022-02-06T15:02:15Z</time>
      </trkpt>
      <trkpt lat="44.54079" lon="1.44732">
        <ele>294.3</ele>
        <time>2022-02-06T15:02:22Z</time>
      </trkpt>
      <trkpt lat="44.54079" lon="1.44725">
        <ele>291.4</ele>
        <time>2022-02-06T15:02:29Z</time>
      </trkpt>
      <trkpt lat="44.54078" lon="1.44718">
        <ele>288.8</ele>
        <time>2022-02-06T15:02:37Z</time>
      </trkpt>
      <trkpt lat="44.54077" lon="1.44712">
        <ele>287</ele>
        <time>2022-02-06T15:02:44Z</time>
      </trkpt>
      <trkpt lat="44.54076" lon="1.44705">
        <ele>285.1</ele>
        <time>2022-02-06T15:02:52Z</time>
      </trkpt>
      <trkpt lat="44.54075" lon="1.44698">
        <ele>284.3</ele>
        <time>2022-02-06T15:02:59Z</time>
      </trkpt>
      <trkpt lat="44.54075" lon="1.44691">
        <ele>283.1</ele>
        <time>2022-02-06T15:03:06Z</time>
      </trkpt>
      <trkpt lat="44.54073" lon="1.44685">
        <ele>281.7</ele>
        <time>2022-02-06T15:03:14Z</time>
      </trkpt>
      <trkpt lat="44.54073" lon="1.44678">
        <ele>280</ele>
        <time>2022-02-06T15:03:32Z</time>
      </trkpt>
      <trkpt lat="44.54071" lon="1.44671">
        <ele>280.1</ele>
        <time>2022-02-06T15:03:37Z</time>
      </trkpt>
      <trkpt lat="44.5407" lon="1.44665">
        <ele>279.9</ele>
        <time>2022-02-06T15:03:42Z</time>
      </trkpt>
      <trkpt lat="44.54068" lon="1.44658">
        <ele>278.4</ele>
        <time>2022-02-06T15:03:49Z</time>
      </trkpt>
      <trkpt lat="44.54066" lon="1.44652">
        <ele>277.3</ele>
        <time>2022-02-06T15:03:55Z</time>
      </trkpt>
      <trkpt lat="44.54065" lon="1.44646">
        <ele>276.1</ele>
        <time>2022-02-06T15:04:01Z</time>
      </trkpt>
      <trkpt lat="44.54064" lon="1.44639">
        <ele>275</ele>
        <time>2022-02-06T15:04:07Z</time>
      </trkpt>
      <trkpt lat="44.54062" lon="1.44633">
        <ele>273.9</ele>
        <time>2022-02-06T15:04:13Z</time>
      </trkpt>
      <trkpt lat="44.54061" lon="1.44626">
        <ele>272.8</ele>
        <time>2022-02-06T15:04:20Z</time>
      </trkpt>
      <trkpt lat="44.54058" lon="1.4462">
        <ele>272.3</ele>
        <time>2022-02-06T15:04:27Z</time>
      </trkpt>
      <trkpt lat="44.54055" lon="1.44615">
        <ele>272</ele>
        <time>2022-02-06T15:04:35Z</time>
      </trkpt>
      <trkpt lat="44.54054" lon="1.44608">
        <ele>270.7</ele>
        <time>2022-02-06T15:04:42Z</time>
      </trkpt>
      <trkpt lat="44.54055" lon="1.44602">
        <ele>269.4</ele>
        <time>2022-02-06T15:04:48Z</time>
      </trkpt>
      <trkpt lat="44.54054" lon="1.44595">
        <ele>268.1</ele>
        <time>2022-02-06T15:04:54Z</time>
      </trkpt>
      <trkpt lat="44.54055" lon="1.44589">
        <ele>266.9</ele>
        <time>2022-02-06T15:05:01Z</time>
      </trkpt>
      <trkpt lat="44.54056" lon="1.44582">
        <ele>266.1</ele>
        <time>2022-02-06T15:05:08Z</time>
      </trkpt>
      <trkpt lat="44.54056" lon="1.44574">
        <ele>265.8</ele>
        <time>2022-02-06T15:05:15Z</time>
      </trkpt>
      <trkpt lat="44.54056" lon="1.44567">
        <ele>264.7</ele>
        <time>2022-02-06T15:05:23Z</time>
      </trkpt>
      <trkpt lat="44.54056" lon="1.44561">
        <ele>263.7</ele>
        <time>2022-02-06T15:05:29Z</time>
      </trkpt>
      <trkpt lat="44.54056" lon="1.44554">
        <ele>262.5</ele>
        <time>2022-02-06T15:05:36Z</time>
      </trkpt>
      <trkpt lat="44.54058" lon="1.44547">
        <ele>261.4</ele>
        <time>2022-02-06T15:05:44Z</time>
      </trkpt>
      <trkpt lat="44.54059" lon="1.4454">
        <ele>259.6</ele>
        <time>2022-02-06T15:05:52Z</time>
      </trkpt>
      <trkpt lat="44.54058" lon="1.44534">
        <ele>257.9</ele>
        <time>2022-02-06T15:06:00Z</time>
      </trkpt>
      <trkpt lat="44.54059" lon="1.44527">
        <ele>256.2</ele>
        <time>2022-02-06T15:06:08Z</time>
      </trkpt>
      <trkpt lat="44.5406" lon="1.4452">
        <ele>254.4</ele>
        <time>2022-02-06T15:06:15Z</time>
      </trkpt>
      <trkpt lat="44.5406" lon="1.44513">
        <ele>251.9</ele>
        <time>2022-02-06T15:06:23Z</time>
      </trkpt>
      <trkpt lat="44.54061" lon="1.44507">
        <ele>249.2</ele>
        <time>2022-02-06T15:06:30Z</time>
      </trkpt>
      <trkpt lat="44.54061" lon="1.445">
        <ele>247.9</ele>
        <time>2022-02-06T15:06:37Z</time>
      </trkpt>
      <trkpt lat="44.5406" lon="1.44493">
        <ele>247.8</ele>
        <time>2022-02-06T15:06:44Z</time>
      </trkpt>
      <trkpt lat="44.54057" lon="1.44488">
        <ele>249.4</ele>
        <time>2022-02-06T15:06:51Z</time>
      </trkpt>
      <trkpt lat="44.54054" lon="1.44484">
        <ele>249.4</ele>
        <time>2022-02-06T15:07:39Z</time>
      </trkpt>
      <trkpt lat="44.54051" lon="1.44479">
        <ele>248.7</ele>
        <time>2022-02-06T15:07:48Z</time>
      </trkpt>
      <trkpt lat="44.54047" lon="1.44475">
        <ele>247.9</ele>
        <time>2022-02-06T15:07:56Z</time>
      </trkpt>
      <trkpt lat="44.54043" lon="1.44479">
        <ele>246.8</ele>
        <time>2022-02-06T15:08:03Z</time>
      </trkpt>
      <trkpt lat="44.5404" lon="1.44485">
        <ele>245.9</ele>
        <time>2022-02-06T15:08:08Z</time>
      </trkpt>
      <trkpt lat="44.54037" lon="1.4449">
        <ele>244.7</ele>
        <time>2022-02-06T15:08:13Z</time>
      </trkpt>
      <trkpt lat="44.54034" lon="1.44495">
        <ele>243.8</ele>
        <time>2022-02-06T15:08:18Z</time>
      </trkpt>
      <trkpt lat="44.5403" lon="1.44499">
        <ele>243.8</ele>
        <time>2022-02-06T15:08:23Z</time>
      </trkpt>
      <trkpt lat="44.54027" lon="1.44505">
        <ele>243.6</ele>
        <time>2022-02-06T15:08:28Z</time>
      </trkpt>
      <trkpt lat="44.54024" lon="1.44512">
        <ele>242.9</ele>
        <time>2022-02-06T15:08:33Z</time>
      </trkpt>
      <trkpt lat="44.54022" lon="1.44517">
        <ele>241.9</ele>
        <time>2022-02-06T15:08:38Z</time>
      </trkpt>
      <trkpt lat="44.54019" lon="1.44522">
        <ele>241.2</ele>
        <time>2022-02-06T15:08:43Z</time>
      </trkpt>
      <trkpt lat="44.54015" lon="1.44526">
        <ele>240.7</ele>
        <time>2022-02-06T15:08:48Z</time>
      </trkpt>
      <trkpt lat="44.54012" lon="1.4453">
        <ele>239.8</ele>
        <time>2022-02-06T15:08:54Z</time>
      </trkpt>
      <trkpt lat="44.54008" lon="1.44534">
        <ele>239</ele>
        <time>2022-02-06T15:09:01Z</time>
      </trkpt>
      <trkpt lat="44.54003" lon="1.44534">
        <ele>238</ele>
        <time>2022-02-06T15:09:07Z</time>
      </trkpt>
      <trkpt lat="44.53998" lon="1.44534">
        <ele>237.1</ele>
        <time>2022-02-06T15:09:12Z</time>
      </trkpt>
      <trkpt lat="44.53994" lon="1.44533">
        <ele>235.6</ele>
        <time>2022-02-06T15:09:17Z</time>
      </trkpt>
      <trkpt lat="44.53989" lon="1.44532">
        <ele>234.7</ele>
        <time>2022-02-06T15:09:22Z</time>
      </trkpt>
      <trkpt lat="44.53983" lon="1.44531">
        <ele>234.1</ele>
        <time>2022-02-06T15:09:27Z</time>
      </trkpt>
      <trkpt lat="44.53978" lon="1.44532">
        <ele>233.3</ele>
        <time>2022-02-06T15:09:32Z</time>
      </trkpt>
      <trkpt lat="44.53973" lon="1.44532">
        <ele>232.3</ele>
        <time>2022-02-06T15:09:38Z</time>
      </trkpt>
      <trkpt lat="44.53968" lon="1.44533">
        <ele>231.5</ele>
        <time>2022-02-06T15:09:44Z</time>
      </trkpt>
      <trkpt lat="44.53963" lon="1.44532">
        <ele>230.1</ele>
        <time>2022-02-06T15:09:49Z</time>
      </trkpt>
      <trkpt lat="44.53958" lon="1.44532">
        <ele>229.3</ele>
        <time>2022-02-06T15:09:54Z</time>
      </trkpt>
      <trkpt lat="44.53952" lon="1.44533">
        <ele>228.9</ele>
        <time>2022-02-06T15:09:59Z</time>
      </trkpt>
      <trkpt lat="44.53948" lon="1.44532">
        <ele>228</ele>
        <time>2022-02-06T15:10:04Z</time>
      </trkpt>
      <trkpt lat="44.53942" lon="1.44531">
        <ele>227.5</ele>
        <time>2022-02-06T15:10:09Z</time>
      </trkpt>
      <trkpt lat="44.53937" lon="1.44531">
        <ele>227.2</ele>
        <time>2022-02-06T15:10:14Z</time>
      </trkpt>
      <trkpt lat="44.53932" lon="1.44531">
        <ele>226.9</ele>
        <time>2022-02-06T15:10:19Z</time>
      </trkpt>
      <trkpt lat="44.53927" lon="1.44532">
        <ele>226.9</ele>
        <time>2022-02-06T15:10:23Z</time>
      </trkpt>
      <trkpt lat="44.53922" lon="1.44532">
        <ele>226.3</ele>
        <time>2022-02-06T15:10:28Z</time>
      </trkpt>
      <trkpt lat="44.53917" lon="1.44533">
        <ele>225.8</ele>
        <time>2022-02-06T15:10:33Z</time>
      </trkpt>
      <trkpt lat="44.53912" lon="1.44534">
        <ele>225.4</ele>
        <time>2022-02-06T15:10:38Z</time>
      </trkpt>
      <trkpt lat="44.53907" lon="1.44535">
        <ele>225.2</ele>
        <time>2022-02-06T15:10:43Z</time>
      </trkpt>
      <trkpt lat="44.53903" lon="1.44535">
        <ele>225.2</ele>
        <time>2022-02-06T15:10:48Z</time>
      </trkpt>
      <trkpt lat="44.53898" lon="1.44536">
        <ele>224.7</ele>
        <time>2022-02-06T15:10:53Z</time>
      </trkpt>
      <trkpt lat="44.53893" lon="1.44536">
        <ele>224.3</ele>
        <time>2022-02-06T15:10:58Z</time>
      </trkpt>
      <trkpt lat="44.53888" lon="1.44538">
        <ele>223.8</ele>
        <time>2022-02-06T15:11:03Z</time>
      </trkpt>
      <trkpt lat="44.53884" lon="1.44539">
        <ele>223.4</ele>
        <time>2022-02-06T15:11:08Z</time>
      </trkpt>
      <trkpt lat="44.53879" lon="1.44539">
        <ele>222.8</ele>
        <time>2022-02-06T15:11:13Z</time>
      </trkpt>
      <trkpt lat="44.53874" lon="1.44539">
        <ele>221.8</ele>
        <time>2022-02-06T15:11:18Z</time>
      </trkpt>
      <trkpt lat="44.53869" lon="1.44539">
        <ele>220.2</ele>
        <time>2022-02-06T15:11:24Z</time>
      </trkpt>
      <trkpt lat="44.53865" lon="1.44538">
        <ele>220</ele>
        <time>2022-02-06T15:11:29Z</time>
      </trkpt>
      <trkpt lat="44.5386" lon="1.4454">
        <ele>219.2</ele>
        <time>2022-02-06T15:11:35Z</time>
      </trkpt>
      <trkpt lat="44.53854" lon="1.4454">
        <ele>219.8</ele>
        <time>2022-02-06T15:11:41Z</time>
      </trkpt>
      <trkpt lat="44.53849" lon="1.44538">
        <ele>220</ele>
        <time>2022-02-06T15:11:47Z</time>
      </trkpt>
      <trkpt lat="44.53844" lon="1.44537">
        <ele>219.9</ele>
        <time>2022-02-06T15:11:53Z</time>
      </trkpt>
      <trkpt lat="44.53839" lon="1.44536">
        <ele>219.8</ele>
        <time>2022-02-06T15:11:58Z</time>
      </trkpt>
      <trkpt lat="44.53834" lon="1.44535">
        <ele>219.3</ele>
        <time>2022-02-06T15:12:04Z</time>
      </trkpt>
      <trkpt lat="44.53829" lon="1.44534">
        <ele>218.6</ele>
        <time>2022-02-06T15:12:10Z</time>
      </trkpt>
      <trkpt lat="44.53824" lon="1.44533">
        <ele>217.6</ele>
        <time>2022-02-06T15:12:17Z</time>
      </trkpt>
      <trkpt lat="44.5382" lon="1.44533">
        <ele>216.8</ele>
        <time>2022-02-06T15:12:23Z</time>
      </trkpt>
      <trkpt lat="44.53814" lon="1.44533">
        <ele>215.8</ele>
        <time>2022-02-06T15:12:29Z</time>
      </trkpt>
      <trkpt lat="44.53809" lon="1.44532">
        <ele>215.4</ele>
        <time>2022-02-06T15:12:34Z</time>
      </trkpt>
      <trkpt lat="44.53808" lon="1.44525">
        <ele>211.7</ele>
        <time>2022-02-06T15:17:25Z</time>
      </trkpt>
      <trkpt lat="44.53807" lon="1.44518">
        <ele>211.7</ele>
        <time>2022-02-06T15:17:30Z</time>
      </trkpt>
      <trkpt lat="44.53805" lon="1.44512">
        <ele>212.1</ele>
        <time>2022-02-06T15:17:35Z</time>
      </trkpt>
      <trkpt lat="44.53803" lon="1.44505">
        <ele>212.3</ele>
        <time>2022-02-06T15:17:40Z</time>
      </trkpt>
      <trkpt lat="44.53802" lon="1.44498">
        <ele>212.9</ele>
        <time>2022-02-06T15:17:45Z</time>
      </trkpt>
      <trkpt lat="44.53801" lon="1.44492">
        <ele>213.4</ele>
        <time>2022-02-06T15:17:50Z</time>
      </trkpt>
      <trkpt lat="44.538" lon="1.44485">
        <ele>213.7</ele>
        <time>2022-02-06T15:17:55Z</time>
      </trkpt>
      <trkpt lat="44.53799" lon="1.44479">
        <ele>213.4</ele>
        <time>2022-02-06T15:18:00Z</time>
      </trkpt>
      <trkpt lat="44.53799" lon="1.44472">
        <ele>213.5</ele>
        <time>2022-02-06T15:18:05Z</time>
      </trkpt>
      <trkpt lat="44.53798" lon="1.44464">
        <ele>213.9</ele>
        <time>2022-02-06T15:18:10Z</time>
      </trkpt>
      <trkpt lat="44.53797" lon="1.44457">
        <ele>214.4</ele>
        <time>2022-02-06T15:18:14Z</time>
      </trkpt>
      <trkpt lat="44.53795" lon="1.4445">
        <ele>214.5</ele>
        <time>2022-02-06T15:18:19Z</time>
      </trkpt>
      <trkpt lat="44.53794" lon="1.44443">
        <ele>214.6</ele>
        <time>2022-02-06T15:18:24Z</time>
      </trkpt>
      <trkpt lat="44.53792" lon="1.44437">
        <ele>214.3</ele>
        <time>2022-02-06T15:18:29Z</time>
      </trkpt>
      <trkpt lat="44.5379" lon="1.44431">
        <ele>213.9</ele>
        <time>2022-02-06T15:18:34Z</time>
      </trkpt>
      <trkpt lat="44.53789" lon="1.44424">
        <ele>213.1</ele>
        <time>2022-02-06T15:18:39Z</time>
      </trkpt>
      <trkpt lat="44.53787" lon="1.44417">
        <ele>212.4</ele>
        <time>2022-02-06T15:18:44Z</time>
      </trkpt>
      <trkpt lat="44.53786" lon="1.4441">
        <ele>212.1</ele>
        <time>2022-02-06T15:18:49Z</time>
      </trkpt>
      <trkpt lat="44.53784" lon="1.44404">
        <ele>211.9</ele>
        <time>2022-02-06T15:18:55Z</time>
      </trkpt>
      <trkpt lat="44.53781" lon="1.44398">
        <ele>212.2</ele>
        <time>2022-02-06T15:19:01Z</time>
      </trkpt>
      <trkpt lat="44.5378" lon="1.44392">
        <ele>211.4</ele>
        <time>2022-02-06T15:19:07Z</time>
      </trkpt>
      <trkpt lat="44.5378" lon="1.44385">
        <ele>211.5</ele>
        <time>2022-02-06T15:19:12Z</time>
      </trkpt>
      <trkpt lat="44.53782" lon="1.44379">
        <ele>211.6</ele>
        <time>2022-02-06T15:19:17Z</time>
      </trkpt>
      <trkpt lat="44.53784" lon="1.44372">
        <ele>212.2</ele>
        <time>2022-02-06T15:19:22Z</time>
      </trkpt>
      <trkpt lat="44.53785" lon="1.44366">
        <ele>212.4</ele>
        <time>2022-02-06T15:19:27Z</time>
      </trkpt>
      <trkpt lat="44.53786" lon="1.44359">
        <ele>212.6</ele>
        <time>2022-02-06T15:19:32Z</time>
      </trkpt>
      <trkpt lat="44.53788" lon="1.44353">
        <ele>211.8</ele>
        <time>2022-02-06T15:19:37Z</time>
      </trkpt>
      <trkpt lat="44.53789" lon="1.44345">
        <ele>212</ele>
        <time>2022-02-06T15:19:42Z</time>
      </trkpt>
      <trkpt lat="44.5379" lon="1.44339">
        <ele>212.5</ele>
        <time>2022-02-06T15:19:46Z</time>
      </trkpt>
      <trkpt lat="44.53791" lon="1.44332">
        <ele>211.9</ele>
        <time>2022-02-06T15:19:51Z</time>
      </trkpt>
      <trkpt lat="44.53793" lon="1.44325">
        <ele>210.7</ele>
        <time>2022-02-06T15:19:57Z</time>
      </trkpt>
      <trkpt lat="44.53793" lon="1.44318">
        <ele>209.8</ele>
        <time>2022-02-06T15:20:03Z</time>
      </trkpt>
      <trkpt lat="44.53794" lon="1.44311">
        <ele>209.7</ele>
        <time>2022-02-06T15:20:09Z</time>
      </trkpt>
      <trkpt lat="44.53794" lon="1.44304">
        <ele>209.6</ele>
        <time>2022-02-06T15:20:15Z</time>
      </trkpt>
      <trkpt lat="44.53794" lon="1.44297">
        <ele>210.3</ele>
        <time>2022-02-06T15:20:21Z</time>
      </trkpt>
      <trkpt lat="44.53794" lon="1.4429">
        <ele>210.9</ele>
        <time>2022-02-06T15:20:27Z</time>
      </trkpt>
      <trkpt lat="44.53794" lon="1.44283">
        <ele>211.1</ele>
        <time>2022-02-06T15:20:32Z</time>
      </trkpt>
      <trkpt lat="44.53795" lon="1.44277">
        <ele>210.9</ele>
        <time>2022-02-06T15:20:37Z</time>
      </trkpt>
      <trkpt lat="44.53796" lon="1.4427">
        <ele>210</ele>
        <time>2022-02-06T15:20:43Z</time>
      </trkpt>
      <trkpt lat="44.53796" lon="1.44263">
        <ele>209</ele>
        <time>2022-02-06T15:20:48Z</time>
      </trkpt>
      <trkpt lat="44.53797" lon="1.44255">
        <ele>208.7</ele>
        <time>2022-02-06T15:20:53Z</time>
      </trkpt>
      <trkpt lat="44.53797" lon="1.44247">
        <ele>209.1</ele>
        <time>2022-02-06T15:20:58Z</time>
      </trkpt>
      <trkpt lat="44.53797" lon="1.4424">
        <ele>209.6</ele>
        <time>2022-02-06T15:21:03Z</time>
      </trkpt>
      <trkpt lat="44.53797" lon="1.44233">
        <ele>209.4</ele>
        <time>2022-02-06T15:21:08Z</time>
      </trkpt>
      <trkpt lat="44.53797" lon="1.44226">
        <ele>208.6</ele>
        <time>2022-02-06T15:21:13Z</time>
      </trkpt>
      <trkpt lat="44.53796" lon="1.44219">
        <ele>208.7</ele>
        <time>2022-02-06T15:21:18Z</time>
      </trkpt>
      <trkpt lat="44.53795" lon="1.44213">
        <ele>210.6</ele>
        <time>2022-02-06T15:21:23Z</time>
      </trkpt>
      <trkpt lat="44.53793" lon="1.44207">
        <ele>212.9</ele>
        <time>2022-02-06T15:21:28Z</time>
      </trkpt>
      <trkpt lat="44.53791" lon="1.44201">
        <ele>214.3</ele>
        <time>2022-02-06T15:21:34Z</time>
      </trkpt>
      <trkpt lat="44.53788" lon="1.44194">
        <ele>214.5</ele>
        <time>2022-02-06T15:21:40Z</time>
      </trkpt>
      <trkpt lat="44.53786" lon="1.44188">
        <ele>215.1</ele>
        <time>2022-02-06T15:21:46Z</time>
      </trkpt>
      <trkpt lat="44.53785" lon="1.44181">
        <ele>216.5</ele>
        <time>2022-02-06T15:21:51Z</time>
      </trkpt>
      <trkpt lat="44.53785" lon="1.44174">
        <ele>217.5</ele>
        <time>2022-02-06T15:21:57Z</time>
      </trkpt>
      <trkpt lat="44.53785" lon="1.44167">
        <ele>216.9</ele>
        <time>2022-02-06T15:22:03Z</time>
      </trkpt>
      <trkpt lat="44.53786" lon="1.4416">
        <ele>216.2</ele>
        <time>2022-02-06T15:22:08Z</time>
      </trkpt>
      <trkpt lat="44.53784" lon="1.44154">
        <ele>215.9</ele>
        <time>2022-02-06T15:22:13Z</time>
      </trkpt>
      <trkpt lat="44.53782" lon="1.44147">
        <ele>215.2</ele>
        <time>2022-02-06T15:22:19Z</time>
      </trkpt>
      <trkpt lat="44.53783" lon="1.4414">
        <ele>214.8</ele>
        <time>2022-02-06T15:22:27Z</time>
      </trkpt>
      <trkpt lat="44.53782" lon="1.44133">
        <ele>214</ele>
        <time>2022-02-06T15:22:33Z</time>
      </trkpt>
      <trkpt lat="44.53782" lon="1.44127">
        <ele>212.9</ele>
        <time>2022-02-06T15:22:38Z</time>
      </trkpt>
      <trkpt lat="44.53781" lon="1.4412">
        <ele>211.7</ele>
        <time>2022-02-06T15:22:43Z</time>
      </trkpt>
      <trkpt lat="44.53781" lon="1.44112">
        <ele>210.8</ele>
        <time>2022-02-06T15:22:48Z</time>
      </trkpt>
      <trkpt lat="44.5378" lon="1.44106">
        <ele>209.8</ele>
        <time>2022-02-06T15:22:52Z</time>
      </trkpt>
      <trkpt lat="44.53781" lon="1.44099">
        <ele>209.4</ele>
        <time>2022-02-06T15:22:57Z</time>
      </trkpt>
      <trkpt lat="44.53781" lon="1.44092">
        <ele>208.9</ele>
        <time>2022-02-06T15:23:02Z</time>
      </trkpt>
      <trkpt lat="44.53781" lon="1.44085">
        <ele>207.4</ele>
        <time>2022-02-06T15:23:07Z</time>
      </trkpt>
      <trkpt lat="44.5378" lon="1.44078">
        <ele>206.8</ele>
        <time>2022-02-06T15:23:12Z</time>
      </trkpt>
      <trkpt lat="44.5378" lon="1.44071">
        <ele>206.8</ele>
        <time>2022-02-06T15:23:17Z</time>
      </trkpt>
      <trkpt lat="44.53781" lon="1.44064">
        <ele>207.3</ele>
        <time>2022-02-06T15:23:23Z</time>
      </trkpt>
      <trkpt lat="44.53781" lon="1.44057">
        <ele>207.5</ele>
        <time>2022-02-06T15:23:28Z</time>
      </trkpt>
      <trkpt lat="44.53781" lon="1.4405">
        <ele>207.4</ele>
        <time>2022-02-06T15:23:34Z</time>
      </trkpt>
      <trkpt lat="44.53781" lon="1.44043">
        <ele>207.9</ele>
        <time>2022-02-06T15:23:40Z</time>
      </trkpt>
      <trkpt lat="44.53781" lon="1.44036">
        <ele>207.5</ele>
        <time>2022-02-06T15:23:46Z</time>
      </trkpt>
      <trkpt lat="44.53781" lon="1.44029">
        <ele>206.4</ele>
        <time>2022-02-06T15:23:51Z</time>
      </trkpt>
      <trkpt lat="44.53781" lon="1.44022">
        <ele>206.4</ele>
        <time>2022-02-06T15:23:56Z</time>
      </trkpt>
      <trkpt lat="44.53781" lon="1.44015">
        <ele>206.8</ele>
        <time>2022-02-06T15:24:01Z</time>
      </trkpt>
      <trkpt lat="44.53781" lon="1.44008">
        <ele>207</ele>
        <time>2022-02-06T15:24:06Z</time>
      </trkpt>
      <trkpt lat="44.53782" lon="1.44001">
        <ele>207.2</ele>
        <time>2022-02-06T15:24:11Z</time>
      </trkpt>
      <trkpt lat="44.53781" lon="1.43994">
        <ele>207.7</ele>
        <time>2022-02-06T15:24:16Z</time>
      </trkpt>
      <trkpt lat="44.53782" lon="1.43988">
        <ele>207.2</ele>
        <time>2022-02-06T15:24:21Z</time>
      </trkpt>
      <trkpt lat="44.53783" lon="1.43981">
        <ele>206.4</ele>
        <time>2022-02-06T15:24:26Z</time>
      </trkpt>
      <trkpt lat="44.53783" lon="1.43974">
        <ele>205.8</ele>
        <time>2022-02-06T15:24:32Z</time>
      </trkpt>
      <trkpt lat="44.53785" lon="1.43967">
        <ele>205.3</ele>
        <time>2022-02-06T15:24:38Z</time>
      </trkpt>
      <trkpt lat="44.53786" lon="1.43959">
        <ele>204.5</ele>
        <time>2022-02-06T15:24:44Z</time>
      </trkpt>
      <trkpt lat="44.53787" lon="1.43953">
        <ele>203.9</ele>
        <time>2022-02-06T15:24:49Z</time>
      </trkpt>
      <trkpt lat="44.53787" lon="1.43945">
        <ele>203.2</ele>
        <time>2022-02-06T15:24:55Z</time>
      </trkpt>
      <trkpt lat="44.53787" lon="1.43938">
        <ele>203.4</ele>
        <time>2022-02-06T15:25:00Z</time>
      </trkpt>
      <trkpt lat="44.53788" lon="1.43931">
        <ele>203</ele>
        <time>2022-02-06T15:25:05Z</time>
      </trkpt>
      <trkpt lat="44.53787" lon="1.43923">
        <ele>202.6</ele>
        <time>2022-02-06T15:25:10Z</time>
      </trkpt>
      <trkpt lat="44.53786" lon="1.43917">
        <ele>202.9</ele>
        <time>2022-02-06T15:25:14Z</time>
      </trkpt>
      <trkpt lat="44.53785" lon="1.4391">
        <ele>203.4</ele>
        <time>2022-02-06T15:25:19Z</time>
      </trkpt>
      <trkpt lat="44.53786" lon="1.43903">
        <ele>202.9</ele>
        <time>2022-02-06T15:25:25Z</time>
      </trkpt>
      <trkpt lat="44.53786" lon="1.43895">
        <ele>202.7</ele>
        <time>2022-02-06T15:25:31Z</time>
      </trkpt>
      <trkpt lat="44.53786" lon="1.43888">
        <ele>202.1</ele>
        <time>2022-02-06T15:25:36Z</time>
      </trkpt>
      <trkpt lat="44.53786" lon="1.43881">
        <ele>201.2</ele>
        <time>2022-02-06T15:25:41Z</time>
      </trkpt>
      <trkpt lat="44.53787" lon="1.43873">
        <ele>201</ele>
        <time>2022-02-06T15:25:46Z</time>
      </trkpt>
      <trkpt lat="44.53787" lon="1.43867">
        <ele>201.1</ele>
        <time>2022-02-06T15:25:51Z</time>
      </trkpt>
      <trkpt lat="44.53787" lon="1.4386">
        <ele>200.9</ele>
        <time>2022-02-06T15:25:56Z</time>
      </trkpt>
      <trkpt lat="44.53787" lon="1.43853">
        <ele>200.9</ele>
        <time>2022-02-06T15:26:01Z</time>
      </trkpt>
      <trkpt lat="44.53787" lon="1.43845">
        <ele>200.7</ele>
        <time>2022-02-06T15:26:06Z</time>
      </trkpt>
      <trkpt lat="44.53788" lon="1.43838">
        <ele>201.6</ele>
        <time>2022-02-06T15:26:11Z</time>
      </trkpt>
      <trkpt lat="44.53788" lon="1.43831">
        <ele>202.1</ele>
        <time>2022-02-06T15:26:16Z</time>
      </trkpt>
      <trkpt lat="44.53786" lon="1.43825">
        <ele>203</ele>
        <time>2022-02-06T15:26:20Z</time>
      </trkpt>
      <trkpt lat="44.53787" lon="1.43819">
        <ele>203.3</ele>
        <time>2022-02-06T15:26:25Z</time>
      </trkpt>
      <trkpt lat="44.53789" lon="1.43812">
        <ele>204.1</ele>
        <time>2022-02-06T15:26:31Z</time>
      </trkpt>
      <trkpt lat="44.53789" lon="1.43805">
        <ele>205.5</ele>
        <time>2022-02-06T15:26:37Z</time>
      </trkpt>
      <trkpt lat="44.53785" lon="1.43799">
        <ele>208.6</ele>
        <time>2022-02-06T15:26:43Z</time>
      </trkpt>
      <trkpt lat="44.53784" lon="1.43792">
        <ele>209.3</ele>
        <time>2022-02-06T15:26:47Z</time>
      </trkpt>
      <trkpt lat="44.53782" lon="1.43786">
        <ele>210.4</ele>
        <time>2022-02-06T15:26:58Z</time>
      </trkpt>
      <trkpt lat="44.5378" lon="1.4378">
        <ele>209.4</ele>
        <time>2022-02-06T15:28:57Z</time>
      </trkpt>
      <trkpt lat="44.53779" lon="1.43773">
        <ele>210</ele>
        <time>2022-02-06T15:29:02Z</time>
      </trkpt>
      <trkpt lat="44.53777" lon="1.43767">
        <ele>209.7</ele>
        <time>2022-02-06T15:29:07Z</time>
      </trkpt>
      <trkpt lat="44.53775" lon="1.43761">
        <ele>209.3</ele>
        <time>2022-02-06T15:29:13Z</time>
      </trkpt>
      <trkpt lat="44.53775" lon="1.43754">
        <ele>208.7</ele>
        <time>2022-02-06T15:29:19Z</time>
      </trkpt>
      <trkpt lat="44.53775" lon="1.43747">
        <ele>208.2</ele>
        <time>2022-02-06T15:29:24Z</time>
      </trkpt>
      <trkpt lat="44.53774" lon="1.4374">
        <ele>207.7</ele>
        <time>2022-02-06T15:29:30Z</time>
      </trkpt>
      <trkpt lat="44.53776" lon="1.43734">
        <ele>207.9</ele>
        <time>2022-02-06T15:29:36Z</time>
      </trkpt>
      <trkpt lat="44.53775" lon="1.43728">
        <ele>208.9</ele>
        <time>2022-02-06T15:29:41Z</time>
      </trkpt>
      <trkpt lat="44.53773" lon="1.43721">
        <ele>210</ele>
        <time>2022-02-06T15:29:48Z</time>
      </trkpt>
      <trkpt lat="44.53773" lon="1.43714">
        <ele>210.3</ele>
        <time>2022-02-06T15:29:55Z</time>
      </trkpt>
      <trkpt lat="44.53774" lon="1.43708">
        <ele>210.6</ele>
        <time>2022-02-06T15:30:01Z</time>
      </trkpt>
      <trkpt lat="44.53775" lon="1.43701">
        <ele>209.4</ele>
        <time>2022-02-06T15:30:07Z</time>
      </trkpt>
      <trkpt lat="44.53775" lon="1.43694">
        <ele>208.2</ele>
        <time>2022-02-06T15:30:13Z</time>
      </trkpt>
      <trkpt lat="44.53778" lon="1.43688">
        <ele>207.2</ele>
        <time>2022-02-06T15:30:19Z</time>
      </trkpt>
      <trkpt lat="44.5378" lon="1.43682">
        <ele>205.1</ele>
        <time>2022-02-06T15:30:25Z</time>
      </trkpt>
      <trkpt lat="44.5378" lon="1.43675">
        <ele>203.9</ele>
        <time>2022-02-06T15:30:31Z</time>
      </trkpt>
      <trkpt lat="44.53781" lon="1.43668">
        <ele>203.3</ele>
        <time>2022-02-06T15:30:37Z</time>
      </trkpt>
      <trkpt lat="44.53781" lon="1.43661">
        <ele>202.9</ele>
        <time>2022-02-06T15:30:42Z</time>
      </trkpt>
      <trkpt lat="44.53781" lon="1.43655">
        <ele>202</ele>
        <time>2022-02-06T15:30:48Z</time>
      </trkpt>
      <trkpt lat="44.5378" lon="1.43648">
        <ele>201.4</ele>
        <time>2022-02-06T15:30:54Z</time>
      </trkpt>
      <trkpt lat="44.53779" lon="1.43641">
        <ele>201</ele>
        <time>2022-02-06T15:30:59Z</time>
      </trkpt>
      <trkpt lat="44.53779" lon="1.43633">
        <ele>201.4</ele>
        <time>2022-02-06T15:31:04Z</time>
      </trkpt>
      <trkpt lat="44.53779" lon="1.43626">
        <ele>202.9</ele>
        <time>2022-02-06T15:31:09Z</time>
      </trkpt>
      <trkpt lat="44.53779" lon="1.43619">
        <ele>203.4</ele>
        <time>2022-02-06T15:31:14Z</time>
      </trkpt>
      <trkpt lat="44.53779" lon="1.43613">
        <ele>204.2</ele>
        <time>2022-02-06T15:31:19Z</time>
      </trkpt>
      <trkpt lat="44.53777" lon="1.43607">
        <ele>205.1</ele>
        <time>2022-02-06T15:31:24Z</time>
      </trkpt>
      <trkpt lat="44.53775" lon="1.436">
        <ele>204.2</ele>
        <time>2022-02-06T15:31:30Z</time>
      </trkpt>
      <trkpt lat="44.53774" lon="1.43594">
        <ele>203.9</ele>
        <time>2022-02-06T15:31:35Z</time>
      </trkpt>
      <trkpt lat="44.53774" lon="1.43587">
        <ele>203.9</ele>
        <time>2022-02-06T15:31:41Z</time>
      </trkpt>
      <trkpt lat="44.53776" lon="1.43582">
        <ele>203.8</ele>
        <time>2022-02-06T15:31:47Z</time>
      </trkpt>
      <trkpt lat="44.53779" lon="1.43576">
        <ele>203</ele>
        <time>2022-02-06T15:31:53Z</time>
      </trkpt>
      <trkpt lat="44.5378" lon="1.4357">
        <ele>202.1</ele>
        <time>2022-02-06T15:31:59Z</time>
      </trkpt>
      <trkpt lat="44.53781" lon="1.43563">
        <ele>200.9</ele>
        <time>2022-02-06T15:32:05Z</time>
      </trkpt>
      <trkpt lat="44.53782" lon="1.43556">
        <ele>200.7</ele>
        <time>2022-02-06T15:32:10Z</time>
      </trkpt>
      <trkpt lat="44.53782" lon="1.43549">
        <ele>200.6</ele>
        <time>2022-02-06T15:32:15Z</time>
      </trkpt>
      <trkpt lat="44.53782" lon="1.43542">
        <ele>200.7</ele>
        <time>2022-02-06T15:32:20Z</time>
      </trkpt>
      <trkpt lat="44.53781" lon="1.43535">
        <ele>201.2</ele>
        <time>2022-02-06T15:32:24Z</time>
      </trkpt>
      <trkpt lat="44.5378" lon="1.43528">
        <ele>202.4</ele>
        <time>2022-02-06T15:32:29Z</time>
      </trkpt>
      <trkpt lat="44.5378" lon="1.4352">
        <ele>203.1</ele>
        <time>2022-02-06T15:32:34Z</time>
      </trkpt>
      <trkpt lat="44.53781" lon="1.43514">
        <ele>203.4</ele>
        <time>2022-02-06T15:32:39Z</time>
      </trkpt>
      <trkpt lat="44.53781" lon="1.43507">
        <ele>203.8</ele>
        <time>2022-02-06T15:32:44Z</time>
      </trkpt>
      <trkpt lat="44.53781" lon="1.43501">
        <ele>203.6</ele>
        <time>2022-02-06T15:32:49Z</time>
      </trkpt>
      <trkpt lat="44.5378" lon="1.43494">
        <ele>203</ele>
        <time>2022-02-06T15:32:55Z</time>
      </trkpt>
      <trkpt lat="44.5378" lon="1.43486">
        <ele>203.2</ele>
        <time>2022-02-06T15:33:01Z</time>
      </trkpt>
      <trkpt lat="44.53781" lon="1.43479">
        <ele>202.7</ele>
        <time>2022-02-06T15:33:07Z</time>
      </trkpt>
      <trkpt lat="44.53784" lon="1.43473">
        <ele>201.8</ele>
        <time>2022-02-06T15:33:13Z</time>
      </trkpt>
      <trkpt lat="44.53786" lon="1.43467">
        <ele>200.8</ele>
        <time>2022-02-06T15:33:19Z</time>
      </trkpt>
      <trkpt lat="44.53787" lon="1.4346">
        <ele>201.3</ele>
        <time>2022-02-06T15:33:25Z</time>
      </trkpt>
      <trkpt lat="44.53787" lon="1.43453">
        <ele>202.5</ele>
        <time>2022-02-06T15:33:29Z</time>
      </trkpt>
      <trkpt lat="44.53787" lon="1.43446">
        <ele>202.8</ele>
        <time>2022-02-06T15:33:35Z</time>
      </trkpt>
      <trkpt lat="44.53786" lon="1.43439">
        <ele>203</ele>
        <time>2022-02-06T15:33:41Z</time>
      </trkpt>
      <trkpt lat="44.53786" lon="1.43432">
        <ele>203.1</ele>
        <time>2022-02-06T15:33:47Z</time>
      </trkpt>
      <trkpt lat="44.53787" lon="1.43425">
        <ele>202.3</ele>
        <time>2022-02-06T15:33:53Z</time>
      </trkpt>
      <trkpt lat="44.53787" lon="1.43419">
        <ele>202.3</ele>
        <time>2022-02-06T15:33:58Z</time>
      </trkpt>
      <trkpt lat="44.53788" lon="1.43412">
        <ele>202.9</ele>
        <time>2022-02-06T15:34:03Z</time>
      </trkpt>
      <trkpt lat="44.53787" lon="1.43405">
        <ele>202.9</ele>
        <time>2022-02-06T15:34:08Z</time>
      </trkpt>
      <trkpt lat="44.53788" lon="1.43398">
        <ele>201.7</ele>
        <time>2022-02-06T15:34:15Z</time>
      </trkpt>
      <trkpt lat="44.53789" lon="1.43392">
        <ele>200.3</ele>
        <time>2022-02-06T15:34:22Z</time>
      </trkpt>
      <trkpt lat="44.53789" lon="1.43385">
        <ele>200.8</ele>
        <time>2022-02-06T15:34:28Z</time>
      </trkpt>
      <trkpt lat="44.53788" lon="1.43378">
        <ele>202.6</ele>
        <time>2022-02-06T15:34:34Z</time>
      </trkpt>
      <trkpt lat="44.53788" lon="1.43371">
        <ele>203.9</ele>
        <time>2022-02-06T15:34:40Z</time>
      </trkpt>
      <trkpt lat="44.53788" lon="1.43364">
        <ele>204.4</ele>
        <time>2022-02-06T15:34:45Z</time>
      </trkpt>
      <trkpt lat="44.5379" lon="1.43358">
        <ele>203.6</ele>
        <time>2022-02-06T15:34:51Z</time>
      </trkpt>
      <trkpt lat="44.53791" lon="1.4335">
        <ele>203.3</ele>
        <time>2022-02-06T15:34:57Z</time>
      </trkpt>
      <trkpt lat="44.53792" lon="1.43343">
        <ele>203.9</ele>
        <time>2022-02-06T15:35:03Z</time>
      </trkpt>
      <trkpt lat="44.53794" lon="1.43337">
        <ele>203.8</ele>
        <time>2022-02-06T15:35:10Z</time>
      </trkpt>
      <trkpt lat="44.53796" lon="1.43331">
        <ele>203.2</ele>
        <time>2022-02-06T15:35:17Z</time>
      </trkpt>
      <trkpt lat="44.53797" lon="1.43324">
        <ele>203.5</ele>
        <time>2022-02-06T15:35:24Z</time>
      </trkpt>
      <trkpt lat="44.53797" lon="1.43317">
        <ele>204</ele>
        <time>2022-02-06T15:35:29Z</time>
      </trkpt>
      <trkpt lat="44.53798" lon="1.43311">
        <ele>203.2</ele>
        <time>2022-02-06T15:35:35Z</time>
      </trkpt>
      <trkpt lat="44.538" lon="1.43305">
        <ele>202.2</ele>
        <time>2022-02-06T15:35:40Z</time>
      </trkpt>
      <trkpt lat="44.53801" lon="1.43299">
        <ele>201.2</ele>
        <time>2022-02-06T15:35:45Z</time>
      </trkpt>
      <trkpt lat="44.53802" lon="1.43293">
        <ele>199.5</ele>
        <time>2022-02-06T15:35:53Z</time>
      </trkpt>
      <trkpt lat="44.53804" lon="1.43286">
        <ele>198.9</ele>
        <time>2022-02-06T15:35:59Z</time>
      </trkpt>
      <trkpt lat="44.53805" lon="1.4328">
        <ele>198.3</ele>
        <time>2022-02-06T15:36:05Z</time>
      </trkpt>
      <trkpt lat="44.53806" lon="1.43273">
        <ele>198.3</ele>
        <time>2022-02-06T15:36:11Z</time>
      </trkpt>
      <trkpt lat="44.53808" lon="1.43266">
        <ele>197.8</ele>
        <time>2022-02-06T15:36:17Z</time>
      </trkpt>
      <trkpt lat="44.53808" lon="1.43259">
        <ele>197.7</ele>
        <time>2022-02-06T15:36:23Z</time>
      </trkpt>
      <trkpt lat="44.53809" lon="1.43252">
        <ele>198.2</ele>
        <time>2022-02-06T15:36:28Z</time>
      </trkpt>
      <trkpt lat="44.5381" lon="1.43245">
        <ele>198.6</ele>
        <time>2022-02-06T15:36:33Z</time>
      </trkpt>
      <trkpt lat="44.53811" lon="1.43238">
        <ele>199.5</ele>
        <time>2022-02-06T15:36:39Z</time>
      </trkpt>
      <trkpt lat="44.53812" lon="1.43231">
        <ele>199.9</ele>
        <time>2022-02-06T15:36:45Z</time>
      </trkpt>
      <trkpt lat="44.53813" lon="1.43225">
        <ele>199.6</ele>
        <time>2022-02-06T15:36:50Z</time>
      </trkpt>
      <trkpt lat="44.53816" lon="1.43219">
        <ele>199.2</ele>
        <time>2022-02-06T15:36:56Z</time>
      </trkpt>
      <trkpt lat="44.53819" lon="1.43212">
        <ele>198.5</ele>
        <time>2022-02-06T15:37:02Z</time>
      </trkpt>
      <trkpt lat="44.53821" lon="1.43207">
        <ele>197.5</ele>
        <time>2022-02-06T15:37:07Z</time>
      </trkpt>
      <trkpt lat="44.53821" lon="1.43199">
        <ele>197.2</ele>
        <time>2022-02-06T15:37:12Z</time>
      </trkpt>
      <trkpt lat="44.53821" lon="1.43192">
        <ele>197.4</ele>
        <time>2022-02-06T15:37:17Z</time>
      </trkpt>
      <trkpt lat="44.53822" lon="1.43185">
        <ele>197.8</ele>
        <time>2022-02-06T15:37:22Z</time>
      </trkpt>
      <trkpt lat="44.53823" lon="1.43178">
        <ele>198</ele>
        <time>2022-02-06T15:37:26Z</time>
      </trkpt>
      <trkpt lat="44.53824" lon="1.43171">
        <ele>197.7</ele>
        <time>2022-02-06T15:37:32Z</time>
      </trkpt>
      <trkpt lat="44.53824" lon="1.43164">
        <ele>197.5</ele>
        <time>2022-02-06T15:37:38Z</time>
      </trkpt>
      <trkpt lat="44.53824" lon="1.43157">
        <ele>197.3</ele>
        <time>2022-02-06T15:37:44Z</time>
      </trkpt>
      <trkpt lat="44.53824" lon="1.4315">
        <ele>197.1</ele>
        <time>2022-02-06T15:37:50Z</time>
      </trkpt>
      <trkpt lat="44.53825" lon="1.43143">
        <ele>196.9</ele>
        <time>2022-02-06T15:37:56Z</time>
      </trkpt>
      <trkpt lat="44.53826" lon="1.43135">
        <ele>197.7</ele>
        <time>2022-02-06T15:38:02Z</time>
      </trkpt>
      <trkpt lat="44.53826" lon="1.43128">
        <ele>197.4</ele>
        <time>2022-02-06T15:38:09Z</time>
      </trkpt>
      <trkpt lat="44.53825" lon="1.43122">
        <ele>196.9</ele>
        <time>2022-02-06T15:38:15Z</time>
      </trkpt>
      <trkpt lat="44.53826" lon="1.43115">
        <ele>196.3</ele>
        <time>2022-02-06T15:38:22Z</time>
      </trkpt>
      <trkpt lat="44.53825" lon="1.43109">
        <ele>195.8</ele>
        <time>2022-02-06T15:38:28Z</time>
      </trkpt>
      <trkpt lat="44.53827" lon="1.43102">
        <ele>195.2</ele>
        <time>2022-02-06T15:38:34Z</time>
      </trkpt>
      <trkpt lat="44.53828" lon="1.43095">
        <ele>195.7</ele>
        <time>2022-02-06T15:38:40Z</time>
      </trkpt>
      <trkpt lat="44.53829" lon="1.43088">
        <ele>196.7</ele>
        <time>2022-02-06T15:38:46Z</time>
      </trkpt>
      <trkpt lat="44.53831" lon="1.43081">
        <ele>196.5</ele>
        <time>2022-02-06T15:38:53Z</time>
      </trkpt>
      <trkpt lat="44.53833" lon="1.43075">
        <ele>195.7</ele>
        <time>2022-02-06T15:38:59Z</time>
      </trkpt>
      <trkpt lat="44.53835" lon="1.43069">
        <ele>195.7</ele>
        <time>2022-02-06T15:39:05Z</time>
      </trkpt>
      <trkpt lat="44.53837" lon="1.43063">
        <ele>195</ele>
        <time>2022-02-06T15:39:12Z</time>
      </trkpt>
      <trkpt lat="44.53838" lon="1.43056">
        <ele>195</ele>
        <time>2022-02-06T15:39:18Z</time>
      </trkpt>
      <trkpt lat="44.5384" lon="1.4305">
        <ele>194.3</ele>
        <time>2022-02-06T15:39:24Z</time>
      </trkpt>
      <trkpt lat="44.53842" lon="1.43044">
        <ele>194</ele>
        <time>2022-02-06T15:39:30Z</time>
      </trkpt>
      <trkpt lat="44.53845" lon="1.43038">
        <ele>193.6</ele>
        <time>2022-02-06T15:39:36Z</time>
      </trkpt>
      <trkpt lat="44.53848" lon="1.43032">
        <ele>192.8</ele>
        <time>2022-02-06T15:39:42Z</time>
      </trkpt>
      <trkpt lat="44.5385" lon="1.43026">
        <ele>192.3</ele>
        <time>2022-02-06T15:39:49Z</time>
      </trkpt>
      <trkpt lat="44.53852" lon="1.43019">
        <ele>191.8</ele>
        <time>2022-02-06T15:39:55Z</time>
      </trkpt>
      <trkpt lat="44.53854" lon="1.43013">
        <ele>191.4</ele>
        <time>2022-02-06T15:40:01Z</time>
      </trkpt>
      <trkpt lat="44.53855" lon="1.43006">
        <ele>190.6</ele>
        <time>2022-02-06T15:40:07Z</time>
      </trkpt>
      <trkpt lat="44.53857" lon="1.43">
        <ele>190.8</ele>
        <time>2022-02-06T15:40:13Z</time>
      </trkpt>
      <trkpt lat="44.5386" lon="1.42993">
        <ele>190.3</ele>
        <time>2022-02-06T15:40:19Z</time>
      </trkpt>
      <trkpt lat="44.53861" lon="1.42987">
        <ele>191.1</ele>
        <time>2022-02-06T15:40:26Z</time>
      </trkpt>
      <trkpt lat="44.53863" lon="1.4298">
        <ele>191.5</ele>
        <time>2022-02-06T15:40:32Z</time>
      </trkpt>
      <trkpt lat="44.53866" lon="1.42974">
        <ele>191.6</ele>
        <time>2022-02-06T15:40:38Z</time>
      </trkpt>
      <trkpt lat="44.53869" lon="1.42968">
        <ele>191.6</ele>
        <time>2022-02-06T15:40:43Z</time>
      </trkpt>
      <trkpt lat="44.53873" lon="1.42962">
        <ele>191.6</ele>
        <time>2022-02-06T15:40:48Z</time>
      </trkpt>
      <trkpt lat="44.53875" lon="1.42956">
        <ele>191.7</ele>
        <time>2022-02-06T15:40:52Z</time>
      </trkpt>
      <trkpt lat="44.53877" lon="1.4295">
        <ele>192.4</ele>
        <time>2022-02-06T15:40:57Z</time>
      </trkpt>
      <trkpt lat="44.5388" lon="1.42944">
        <ele>193.4</ele>
        <time>2022-02-06T15:41:02Z</time>
      </trkpt>
      <trkpt lat="44.53883" lon="1.42938">
        <ele>194.6</ele>
        <time>2022-02-06T15:41:07Z</time>
      </trkpt>
      <trkpt lat="44.53884" lon="1.42932">
        <ele>194.8</ele>
        <time>2022-02-06T15:41:13Z</time>
      </trkpt>
      <trkpt lat="44.53885" lon="1.42925">
        <ele>194.3</ele>
        <time>2022-02-06T15:41:19Z</time>
      </trkpt>
      <trkpt lat="44.53885" lon="1.42918">
        <ele>194</ele>
        <time>2022-02-06T15:41:24Z</time>
      </trkpt>
      <trkpt lat="44.53885" lon="1.42911">
        <ele>193.8</ele>
        <time>2022-02-06T15:41:29Z</time>
      </trkpt>
      <trkpt lat="44.53885" lon="1.42904">
        <ele>193.2</ele>
        <time>2022-02-06T15:41:35Z</time>
      </trkpt>
      <trkpt lat="44.53887" lon="1.42897">
        <ele>192.5</ele>
        <time>2022-02-06T15:41:41Z</time>
      </trkpt>
      <trkpt lat="44.53888" lon="1.42891">
        <ele>191.3</ele>
        <time>2022-02-06T15:41:46Z</time>
      </trkpt>
      <trkpt lat="44.5389" lon="1.42884">
        <ele>190.9</ele>
        <time>2022-02-06T15:41:51Z</time>
      </trkpt>
      <trkpt lat="44.53891" lon="1.42877">
        <ele>191</ele>
        <time>2022-02-06T15:41:56Z</time>
      </trkpt>
      <trkpt lat="44.53893" lon="1.42871">
        <ele>190.5</ele>
        <time>2022-02-06T15:42:01Z</time>
      </trkpt>
      <trkpt lat="44.53895" lon="1.42865">
        <ele>189.8</ele>
        <time>2022-02-06T15:42:06Z</time>
      </trkpt>
      <trkpt lat="44.53897" lon="1.42858">
        <ele>189.6</ele>
        <time>2022-02-06T15:42:11Z</time>
      </trkpt>
      <trkpt lat="44.53899" lon="1.42852">
        <ele>188.6</ele>
        <time>2022-02-06T15:42:17Z</time>
      </trkpt>
      <trkpt lat="44.53902" lon="1.42846">
        <ele>187.9</ele>
        <time>2022-02-06T15:42:22Z</time>
      </trkpt>
      <trkpt lat="44.53904" lon="1.42839">
        <ele>188</ele>
        <time>2022-02-06T15:42:27Z</time>
      </trkpt>
      <trkpt lat="44.53908" lon="1.42833">
        <ele>188.1</ele>
        <time>2022-02-06T15:42:32Z</time>
      </trkpt>
      <trkpt lat="44.53911" lon="1.42827">
        <ele>188.1</ele>
        <time>2022-02-06T15:42:37Z</time>
      </trkpt>
      <trkpt lat="44.53914" lon="1.42821">
        <ele>188.1</ele>
        <time>2022-02-06T15:42:42Z</time>
      </trkpt>
      <trkpt lat="44.53918" lon="1.42816">
        <ele>187.9</ele>
        <time>2022-02-06T15:42:47Z</time>
      </trkpt>
      <trkpt lat="44.53921" lon="1.4281">
        <ele>187.4</ele>
        <time>2022-02-06T15:42:52Z</time>
      </trkpt>
      <trkpt lat="44.53923" lon="1.42804">
        <ele>186.8</ele>
        <time>2022-02-06T15:42:57Z</time>
      </trkpt>
      <trkpt lat="44.53926" lon="1.42798">
        <ele>186.5</ele>
        <time>2022-02-06T15:43:02Z</time>
      </trkpt>
      <trkpt lat="44.53929" lon="1.42793">
        <ele>186</ele>
        <time>2022-02-06T15:43:07Z</time>
      </trkpt>
      <trkpt lat="44.53933" lon="1.42788">
        <ele>185.6</ele>
        <time>2022-02-06T15:43:12Z</time>
      </trkpt>
      <trkpt lat="44.53935" lon="1.42783">
        <ele>185.8</ele>
        <time>2022-02-06T15:43:17Z</time>
      </trkpt>
      <trkpt lat="44.53938" lon="1.42777">
        <ele>186.1</ele>
        <time>2022-02-06T15:43:22Z</time>
      </trkpt>
      <trkpt lat="44.5394" lon="1.42771">
        <ele>186.2</ele>
        <time>2022-02-06T15:43:27Z</time>
      </trkpt>
      <trkpt lat="44.53941" lon="1.42764">
        <ele>185.9</ele>
        <time>2022-02-06T15:43:32Z</time>
      </trkpt>
      <trkpt lat="44.53942" lon="1.42757">
        <ele>186.2</ele>
        <time>2022-02-06T15:43:37Z</time>
      </trkpt>
      <trkpt lat="44.53938" lon="1.42753">
        <ele>187.6</ele>
        <time>2022-02-06T15:44:19Z</time>
      </trkpt>
      <trkpt lat="44.53935" lon="1.42748">
        <ele>187.8</ele>
        <time>2022-02-06T15:45:41Z</time>
      </trkpt>
      <trkpt lat="44.53936" lon="1.42741">
        <ele>188</ele>
        <time>2022-02-06T15:45:47Z</time>
      </trkpt>
      <trkpt lat="44.53938" lon="1.42735">
        <ele>187.7</ele>
        <time>2022-02-06T15:45:52Z</time>
      </trkpt>
      <trkpt lat="44.53941" lon="1.42728">
        <ele>187.6</ele>
        <time>2022-02-06T15:45:57Z</time>
      </trkpt>
      <trkpt lat="44.53943" lon="1.42722">
        <ele>187.1</ele>
        <time>2022-02-06T15:46:02Z</time>
      </trkpt>
      <trkpt lat="44.53946" lon="1.42716">
        <ele>186.6</ele>
        <time>2022-02-06T15:46:07Z</time>
      </trkpt>
      <trkpt lat="44.53948" lon="1.42709">
        <ele>186</ele>
        <time>2022-02-06T15:46:12Z</time>
      </trkpt>
      <trkpt lat="44.53949" lon="1.42703">
        <ele>185.9</ele>
        <time>2022-02-06T15:46:17Z</time>
      </trkpt>
      <trkpt lat="44.53951" lon="1.42697">
        <ele>186</ele>
        <time>2022-02-06T15:46:22Z</time>
      </trkpt>
      <trkpt lat="44.53953" lon="1.4269">
        <ele>185.8</ele>
        <time>2022-02-06T15:46:27Z</time>
      </trkpt>
      <trkpt lat="44.53954" lon="1.42683">
        <ele>185.5</ele>
        <time>2022-02-06T15:46:32Z</time>
      </trkpt>
      <trkpt lat="44.53956" lon="1.42677">
        <ele>185.3</ele>
        <time>2022-02-06T15:46:36Z</time>
      </trkpt>
      <trkpt lat="44.53957" lon="1.4267">
        <ele>185.4</ele>
        <time>2022-02-06T15:46:40Z</time>
      </trkpt>
      <trkpt lat="44.53958" lon="1.42663">
        <ele>185.5</ele>
        <time>2022-02-06T15:46:45Z</time>
      </trkpt>
      <trkpt lat="44.53959" lon="1.42655">
        <ele>185.1</ele>
        <time>2022-02-06T15:46:50Z</time>
      </trkpt>
      <trkpt lat="44.5396" lon="1.42647">
        <ele>185.2</ele>
        <time>2022-02-06T15:46:55Z</time>
      </trkpt>
      <trkpt lat="44.5396" lon="1.4264">
        <ele>185.6</ele>
        <time>2022-02-06T15:47:00Z</time>
      </trkpt>
      <trkpt lat="44.53961" lon="1.42633">
        <ele>185.9</ele>
        <time>2022-02-06T15:47:05Z</time>
      </trkpt>
      <trkpt lat="44.53962" lon="1.42625">
        <ele>185.8</ele>
        <time>2022-02-06T15:47:10Z</time>
      </trkpt>
      <trkpt lat="44.53962" lon="1.42618">
        <ele>185.2</ele>
        <time>2022-02-06T15:47:14Z</time>
      </trkpt>
      <trkpt lat="44.53962" lon="1.42612">
        <ele>184.5</ele>
        <time>2022-02-06T15:47:18Z</time>
      </trkpt>
      <trkpt lat="44.53963" lon="1.42605">
        <ele>183.7</ele>
        <time>2022-02-06T15:47:23Z</time>
      </trkpt>
      <trkpt lat="44.53964" lon="1.42597">
        <ele>183.5</ele>
        <time>2022-02-06T15:47:28Z</time>
      </trkpt>
      <trkpt lat="44.53964" lon="1.4259">
        <ele>183.4</ele>
        <time>2022-02-06T15:47:32Z</time>
      </trkpt>
      <trkpt lat="44.53966" lon="1.42583">
        <ele>183.4</ele>
        <time>2022-02-06T15:47:36Z</time>
      </trkpt>
      <trkpt lat="44.53967" lon="1.42576">
        <ele>183</ele>
        <time>2022-02-06T15:47:41Z</time>
      </trkpt>
      <trkpt lat="44.53971" lon="1.42571">
        <ele>182.2</ele>
        <time>2022-02-06T15:47:46Z</time>
      </trkpt>
      <trkpt lat="44.53975" lon="1.42565">
        <ele>181.9</ele>
        <time>2022-02-06T15:47:51Z</time>
      </trkpt>
      <trkpt lat="44.53978" lon="1.4256">
        <ele>180.9</ele>
        <time>2022-02-06T15:47:55Z</time>
      </trkpt>
      <trkpt lat="44.5398" lon="1.42555">
        <ele>179.7</ele>
        <time>2022-02-06T15:47:59Z</time>
      </trkpt>
      <trkpt lat="44.53983" lon="1.4255">
        <ele>179</ele>
        <time>2022-02-06T15:48:03Z</time>
      </trkpt>
      <trkpt lat="44.53987" lon="1.42546">
        <ele>179</ele>
        <time>2022-02-06T15:48:07Z</time>
      </trkpt>
      <trkpt lat="44.5399" lon="1.4254">
        <ele>178.4</ele>
        <time>2022-02-06T15:48:12Z</time>
      </trkpt>
      <trkpt lat="44.53992" lon="1.42534">
        <ele>178.1</ele>
        <time>2022-02-06T15:48:16Z</time>
      </trkpt>
      <trkpt lat="44.53994" lon="1.42526">
        <ele>178.4</ele>
        <time>2022-02-06T15:48:20Z</time>
      </trkpt>
      <trkpt lat="44.53996" lon="1.42519">
        <ele>178.4</ele>
        <time>2022-02-06T15:48:24Z</time>
      </trkpt>
      <trkpt lat="44.53999" lon="1.42512">
        <ele>177.7</ele>
        <time>2022-02-06T15:48:29Z</time>
      </trkpt>
      <trkpt lat="44.54" lon="1.42504">
        <ele>177.7</ele>
        <time>2022-02-06T15:48:34Z</time>
      </trkpt>
      <trkpt lat="44.54002" lon="1.42498">
        <ele>178.3</ele>
        <time>2022-02-06T15:48:39Z</time>
      </trkpt>
      <trkpt lat="44.54004" lon="1.42491">
        <ele>179</ele>
        <time>2022-02-06T15:48:44Z</time>
      </trkpt>
      <trkpt lat="44.54006" lon="1.42485">
        <ele>179.9</ele>
        <time>2022-02-06T15:49:01Z</time>
      </trkpt>
      <trkpt lat="44.54004" lon="1.42478">
        <ele>181.2</ele>
        <time>2022-02-06T15:49:08Z</time>
      </trkpt>
      <trkpt lat="44.54004" lon="1.42472">
        <ele>182.7</ele>
        <time>2022-02-06T15:49:13Z</time>
      </trkpt>
      <trkpt lat="44.54005" lon="1.42465">
        <ele>183.5</ele>
        <time>2022-02-06T15:49:19Z</time>
      </trkpt>
      <trkpt lat="44.54007" lon="1.42459">
        <ele>183.9</ele>
        <time>2022-02-06T15:49:25Z</time>
      </trkpt>
      <trkpt lat="44.54008" lon="1.42453">
        <ele>184.3</ele>
        <time>2022-02-06T15:49:30Z</time>
      </trkpt>
      <trkpt lat="44.5401" lon="1.42446">
        <ele>184</ele>
        <time>2022-02-06T15:49:36Z</time>
      </trkpt>
      <trkpt lat="44.54012" lon="1.4244">
        <ele>183.5</ele>
        <time>2022-02-06T15:49:41Z</time>
      </trkpt>
      <trkpt lat="44.54014" lon="1.42433">
        <ele>182.9</ele>
        <time>2022-02-06T15:49:46Z</time>
      </trkpt>
      <trkpt lat="44.54017" lon="1.42429">
        <ele>182.4</ele>
        <time>2022-02-06T15:49:51Z</time>
      </trkpt>
      <trkpt lat="44.5402" lon="1.42424">
        <ele>181.9</ele>
        <time>2022-02-06T15:49:56Z</time>
      </trkpt>
      <trkpt lat="44.54024" lon="1.4242">
        <ele>181.5</ele>
        <time>2022-02-06T15:50:01Z</time>
      </trkpt>
      <trkpt lat="44.54029" lon="1.42417">
        <ele>181.1</ele>
        <time>2022-02-06T15:50:06Z</time>
      </trkpt>
      <trkpt lat="44.54033" lon="1.42414">
        <ele>180.5</ele>
        <time>2022-02-06T15:50:11Z</time>
      </trkpt>
      <trkpt lat="44.54038" lon="1.4241">
        <ele>180.2</ele>
        <time>2022-02-06T15:50:16Z</time>
      </trkpt>
      <trkpt lat="44.54041" lon="1.42405">
        <ele>180</ele>
        <time>2022-02-06T15:50:21Z</time>
      </trkpt>
      <trkpt lat="44.54044" lon="1.424">
        <ele>180.1</ele>
        <time>2022-02-06T15:50:26Z</time>
      </trkpt>
      <trkpt lat="44.54045" lon="1.42392">
        <ele>181.5</ele>
        <time>2022-02-06T15:50:31Z</time>
      </trkpt>
      <trkpt lat="44.54045" lon="1.42386">
        <ele>183.1</ele>
        <time>2022-02-06T15:50:35Z</time>
      </trkpt>
      <trkpt lat="44.54046" lon="1.42379">
        <ele>184.8</ele>
        <time>2022-02-06T15:50:40Z</time>
      </trkpt>
      <trkpt lat="44.5405" lon="1.42383">
        <ele>186.2</ele>
        <time>2022-02-06T15:51:52Z</time>
      </trkpt>
      <trkpt lat="44.54052" lon="1.42389">
        <ele>185.7</ele>
        <time>2022-02-06T15:51:56Z</time>
      </trkpt>
      <trkpt lat="44.54054" lon="1.42396">
        <ele>185</ele>
        <time>2022-02-06T15:52:01Z</time>
      </trkpt>
      <trkpt lat="44.54056" lon="1.42403">
        <ele>184.4</ele>
        <time>2022-02-06T15:52:06Z</time>
      </trkpt>
      <trkpt lat="44.54057" lon="1.4241">
        <ele>183.3</ele>
        <time>2022-02-06T15:52:11Z</time>
      </trkpt>
      <trkpt lat="44.54059" lon="1.42415">
        <ele>182.9</ele>
        <time>2022-02-06T15:52:15Z</time>
      </trkpt>
      <trkpt lat="44.54061" lon="1.42421">
        <ele>182.4</ele>
        <time>2022-02-06T15:52:19Z</time>
      </trkpt>
      <trkpt lat="44.54064" lon="1.42428">
        <ele>182.2</ele>
        <time>2022-02-06T15:52:24Z</time>
      </trkpt>
      <trkpt lat="44.54066" lon="1.42434">
        <ele>181.4</ele>
        <time>2022-02-06T15:52:28Z</time>
      </trkpt>
      <trkpt lat="44.54068" lon="1.4244">
        <ele>181.5</ele>
        <time>2022-02-06T15:52:32Z</time>
      </trkpt>
      <trkpt lat="44.5407" lon="1.42446">
        <ele>182.1</ele>
        <time>2022-02-06T15:52:36Z</time>
      </trkpt>
      <trkpt lat="44.54073" lon="1.42452">
        <ele>182.6</ele>
        <time>2022-02-06T15:52:40Z</time>
      </trkpt>
      <trkpt lat="44.54075" lon="1.42458">
        <ele>182.6</ele>
        <time>2022-02-06T15:52:44Z</time>
      </trkpt>
      <trkpt lat="44.54077" lon="1.42464">
        <ele>182.1</ele>
        <time>2022-02-06T15:52:48Z</time>
      </trkpt>
      <trkpt lat="44.54079" lon="1.4247">
        <ele>182.3</ele>
        <time>2022-02-06T15:52:52Z</time>
      </trkpt>
      <trkpt lat="44.54082" lon="1.42476">
        <ele>182.7</ele>
        <time>2022-02-06T15:52:56Z</time>
      </trkpt>
      <trkpt lat="44.54085" lon="1.42482">
        <ele>183.3</ele>
        <time>2022-02-06T15:53:00Z</time>
      </trkpt>
      <trkpt lat="44.54087" lon="1.42487">
        <ele>183.9</ele>
        <time>2022-02-06T15:53:04Z</time>
      </trkpt>
      <trkpt lat="44.54089" lon="1.42494">
        <ele>184.2</ele>
        <time>2022-02-06T15:53:09Z</time>
      </trkpt>
      <trkpt lat="44.54091" lon="1.425">
        <ele>184.2</ele>
        <time>2022-02-06T15:53:13Z</time>
      </trkpt>
      <trkpt lat="44.54093" lon="1.42506">
        <ele>184</ele>
        <time>2022-02-06T15:53:17Z</time>
      </trkpt>
      <trkpt lat="44.54096" lon="1.42511">
        <ele>183.7</ele>
        <time>2022-02-06T15:53:22Z</time>
      </trkpt>
      <trkpt lat="44.54099" lon="1.42517">
        <ele>184.3</ele>
        <time>2022-02-06T15:53:26Z</time>
      </trkpt>
      <trkpt lat="44.54103" lon="1.42522">
        <ele>185</ele>
        <time>2022-02-06T15:53:30Z</time>
      </trkpt>
      <trkpt lat="44.54106" lon="1.42527">
        <ele>185.7</ele>
        <time>2022-02-06T15:53:34Z</time>
      </trkpt>
      <trkpt lat="44.54108" lon="1.42532">
        <ele>186.3</ele>
        <time>2022-02-06T15:53:38Z</time>
      </trkpt>
      <trkpt lat="44.54111" lon="1.42537">
        <ele>186.9</ele>
        <time>2022-02-06T15:53:42Z</time>
      </trkpt>
      <trkpt lat="44.54115" lon="1.42543">
        <ele>187.5</ele>
        <time>2022-02-06T15:53:47Z</time>
      </trkpt>
      <trkpt lat="44.54118" lon="1.42549">
        <ele>187.8</ele>
        <time>2022-02-06T15:53:52Z</time>
      </trkpt>
      <trkpt lat="44.5412" lon="1.42556">
        <ele>187.9</ele>
        <time>2022-02-06T15:53:56Z</time>
      </trkpt>
      <trkpt lat="44.54123" lon="1.42561">
        <ele>188.4</ele>
        <time>2022-02-06T15:54:00Z</time>
      </trkpt>
      <trkpt lat="44.54124" lon="1.42567">
        <ele>188.2</ele>
        <time>2022-02-06T15:54:04Z</time>
      </trkpt>
      <trkpt lat="44.54126" lon="1.42573">
        <ele>188.4</ele>
        <time>2022-02-06T15:54:08Z</time>
      </trkpt>
      <trkpt lat="44.54128" lon="1.42579">
        <ele>188.7</ele>
        <time>2022-02-06T15:54:12Z</time>
      </trkpt>
      <trkpt lat="44.5413" lon="1.42586">
        <ele>189.2</ele>
        <time>2022-02-06T15:54:18Z</time>
      </trkpt>
      <trkpt lat="44.54131" lon="1.42592">
        <ele>188.9</ele>
        <time>2022-02-06T15:54:23Z</time>
      </trkpt>
      <trkpt lat="44.54133" lon="1.42599">
        <ele>188.4</ele>
        <time>2022-02-06T15:54:28Z</time>
      </trkpt>
      <trkpt lat="44.54135" lon="1.42606">
        <ele>188</ele>
        <time>2022-02-06T15:54:33Z</time>
      </trkpt>
      <trkpt lat="44.54138" lon="1.42612">
        <ele>188.1</ele>
        <time>2022-02-06T15:54:38Z</time>
      </trkpt>
      <trkpt lat="44.54141" lon="1.42618">
        <ele>188.1</ele>
        <time>2022-02-06T15:54:43Z</time>
      </trkpt>
      <trkpt lat="44.54143" lon="1.42624">
        <ele>187.8</ele>
        <time>2022-02-06T15:54:47Z</time>
      </trkpt>
      <trkpt lat="44.54145" lon="1.42631">
        <ele>187.6</ele>
        <time>2022-02-06T15:54:52Z</time>
      </trkpt>
      <trkpt lat="44.54148" lon="1.42636">
        <ele>187.5</ele>
        <time>2022-02-06T15:54:57Z</time>
      </trkpt>
      <trkpt lat="44.54152" lon="1.42641">
        <ele>187.4</ele>
        <time>2022-02-06T15:55:01Z</time>
      </trkpt>
      <trkpt lat="44.54155" lon="1.42646">
        <ele>187.4</ele>
        <time>2022-02-06T15:55:05Z</time>
      </trkpt>
      <trkpt lat="44.54158" lon="1.42652">
        <ele>187.3</ele>
        <time>2022-02-06T15:55:10Z</time>
      </trkpt>
      <trkpt lat="44.5416" lon="1.42657">
        <ele>187.5</ele>
        <time>2022-02-06T15:55:14Z</time>
      </trkpt>
      <trkpt lat="44.54163" lon="1.42664">
        <ele>188.1</ele>
        <time>2022-02-06T15:55:19Z</time>
      </trkpt>
      <trkpt lat="44.54165" lon="1.4267">
        <ele>188.4</ele>
        <time>2022-02-06T15:55:24Z</time>
      </trkpt>
      <trkpt lat="44.54169" lon="1.42676">
        <ele>188.1</ele>
        <time>2022-02-06T15:55:29Z</time>
      </trkpt>
      <trkpt lat="44.54171" lon="1.42683">
        <ele>187.7</ele>
        <time>2022-02-06T15:55:34Z</time>
      </trkpt>
      <trkpt lat="44.54173" lon="1.4269">
        <ele>187.8</ele>
        <time>2022-02-06T15:55:39Z</time>
      </trkpt>
      <trkpt lat="44.54176" lon="1.42696">
        <ele>188.5</ele>
        <time>2022-02-06T15:55:43Z</time>
      </trkpt>
      <trkpt lat="44.54178" lon="1.42702">
        <ele>189.2</ele>
        <time>2022-02-06T15:55:47Z</time>
      </trkpt>
      <trkpt lat="44.54179" lon="1.42708">
        <ele>189.8</ele>
        <time>2022-02-06T15:55:51Z</time>
      </trkpt>
      <trkpt lat="44.54181" lon="1.42715">
        <ele>190.5</ele>
        <time>2022-02-06T15:55:55Z</time>
      </trkpt>
      <trkpt lat="44.54183" lon="1.42721">
        <ele>190.6</ele>
        <time>2022-02-06T15:55:59Z</time>
      </trkpt>
      <trkpt lat="44.54185" lon="1.42727">
        <ele>190.8</ele>
        <time>2022-02-06T15:56:03Z</time>
      </trkpt>
      <trkpt lat="44.54187" lon="1.42734">
        <ele>191</ele>
        <time>2022-02-06T15:56:08Z</time>
      </trkpt>
      <trkpt lat="44.5419" lon="1.4274">
        <ele>191.1</ele>
        <time>2022-02-06T15:56:13Z</time>
      </trkpt>
      <trkpt lat="44.54192" lon="1.42747">
        <ele>191.3</ele>
        <time>2022-02-06T15:56:18Z</time>
      </trkpt>
      <trkpt lat="44.54194" lon="1.42754">
        <ele>191.4</ele>
        <time>2022-02-06T15:56:23Z</time>
      </trkpt>
      <trkpt lat="44.54196" lon="1.42759">
        <ele>191.4</ele>
        <time>2022-02-06T15:56:28Z</time>
      </trkpt>
      <trkpt lat="44.54199" lon="1.42765">
        <ele>191.1</ele>
        <time>2022-02-06T15:56:33Z</time>
      </trkpt>
      <trkpt lat="44.54202" lon="1.42772">
        <ele>190.6</ele>
        <time>2022-02-06T15:56:38Z</time>
      </trkpt>
      <trkpt lat="44.54203" lon="1.42779">
        <ele>189.8</ele>
        <time>2022-02-06T15:56:43Z</time>
      </trkpt>
      <trkpt lat="44.54206" lon="1.42786">
        <ele>189.2</ele>
        <time>2022-02-06T15:56:48Z</time>
      </trkpt>
      <trkpt lat="44.54207" lon="1.42793">
        <ele>188.8</ele>
        <time>2022-02-06T15:56:52Z</time>
      </trkpt>
      <trkpt lat="44.54208" lon="1.428">
        <ele>188.9</ele>
        <time>2022-02-06T15:56:57Z</time>
      </trkpt>
      <trkpt lat="44.5421" lon="1.42806">
        <ele>188.7</ele>
        <time>2022-02-06T15:57:01Z</time>
      </trkpt>
      <trkpt lat="44.54212" lon="1.42812">
        <ele>188.8</ele>
        <time>2022-02-06T15:57:05Z</time>
      </trkpt>
      <trkpt lat="44.54215" lon="1.42818">
        <ele>189.4</ele>
        <time>2022-02-06T15:57:10Z</time>
      </trkpt>
      <trkpt lat="44.54218" lon="1.42824">
        <ele>189.5</ele>
        <time>2022-02-06T15:57:15Z</time>
      </trkpt>
      <trkpt lat="44.54221" lon="1.4283">
        <ele>189.8</ele>
        <time>2022-02-06T15:57:20Z</time>
      </trkpt>
      <trkpt lat="44.54224" lon="1.42837">
        <ele>190.1</ele>
        <time>2022-02-06T15:57:25Z</time>
      </trkpt>
      <trkpt lat="44.54227" lon="1.42843">
        <ele>191.1</ele>
        <time>2022-02-06T15:57:30Z</time>
      </trkpt>
      <trkpt lat="44.5423" lon="1.42849">
        <ele>191.6</ele>
        <time>2022-02-06T15:57:35Z</time>
      </trkpt>
      <trkpt lat="44.54233" lon="1.42854">
        <ele>192.1</ele>
        <time>2022-02-06T15:57:39Z</time>
      </trkpt>
      <trkpt lat="44.54237" lon="1.4286">
        <ele>193.2</ele>
        <time>2022-02-06T15:57:44Z</time>
      </trkpt>
      <trkpt lat="44.54241" lon="1.42864">
        <ele>194.1</ele>
        <time>2022-02-06T15:57:49Z</time>
      </trkpt>
      <trkpt lat="44.54246" lon="1.42869">
        <ele>194.3</ele>
        <time>2022-02-06T15:57:54Z</time>
      </trkpt>
      <trkpt lat="44.5425" lon="1.42874">
        <ele>194</ele>
        <time>2022-02-06T15:57:59Z</time>
      </trkpt>
      <trkpt lat="44.54253" lon="1.42879">
        <ele>194</ele>
        <time>2022-02-06T15:58:03Z</time>
      </trkpt>
      <trkpt lat="44.54256" lon="1.42883">
        <ele>194</ele>
        <time>2022-02-06T15:58:07Z</time>
      </trkpt>
      <trkpt lat="44.54259" lon="1.42888">
        <ele>194.5</ele>
        <time>2022-02-06T15:58:11Z</time>
      </trkpt>
      <trkpt lat="44.54262" lon="1.42894">
        <ele>194.7</ele>
        <time>2022-02-06T15:58:15Z</time>
      </trkpt>
      <trkpt lat="44.54266" lon="1.42899">
        <ele>195.7</ele>
        <time>2022-02-06T15:58:20Z</time>
      </trkpt>
      <trkpt lat="44.5427" lon="1.42904">
        <ele>196.5</ele>
        <time>2022-02-06T15:58:25Z</time>
      </trkpt>
      <trkpt lat="44.54274" lon="1.4291">
        <ele>197</ele>
        <time>2022-02-06T15:58:30Z</time>
      </trkpt>
      <trkpt lat="44.54277" lon="1.42916">
        <ele>197</ele>
        <time>2022-02-06T15:58:35Z</time>
      </trkpt>
      <trkpt lat="44.54281" lon="1.4292">
        <ele>197.6</ele>
        <time>2022-02-06T15:58:39Z</time>
      </trkpt>
      <trkpt lat="44.54285" lon="1.42924">
        <ele>198.1</ele>
        <time>2022-02-06T15:58:44Z</time>
      </trkpt>
      <trkpt lat="44.54289" lon="1.42929">
        <ele>198.3</ele>
        <time>2022-02-06T15:58:49Z</time>
      </trkpt>
      <trkpt lat="44.54292" lon="1.42934">
        <ele>198.3</ele>
        <time>2022-02-06T15:58:54Z</time>
      </trkpt>
      <trkpt lat="44.54295" lon="1.42939">
        <ele>198.3</ele>
        <time>2022-02-06T15:58:59Z</time>
      </trkpt>
      <trkpt lat="44.54299" lon="1.42944">
        <ele>198.7</ele>
        <time>2022-02-06T15:59:04Z</time>
      </trkpt>
      <trkpt lat="44.54303" lon="1.42949">
        <ele>198.9</ele>
        <time>2022-02-06T15:59:09Z</time>
      </trkpt>
      <trkpt lat="44.54307" lon="1.42953">
        <ele>198.4</ele>
        <time>2022-02-06T15:59:14Z</time>
      </trkpt>
      <trkpt lat="44.54311" lon="1.42957">
        <ele>198.1</ele>
        <time>2022-02-06T15:59:19Z</time>
      </trkpt>
      <trkpt lat="44.54315" lon="1.42962">
        <ele>198.4</ele>
        <time>2022-02-06T15:59:24Z</time>
      </trkpt>
      <trkpt lat="44.54318" lon="1.42967">
        <ele>198.6</ele>
        <time>2022-02-06T15:59:29Z</time>
      </trkpt>
      <trkpt lat="44.5432" lon="1.42973">
        <ele>198.6</ele>
        <time>2022-02-06T15:59:34Z</time>
      </trkpt>
      <trkpt lat="44.54322" lon="1.4298">
        <ele>198.6</ele>
        <time>2022-02-06T15:59:39Z</time>
      </trkpt>
      <trkpt lat="44.54325" lon="1.42985">
        <ele>198.6</ele>
        <time>2022-02-06T15:59:43Z</time>
      </trkpt>
      <trkpt lat="44.54328" lon="1.42991">
        <ele>198.4</ele>
        <time>2022-02-06T15:59:48Z</time>
      </trkpt>
      <trkpt lat="44.54331" lon="1.42996">
        <ele>198.4</ele>
        <time>2022-02-06T15:59:53Z</time>
      </trkpt>
      <trkpt lat="44.54334" lon="1.43002">
        <ele>197.9</ele>
        <time>2022-02-06T15:59:58Z</time>
      </trkpt>
      <trkpt lat="44.54338" lon="1.43006">
        <ele>197.7</ele>
        <time>2022-02-06T16:00:03Z</time>
      </trkpt>
      <trkpt lat="44.54342" lon="1.43012">
        <ele>199.2</ele>
        <time>2022-02-06T16:00:08Z</time>
      </trkpt>
      <trkpt lat="44.54346" lon="1.43017">
        <ele>199.9</ele>
        <time>2022-02-06T16:00:13Z</time>
      </trkpt>
      <trkpt lat="44.54349" lon="1.43022">
        <ele>199.7</ele>
        <time>2022-02-06T16:00:18Z</time>
      </trkpt>
      <trkpt lat="44.54352" lon="1.43028">
        <ele>199.5</ele>
        <time>2022-02-06T16:00:23Z</time>
      </trkpt>
      <trkpt lat="44.54356" lon="1.43032">
        <ele>199</ele>
        <time>2022-02-06T16:00:28Z</time>
      </trkpt>
      <trkpt lat="44.54359" lon="1.43038">
        <ele>198.1</ele>
        <time>2022-02-06T16:00:33Z</time>
      </trkpt>
      <trkpt lat="44.54363" lon="1.43043">
        <ele>198.6</ele>
        <time>2022-02-06T16:00:38Z</time>
      </trkpt>
      <trkpt lat="44.54367" lon="1.43047">
        <ele>198.4</ele>
        <time>2022-02-06T16:00:43Z</time>
      </trkpt>
      <trkpt lat="44.5437" lon="1.43052">
        <ele>198</ele>
        <time>2022-02-06T16:00:48Z</time>
      </trkpt>
      <trkpt lat="44.54374" lon="1.43057">
        <ele>198.3</ele>
        <time>2022-02-06T16:00:53Z</time>
      </trkpt>
      <trkpt lat="44.54377" lon="1.43063">
        <ele>197.9</ele>
        <time>2022-02-06T16:00:58Z</time>
      </trkpt>
      <trkpt lat="44.5438" lon="1.43069">
        <ele>197.2</ele>
        <time>2022-02-06T16:01:03Z</time>
      </trkpt>
      <trkpt lat="44.54384" lon="1.43073">
        <ele>196.8</ele>
        <time>2022-02-06T16:01:08Z</time>
      </trkpt>
      <trkpt lat="44.54388" lon="1.43078">
        <ele>196.6</ele>
        <time>2022-02-06T16:01:13Z</time>
      </trkpt>
      <trkpt lat="44.54392" lon="1.43082">
        <ele>197</ele>
        <time>2022-02-06T16:01:17Z</time>
      </trkpt>
      <trkpt lat="44.54396" lon="1.43087">
        <ele>198.1</ele>
        <time>2022-02-06T16:01:22Z</time>
      </trkpt>
      <trkpt lat="44.544" lon="1.4309">
        <ele>199</ele>
        <time>2022-02-06T16:01:26Z</time>
      </trkpt>
      <trkpt lat="44.54404" lon="1.43094">
        <ele>200</ele>
        <time>2022-02-06T16:01:30Z</time>
      </trkpt>
      <trkpt lat="44.54409" lon="1.43098">
        <ele>200.1</ele>
        <time>2022-02-06T16:01:35Z</time>
      </trkpt>
      <trkpt lat="44.54413" lon="1.43102">
        <ele>200.4</ele>
        <time>2022-02-06T16:01:39Z</time>
      </trkpt>
      <trkpt lat="44.54416" lon="1.43106">
        <ele>200.7</ele>
        <time>2022-02-06T16:01:43Z</time>
      </trkpt>
      <trkpt lat="44.54421" lon="1.43111">
        <ele>201</ele>
        <time>2022-02-06T16:01:48Z</time>
      </trkpt>
      <trkpt lat="44.54425" lon="1.43116">
        <ele>200.2</ele>
        <time>2022-02-06T16:01:53Z</time>
      </trkpt>
      <trkpt lat="44.54429" lon="1.43121">
        <ele>199.8</ele>
        <time>2022-02-06T16:01:58Z</time>
      </trkpt>
      <trkpt lat="44.54432" lon="1.43125">
        <ele>199.7</ele>
        <time>2022-02-06T16:02:03Z</time>
      </trkpt>
      <trkpt lat="44.54436" lon="1.4313">
        <ele>199.8</ele>
        <time>2022-02-06T16:02:08Z</time>
      </trkpt>
      <trkpt lat="44.5444" lon="1.43135">
        <ele>199.9</ele>
        <time>2022-02-06T16:02:13Z</time>
      </trkpt>
      <trkpt lat="44.54444" lon="1.43138">
        <ele>199.7</ele>
        <time>2022-02-06T16:02:17Z</time>
      </trkpt>
      <trkpt lat="44.54449" lon="1.43141">
        <ele>199.2</ele>
        <time>2022-02-06T16:02:22Z</time>
      </trkpt>
      <trkpt lat="44.54454" lon="1.43144">
        <ele>199.6</ele>
        <time>2022-02-06T16:02:27Z</time>
      </trkpt>
      <trkpt lat="44.54458" lon="1.43145">
        <ele>200.3</ele>
        <time>2022-02-06T16:02:31Z</time>
      </trkpt>
      <trkpt lat="44.54464" lon="1.43147">
        <ele>200.7</ele>
        <time>2022-02-06T16:02:36Z</time>
      </trkpt>
      <trkpt lat="44.54469" lon="1.43148">
        <ele>200.1</ele>
        <time>2022-02-06T16:02:41Z</time>
      </trkpt>
      <trkpt lat="44.54474" lon="1.4315">
        <ele>199.4</ele>
        <time>2022-02-06T16:02:46Z</time>
      </trkpt>
      <trkpt lat="44.54478" lon="1.43152">
        <ele>199.2</ele>
        <time>2022-02-06T16:02:51Z</time>
      </trkpt>
      <trkpt lat="44.54483" lon="1.43154">
        <ele>199.7</ele>
        <time>2022-02-06T16:02:56Z</time>
      </trkpt>
      <trkpt lat="44.54487" lon="1.43158">
        <ele>199.8</ele>
        <time>2022-02-06T16:03:01Z</time>
      </trkpt>
      <trkpt lat="44.54492" lon="1.43162">
        <ele>199.7</ele>
        <time>2022-02-06T16:03:06Z</time>
      </trkpt>
      <trkpt lat="44.54495" lon="1.43166">
        <ele>200</ele>
        <time>2022-02-06T16:03:10Z</time>
      </trkpt>
      <trkpt lat="44.54499" lon="1.4317">
        <ele>200.6</ele>
        <time>2022-02-06T16:03:14Z</time>
      </trkpt>
      <trkpt lat="44.54504" lon="1.43174">
        <ele>200.8</ele>
        <time>2022-02-06T16:03:19Z</time>
      </trkpt>
      <trkpt lat="44.54509" lon="1.43177">
        <ele>200.3</ele>
        <time>2022-02-06T16:03:24Z</time>
      </trkpt>
      <trkpt lat="44.54514" lon="1.4318">
        <ele>199.7</ele>
        <time>2022-02-06T16:03:29Z</time>
      </trkpt>
      <trkpt lat="44.54518" lon="1.43183">
        <ele>200.4</ele>
        <time>2022-02-06T16:03:33Z</time>
      </trkpt>
      <trkpt lat="44.54522" lon="1.43185">
        <ele>200.7</ele>
        <time>2022-02-06T16:03:37Z</time>
      </trkpt>
      <trkpt lat="44.54527" lon="1.43188">
        <ele>201.6</ele>
        <time>2022-02-06T16:03:41Z</time>
      </trkpt>
      <trkpt lat="44.54531" lon="1.4319">
        <ele>202.3</ele>
        <time>2022-02-06T16:03:45Z</time>
      </trkpt>
      <trkpt lat="44.54536" lon="1.43193">
        <ele>202.6</ele>
        <time>2022-02-06T16:03:50Z</time>
      </trkpt>
      <trkpt lat="44.5454" lon="1.43196">
        <ele>202.1</ele>
        <time>2022-02-06T16:03:54Z</time>
      </trkpt>
      <trkpt lat="44.54544" lon="1.43198">
        <ele>202.1</ele>
        <time>2022-02-06T16:03:58Z</time>
      </trkpt>
      <trkpt lat="44.5455" lon="1.432">
        <ele>201.8</ele>
        <time>2022-02-06T16:04:03Z</time>
      </trkpt>
      <trkpt lat="44.54555" lon="1.43203">
        <ele>201.6</ele>
        <time>2022-02-06T16:04:08Z</time>
      </trkpt>
      <trkpt lat="44.54559" lon="1.43206">
        <ele>201.4</ele>
        <time>2022-02-06T16:04:13Z</time>
      </trkpt>
      <trkpt lat="44.54564" lon="1.43208">
        <ele>201.5</ele>
        <time>2022-02-06T16:04:18Z</time>
      </trkpt>
      <trkpt lat="44.54569" lon="1.43211">
        <ele>201.3</ele>
        <time>2022-02-06T16:04:23Z</time>
      </trkpt>
      <trkpt lat="44.54573" lon="1.43214">
        <ele>200.3</ele>
        <time>2022-02-06T16:04:28Z</time>
      </trkpt>
      <trkpt lat="44.54578" lon="1.43216">
        <ele>199.5</ele>
        <time>2022-02-06T16:04:33Z</time>
      </trkpt>
      <trkpt lat="44.54584" lon="1.43218">
        <ele>199</ele>
        <time>2022-02-06T16:04:38Z</time>
      </trkpt>
      <trkpt lat="44.54588" lon="1.4322">
        <ele>198.7</ele>
        <time>2022-02-06T16:04:43Z</time>
      </trkpt>
      <trkpt lat="44.54593" lon="1.43222">
        <ele>198.8</ele>
        <time>2022-02-06T16:04:48Z</time>
      </trkpt>
      <trkpt lat="44.54598" lon="1.43224">
        <ele>198.4</ele>
        <time>2022-02-06T16:04:53Z</time>
      </trkpt>
      <trkpt lat="44.54603" lon="1.43226">
        <ele>198</ele>
        <time>2022-02-06T16:04:58Z</time>
      </trkpt>
      <trkpt lat="44.54608" lon="1.43225">
        <ele>199.1</ele>
        <time>2022-02-06T16:05:03Z</time>
      </trkpt>
      <trkpt lat="44.54613" lon="1.43224">
        <ele>199.6</ele>
        <time>2022-02-06T16:05:08Z</time>
      </trkpt>
      <trkpt lat="44.54618" lon="1.43225">
        <ele>200.9</ele>
        <time>2022-02-06T16:05:14Z</time>
      </trkpt>
      <trkpt lat="44.54622" lon="1.43223">
        <ele>203.2</ele>
        <time>2022-02-06T16:05:23Z</time>
      </trkpt>
      <trkpt lat="44.54618" lon="1.43223">
        <ele>200.1</ele>
        <time>2022-02-06T16:08:30Z</time>
      </trkpt>
      <trkpt lat="44.54618" lon="1.43229">
        <ele>199.4</ele>
        <time>2022-02-06T16:09:43Z</time>
      </trkpt>
      <trkpt lat="44.54617" lon="1.43236">
        <ele>196.7</ele>
        <time>2022-02-06T16:09:57Z</time>
      </trkpt>
      <trkpt lat="44.54617" lon="1.43242">
        <ele>195.7</ele>
        <time>2022-02-06T16:10:02Z</time>
      </trkpt>
      <trkpt lat="44.54618" lon="1.43249">
        <ele>194.4</ele>
        <time>2022-02-06T16:10:08Z</time>
      </trkpt>
      <trkpt lat="44.5462" lon="1.43255">
        <ele>193.8</ele>
        <time>2022-02-06T16:10:13Z</time>
      </trkpt>
      <trkpt lat="44.54623" lon="1.4326">
        <ele>193.6</ele>
        <time>2022-02-06T16:10:18Z</time>
      </trkpt>
      <trkpt lat="44.54626" lon="1.43266">
        <ele>193.5</ele>
        <time>2022-02-06T16:10:23Z</time>
      </trkpt>
      <trkpt lat="44.54629" lon="1.43271">
        <ele>194.1</ele>
        <time>2022-02-06T16:10:28Z</time>
      </trkpt>
      <trkpt lat="44.54633" lon="1.43276">
        <ele>194.3</ele>
        <time>2022-02-06T16:10:34Z</time>
      </trkpt>
      <trkpt lat="44.54636" lon="1.43282">
        <ele>194</ele>
        <time>2022-02-06T16:10:46Z</time>
      </trkpt>
      <trkpt lat="44.54639" lon="1.43288">
        <ele>193.7</ele>
        <time>2022-02-06T16:10:52Z</time>
      </trkpt>
      <trkpt lat="44.54641" lon="1.43294">
        <ele>194.1</ele>
        <time>2022-02-06T16:10:57Z</time>
      </trkpt>
      <trkpt lat="44.54644" lon="1.43299">
        <ele>195.2</ele>
        <time>2022-02-06T16:11:01Z</time>
      </trkpt>
      <trkpt lat="44.54647" lon="1.43304">
        <ele>195.6</ele>
        <time>2022-02-06T16:11:06Z</time>
      </trkpt>
      <trkpt lat="44.5465" lon="1.4331">
        <ele>195.3</ele>
        <time>2022-02-06T16:11:11Z</time>
      </trkpt>
      <trkpt lat="44.54653" lon="1.43315">
        <ele>195.2</ele>
        <time>2022-02-06T16:11:16Z</time>
      </trkpt>
      <trkpt lat="44.54657" lon="1.4332">
        <ele>195.7</ele>
        <time>2022-02-06T16:11:21Z</time>
      </trkpt>
      <trkpt lat="44.54661" lon="1.43324">
        <ele>196.2</ele>
        <time>2022-02-06T16:11:25Z</time>
      </trkpt>
      <trkpt lat="44.54665" lon="1.43328">
        <ele>196.5</ele>
        <time>2022-02-06T16:11:29Z</time>
      </trkpt>
      <trkpt lat="44.54669" lon="1.43333">
        <ele>197.5</ele>
        <time>2022-02-06T16:11:34Z</time>
      </trkpt>
      <trkpt lat="44.54672" lon="1.43337">
        <ele>197.9</ele>
        <time>2022-02-06T16:11:38Z</time>
      </trkpt>
      <trkpt lat="44.54677" lon="1.43341">
        <ele>198.6</ele>
        <time>2022-02-06T16:11:42Z</time>
      </trkpt>
      <trkpt lat="44.5468" lon="1.43345">
        <ele>199</ele>
        <time>2022-02-06T16:11:46Z</time>
      </trkpt>
      <trkpt lat="44.54684" lon="1.4335">
        <ele>199.4</ele>
        <time>2022-02-06T16:11:50Z</time>
      </trkpt>
      <trkpt lat="44.54687" lon="1.43355">
        <ele>199.5</ele>
        <time>2022-02-06T16:11:54Z</time>
      </trkpt>
      <trkpt lat="44.5469" lon="1.43361">
        <ele>200.8</ele>
        <time>2022-02-06T16:11:58Z</time>
      </trkpt>
      <trkpt lat="44.54693" lon="1.43367">
        <ele>201</ele>
        <time>2022-02-06T16:12:03Z</time>
      </trkpt>
      <trkpt lat="44.54697" lon="1.43373">
        <ele>200.7</ele>
        <time>2022-02-06T16:12:08Z</time>
      </trkpt>
      <trkpt lat="44.547" lon="1.43378">
        <ele>200.4</ele>
        <time>2022-02-06T16:12:12Z</time>
      </trkpt>
      <trkpt lat="44.54704" lon="1.43382">
        <ele>199.9</ele>
        <time>2022-02-06T16:12:16Z</time>
      </trkpt>
      <trkpt lat="44.54707" lon="1.43387">
        <ele>199.5</ele>
        <time>2022-02-06T16:12:20Z</time>
      </trkpt>
      <trkpt lat="44.54711" lon="1.43391">
        <ele>198.9</ele>
        <time>2022-02-06T16:12:24Z</time>
      </trkpt>
      <trkpt lat="44.54715" lon="1.43394">
        <ele>198.8</ele>
        <time>2022-02-06T16:12:28Z</time>
      </trkpt>
      <trkpt lat="44.54719" lon="1.43399">
        <ele>199.1</ele>
        <time>2022-02-06T16:12:32Z</time>
      </trkpt>
      <trkpt lat="44.54722" lon="1.43404">
        <ele>199.8</ele>
        <time>2022-02-06T16:12:36Z</time>
      </trkpt>
      <trkpt lat="44.54727" lon="1.43408">
        <ele>200.9</ele>
        <time>2022-02-06T16:12:40Z</time>
      </trkpt>
      <trkpt lat="44.5473" lon="1.43413">
        <ele>201.6</ele>
        <time>2022-02-06T16:12:44Z</time>
      </trkpt>
      <trkpt lat="44.54734" lon="1.43417">
        <ele>201.6</ele>
        <time>2022-02-06T16:12:48Z</time>
      </trkpt>
      <trkpt lat="44.54738" lon="1.4342">
        <ele>201.5</ele>
        <time>2022-02-06T16:12:52Z</time>
      </trkpt>
      <trkpt lat="44.54742" lon="1.43424">
        <ele>201</ele>
        <time>2022-02-06T16:12:56Z</time>
      </trkpt>
      <trkpt lat="44.54746" lon="1.43427">
        <ele>201</ele>
        <time>2022-02-06T16:13:00Z</time>
      </trkpt>
      <trkpt lat="44.54751" lon="1.4343">
        <ele>201</ele>
        <time>2022-02-06T16:13:05Z</time>
      </trkpt>
      <trkpt lat="44.54755" lon="1.43434">
        <ele>201</ele>
        <time>2022-02-06T16:13:10Z</time>
      </trkpt>
      <trkpt lat="44.5476" lon="1.43436">
        <ele>201.5</ele>
        <time>2022-02-06T16:13:14Z</time>
      </trkpt>
      <trkpt lat="44.54765" lon="1.43439">
        <ele>201.4</ele>
        <time>2022-02-06T16:13:19Z</time>
      </trkpt>
      <trkpt lat="44.54769" lon="1.43442">
        <ele>201.4</ele>
        <time>2022-02-06T16:13:24Z</time>
      </trkpt>
      <trkpt lat="44.54774" lon="1.43446">
        <ele>201.7</ele>
        <time>2022-02-06T16:13:29Z</time>
      </trkpt>
      <trkpt lat="44.54778" lon="1.4345">
        <ele>201.9</ele>
        <time>2022-02-06T16:13:33Z</time>
      </trkpt>
      <trkpt lat="44.54781" lon="1.43454">
        <ele>201.7</ele>
        <time>2022-02-06T16:13:37Z</time>
      </trkpt>
      <trkpt lat="44.54785" lon="1.43458">
        <ele>201.2</ele>
        <time>2022-02-06T16:13:41Z</time>
      </trkpt>
      <trkpt lat="44.54788" lon="1.43462">
        <ele>200.4</ele>
        <time>2022-02-06T16:13:45Z</time>
      </trkpt>
      <trkpt lat="44.54792" lon="1.43466">
        <ele>199.8</ele>
        <time>2022-02-06T16:13:49Z</time>
      </trkpt>
      <trkpt lat="44.54796" lon="1.4347">
        <ele>199</ele>
        <time>2022-02-06T16:13:54Z</time>
      </trkpt>
      <trkpt lat="44.548" lon="1.43475">
        <ele>198.6</ele>
        <time>2022-02-06T16:13:58Z</time>
      </trkpt>
      <trkpt lat="44.54803" lon="1.4348">
        <ele>198</ele>
        <time>2022-02-06T16:14:03Z</time>
      </trkpt>
      <trkpt lat="44.54807" lon="1.43486">
        <ele>197.8</ele>
        <time>2022-02-06T16:14:08Z</time>
      </trkpt>
      <trkpt lat="44.54811" lon="1.43492">
        <ele>197.2</ele>
        <time>2022-02-06T16:14:13Z</time>
      </trkpt>
      <trkpt lat="44.54814" lon="1.43497">
        <ele>195.9</ele>
        <time>2022-02-06T16:14:18Z</time>
      </trkpt>
      <trkpt lat="44.54817" lon="1.43502">
        <ele>195</ele>
        <time>2022-02-06T16:14:22Z</time>
      </trkpt>
      <trkpt lat="44.54819" lon="1.43508">
        <ele>194.6</ele>
        <time>2022-02-06T16:14:26Z</time>
      </trkpt>
      <trkpt lat="44.54821" lon="1.43514">
        <ele>194.2</ele>
        <time>2022-02-06T16:14:30Z</time>
      </trkpt>
      <trkpt lat="44.54823" lon="1.4352">
        <ele>193.9</ele>
        <time>2022-02-06T16:14:34Z</time>
      </trkpt>
      <trkpt lat="44.54825" lon="1.43526">
        <ele>194</ele>
        <time>2022-02-06T16:14:38Z</time>
      </trkpt>
      <trkpt lat="44.54827" lon="1.43532">
        <ele>194.3</ele>
        <time>2022-02-06T16:14:42Z</time>
      </trkpt>
      <trkpt lat="44.54828" lon="1.43538">
        <ele>194.1</ele>
        <time>2022-02-06T16:14:46Z</time>
      </trkpt>
      <trkpt lat="44.54831" lon="1.43545">
        <ele>194.8</ele>
        <time>2022-02-06T16:14:51Z</time>
      </trkpt>
      <trkpt lat="44.54833" lon="1.43552">
        <ele>195.9</ele>
        <time>2022-02-06T16:14:55Z</time>
      </trkpt>
      <trkpt lat="44.54837" lon="1.43557">
        <ele>196.9</ele>
        <time>2022-02-06T16:14:59Z</time>
      </trkpt>
      <trkpt lat="44.54841" lon="1.4356">
        <ele>197.9</ele>
        <time>2022-02-06T16:15:03Z</time>
      </trkpt>
      <trkpt lat="44.54846" lon="1.43564">
        <ele>199.1</ele>
        <time>2022-02-06T16:15:07Z</time>
      </trkpt>
      <trkpt lat="44.5485" lon="1.43568">
        <ele>199.7</ele>
        <time>2022-02-06T16:15:11Z</time>
      </trkpt>
      <trkpt lat="44.54854" lon="1.43572">
        <ele>199.9</ele>
        <time>2022-02-06T16:15:15Z</time>
      </trkpt>
      <trkpt lat="44.54858" lon="1.43577">
        <ele>200.7</ele>
        <time>2022-02-06T16:15:20Z</time>
      </trkpt>
      <trkpt lat="44.54862" lon="1.43582">
        <ele>200</ele>
        <time>2022-02-06T16:15:25Z</time>
      </trkpt>
      <trkpt lat="44.54866" lon="1.43588">
        <ele>199.4</ele>
        <time>2022-02-06T16:15:30Z</time>
      </trkpt>
      <trkpt lat="44.54868" lon="1.43594">
        <ele>199.1</ele>
        <time>2022-02-06T16:15:34Z</time>
      </trkpt>
      <trkpt lat="44.54871" lon="1.436">
        <ele>198.3</ele>
        <time>2022-02-06T16:15:39Z</time>
      </trkpt>
      <trkpt lat="44.54875" lon="1.43606">
        <ele>197.8</ele>
        <time>2022-02-06T16:15:44Z</time>
      </trkpt>
      <trkpt lat="44.54878" lon="1.43612">
        <ele>197.6</ele>
        <time>2022-02-06T16:15:48Z</time>
      </trkpt>
      <trkpt lat="44.5488" lon="1.43617">
        <ele>197.8</ele>
        <time>2022-02-06T16:15:52Z</time>
      </trkpt>
      <trkpt lat="44.54882" lon="1.43623">
        <ele>197.8</ele>
        <time>2022-02-06T16:15:56Z</time>
      </trkpt>
      <trkpt lat="44.54884" lon="1.43628">
        <ele>197.9</ele>
        <time>2022-02-06T16:16:00Z</time>
      </trkpt>
      <trkpt lat="44.54887" lon="1.43636">
        <ele>198.6</ele>
        <time>2022-02-06T16:16:05Z</time>
      </trkpt>
      <trkpt lat="44.54889" lon="1.43642">
        <ele>199</ele>
        <time>2022-02-06T16:16:09Z</time>
      </trkpt>
      <trkpt lat="44.54891" lon="1.43647">
        <ele>199</ele>
        <time>2022-02-06T16:16:13Z</time>
      </trkpt>
      <trkpt lat="44.54893" lon="1.43653">
        <ele>199</ele>
        <time>2022-02-06T16:16:17Z</time>
      </trkpt>
      <trkpt lat="44.54895" lon="1.43659">
        <ele>199.2</ele>
        <time>2022-02-06T16:16:21Z</time>
      </trkpt>
      <trkpt lat="44.54898" lon="1.43666">
        <ele>199</ele>
        <time>2022-02-06T16:16:26Z</time>
      </trkpt>
      <trkpt lat="44.549" lon="1.43672">
        <ele>199.1</ele>
        <time>2022-02-06T16:16:31Z</time>
      </trkpt>
      <trkpt lat="44.54903" lon="1.43678">
        <ele>199</ele>
        <time>2022-02-06T16:16:35Z</time>
      </trkpt>
      <trkpt lat="44.54904" lon="1.43684">
        <ele>198.8</ele>
        <time>2022-02-06T16:16:39Z</time>
      </trkpt>
      <trkpt lat="44.54906" lon="1.43691">
        <ele>198.8</ele>
        <time>2022-02-06T16:16:43Z</time>
      </trkpt>
      <trkpt lat="44.54904" lon="1.43697">
        <ele>199.7</ele>
        <time>2022-02-06T16:16:48Z</time>
      </trkpt>
      <trkpt lat="44.54905" lon="1.43703">
        <ele>204.5</ele>
        <time>2022-02-06T16:17:26Z</time>
      </trkpt>
      <trkpt lat="44.54908" lon="1.4371">
        <ele>205.5</ele>
        <time>2022-02-06T16:17:32Z</time>
      </trkpt>
      <trkpt lat="44.5491" lon="1.43716">
        <ele>206.7</ele>
        <time>2022-02-06T16:17:38Z</time>
      </trkpt>
      <trkpt lat="44.54914" lon="1.4372">
        <ele>206.9</ele>
        <time>2022-02-06T16:17:50Z</time>
      </trkpt>
      <trkpt lat="44.54914" lon="1.43727">
        <ele>207.4</ele>
        <time>2022-02-06T16:17:55Z</time>
      </trkpt>
      <trkpt lat="44.54913" lon="1.43733">
        <ele>207.9</ele>
        <time>2022-02-06T16:18:01Z</time>
      </trkpt>
      <trkpt lat="44.54913" lon="1.4374">
        <ele>208.6</ele>
        <time>2022-02-06T16:18:06Z</time>
      </trkpt>
      <trkpt lat="44.54915" lon="1.43745">
        <ele>209.3</ele>
        <time>2022-02-06T16:18:39Z</time>
      </trkpt>
      <trkpt lat="44.54914" lon="1.43752">
        <ele>207.6</ele>
        <time>2022-02-06T16:19:48Z</time>
      </trkpt>
      <trkpt lat="44.54913" lon="1.4376">
        <ele>206.2</ele>
        <time>2022-02-06T16:19:54Z</time>
      </trkpt>
      <trkpt lat="44.54911" lon="1.43766">
        <ele>205.5</ele>
        <time>2022-02-06T16:19:58Z</time>
      </trkpt>
      <trkpt lat="44.54909" lon="1.43772">
        <ele>205.2</ele>
        <time>2022-02-06T16:20:03Z</time>
      </trkpt>
      <trkpt lat="44.5491" lon="1.43779">
        <ele>203.8</ele>
        <time>2022-02-06T16:20:09Z</time>
      </trkpt>
      <trkpt lat="44.54912" lon="1.43785">
        <ele>203</ele>
        <time>2022-02-06T16:20:14Z</time>
      </trkpt>
      <trkpt lat="44.54914" lon="1.43791">
        <ele>201.9</ele>
        <time>2022-02-06T16:20:19Z</time>
      </trkpt>
      <trkpt lat="44.54917" lon="1.43797">
        <ele>201</ele>
        <time>2022-02-06T16:20:24Z</time>
      </trkpt>
      <trkpt lat="44.5492" lon="1.43802">
        <ele>200.2</ele>
        <time>2022-02-06T16:20:30Z</time>
      </trkpt>
      <trkpt lat="44.54924" lon="1.43806">
        <ele>199.6</ele>
        <time>2022-02-06T16:20:35Z</time>
      </trkpt>
      <trkpt lat="44.54928" lon="1.4381">
        <ele>198.9</ele>
        <time>2022-02-06T16:20:40Z</time>
      </trkpt>
      <trkpt lat="44.54933" lon="1.43814">
        <ele>198.6</ele>
        <time>2022-02-06T16:20:45Z</time>
      </trkpt>
      <trkpt lat="44.54938" lon="1.43816">
        <ele>199</ele>
        <time>2022-02-06T16:20:50Z</time>
      </trkpt>
      <trkpt lat="44.54943" lon="1.43817">
        <ele>199.3</ele>
        <time>2022-02-06T16:20:54Z</time>
      </trkpt>
      <trkpt lat="44.54948" lon="1.43818">
        <ele>199.5</ele>
        <time>2022-02-06T16:20:58Z</time>
      </trkpt>
      <trkpt lat="44.54953" lon="1.43819">
        <ele>200</ele>
        <time>2022-02-06T16:21:02Z</time>
      </trkpt>
      <trkpt lat="44.54958" lon="1.43819">
        <ele>200.4</ele>
        <time>2022-02-06T16:21:07Z</time>
      </trkpt>
      <trkpt lat="44.54964" lon="1.43818">
        <ele>200.8</ele>
        <time>2022-02-06T16:21:12Z</time>
      </trkpt>
      <trkpt lat="44.54968" lon="1.43818">
        <ele>201.8</ele>
        <time>2022-02-06T16:21:16Z</time>
      </trkpt>
      <trkpt lat="44.54974" lon="1.43818">
        <ele>202.7</ele>
        <time>2022-02-06T16:21:21Z</time>
      </trkpt>
      <trkpt lat="44.54979" lon="1.43818">
        <ele>203.5</ele>
        <time>2022-02-06T16:21:26Z</time>
      </trkpt>
      <trkpt lat="44.54984" lon="1.43818">
        <ele>203.6</ele>
        <time>2022-02-06T16:21:30Z</time>
      </trkpt>
      <trkpt lat="44.54989" lon="1.43817">
        <ele>203.9</ele>
        <time>2022-02-06T16:21:34Z</time>
      </trkpt>
      <trkpt lat="44.54993" lon="1.43816">
        <ele>204.3</ele>
        <time>2022-02-06T16:21:38Z</time>
      </trkpt>
      <trkpt lat="44.54998" lon="1.43815">
        <ele>204.7</ele>
        <time>2022-02-06T16:21:42Z</time>
      </trkpt>
      <trkpt lat="44.55002" lon="1.43814">
        <ele>205.4</ele>
        <time>2022-02-06T16:21:46Z</time>
      </trkpt>
      <trkpt lat="44.55007" lon="1.43812">
        <ele>206</ele>
        <time>2022-02-06T16:21:51Z</time>
      </trkpt>
      <trkpt lat="44.55013" lon="1.43812">
        <ele>206.7</ele>
        <time>2022-02-06T16:21:56Z</time>
      </trkpt>
      <trkpt lat="44.55018" lon="1.4381">
        <ele>207.9</ele>
        <time>2022-02-06T16:22:01Z</time>
      </trkpt>
      <trkpt lat="44.55024" lon="1.43809">
        <ele>208.7</ele>
        <time>2022-02-06T16:22:06Z</time>
      </trkpt>
      <trkpt lat="44.55028" lon="1.43809">
        <ele>209.1</ele>
        <time>2022-02-06T16:22:10Z</time>
      </trkpt>
      <trkpt lat="44.55033" lon="1.43809">
        <ele>209.2</ele>
        <time>2022-02-06T16:22:14Z</time>
      </trkpt>
      <trkpt lat="44.55038" lon="1.4381">
        <ele>209.3</ele>
        <time>2022-02-06T16:22:19Z</time>
      </trkpt>
      <trkpt lat="44.55043" lon="1.4381">
        <ele>209.9</ele>
        <time>2022-02-06T16:22:24Z</time>
      </trkpt>
      <trkpt lat="44.55048" lon="1.43813">
        <ele>209.6</ele>
        <time>2022-02-06T16:22:29Z</time>
      </trkpt>
      <trkpt lat="44.55051" lon="1.43819">
        <ele>209.1</ele>
        <time>2022-02-06T16:22:34Z</time>
      </trkpt>
      <trkpt lat="44.55053" lon="1.43824">
        <ele>208.9</ele>
        <time>2022-02-06T16:22:38Z</time>
      </trkpt>
      <trkpt lat="44.55057" lon="1.43831">
        <ele>208.7</ele>
        <time>2022-02-06T16:22:43Z</time>
      </trkpt>
      <trkpt lat="44.5506" lon="1.43837">
        <ele>208</ele>
        <time>2022-02-06T16:22:48Z</time>
      </trkpt>
      <trkpt lat="44.55065" lon="1.43841">
        <ele>207.1</ele>
        <time>2022-02-06T16:22:53Z</time>
      </trkpt>
      <trkpt lat="44.55068" lon="1.43844">
        <ele>206.9</ele>
        <time>2022-02-06T16:22:57Z</time>
      </trkpt>
      <trkpt lat="44.55073" lon="1.43847">
        <ele>206.9</ele>
        <time>2022-02-06T16:23:01Z</time>
      </trkpt>
      <trkpt lat="44.55077" lon="1.43851">
        <ele>206.7</ele>
        <time>2022-02-06T16:23:05Z</time>
      </trkpt>
      <trkpt lat="44.55082" lon="1.43854">
        <ele>206.3</ele>
        <time>2022-02-06T16:23:09Z</time>
      </trkpt>
      <trkpt lat="44.55086" lon="1.43857">
        <ele>206.3</ele>
        <time>2022-02-06T16:23:13Z</time>
      </trkpt>
      <trkpt lat="44.5509" lon="1.43859">
        <ele>207.2</ele>
        <time>2022-02-06T16:23:17Z</time>
      </trkpt>
      <trkpt lat="44.55095" lon="1.43863">
        <ele>207.5</ele>
        <time>2022-02-06T16:23:21Z</time>
      </trkpt>
      <trkpt lat="44.55099" lon="1.43866">
        <ele>207.9</ele>
        <time>2022-02-06T16:23:25Z</time>
      </trkpt>
      <trkpt lat="44.55103" lon="1.4387">
        <ele>208.2</ele>
        <time>2022-02-06T16:23:29Z</time>
      </trkpt>
      <trkpt lat="44.55107" lon="1.43874">
        <ele>208.3</ele>
        <time>2022-02-06T16:23:33Z</time>
      </trkpt>
      <trkpt lat="44.55111" lon="1.43877">
        <ele>208.4</ele>
        <time>2022-02-06T16:23:37Z</time>
      </trkpt>
      <trkpt lat="44.55116" lon="1.43881">
        <ele>208.3</ele>
        <time>2022-02-06T16:23:42Z</time>
      </trkpt>
      <trkpt lat="44.55121" lon="1.43882">
        <ele>208.2</ele>
        <time>2022-02-06T16:23:47Z</time>
      </trkpt>
      <trkpt lat="44.55125" lon="1.43887">
        <ele>208.4</ele>
        <time>2022-02-06T16:23:52Z</time>
      </trkpt>
      <trkpt lat="44.55129" lon="1.43891">
        <ele>209.1</ele>
        <time>2022-02-06T16:23:56Z</time>
      </trkpt>
      <trkpt lat="44.55133" lon="1.43896">
        <ele>209.6</ele>
        <time>2022-02-06T16:24:00Z</time>
      </trkpt>
      <trkpt lat="44.55137" lon="1.43901">
        <ele>209.5</ele>
        <time>2022-02-06T16:24:05Z</time>
      </trkpt>
      <trkpt lat="44.5514" lon="1.43907">
        <ele>208.9</ele>
        <time>2022-02-06T16:24:10Z</time>
      </trkpt>
      <trkpt lat="44.55144" lon="1.43912">
        <ele>208.9</ele>
        <time>2022-02-06T16:24:15Z</time>
      </trkpt>
      <trkpt lat="44.55147" lon="1.43917">
        <ele>209.1</ele>
        <time>2022-02-06T16:24:19Z</time>
      </trkpt>
      <trkpt lat="44.5515" lon="1.43922">
        <ele>209.3</ele>
        <time>2022-02-06T16:24:23Z</time>
      </trkpt>
      <trkpt lat="44.55153" lon="1.43928">
        <ele>208.7</ele>
        <time>2022-02-06T16:24:28Z</time>
      </trkpt>
      <trkpt lat="44.55156" lon="1.43934">
        <ele>208.3</ele>
        <time>2022-02-06T16:24:32Z</time>
      </trkpt>
      <trkpt lat="44.55159" lon="1.43938">
        <ele>207.9</ele>
        <time>2022-02-06T16:24:36Z</time>
      </trkpt>
      <trkpt lat="44.55161" lon="1.43944">
        <ele>207.7</ele>
        <time>2022-02-06T16:24:40Z</time>
      </trkpt>
      <trkpt lat="44.55164" lon="1.43949">
        <ele>207.5</ele>
        <time>2022-02-06T16:24:44Z</time>
      </trkpt>
      <trkpt lat="44.55167" lon="1.43954">
        <ele>207.9</ele>
        <time>2022-02-06T16:24:48Z</time>
      </trkpt>
      <trkpt lat="44.5517" lon="1.4396">
        <ele>208.1</ele>
        <time>2022-02-06T16:24:53Z</time>
      </trkpt>
      <trkpt lat="44.55174" lon="1.43967">
        <ele>208.4</ele>
        <time>2022-02-06T16:24:58Z</time>
      </trkpt>
      <trkpt lat="44.55176" lon="1.43972">
        <ele>208.6</ele>
        <time>2022-02-06T16:25:02Z</time>
      </trkpt>
      <trkpt lat="44.55179" lon="1.43977">
        <ele>208.7</ele>
        <time>2022-02-06T16:25:06Z</time>
      </trkpt>
      <trkpt lat="44.55182" lon="1.43983">
        <ele>208.8</ele>
        <time>2022-02-06T16:25:10Z</time>
      </trkpt>
      <trkpt lat="44.55185" lon="1.43989">
        <ele>208.8</ele>
        <time>2022-02-06T16:25:15Z</time>
      </trkpt>
      <trkpt lat="44.55188" lon="1.43996">
        <ele>208.7</ele>
        <time>2022-02-06T16:25:20Z</time>
      </trkpt>
      <trkpt lat="44.55189" lon="1.44002">
        <ele>208.7</ele>
        <time>2022-02-06T16:25:24Z</time>
      </trkpt>
      <trkpt lat="44.55191" lon="1.44008">
        <ele>208.5</ele>
        <time>2022-02-06T16:25:28Z</time>
      </trkpt>
      <trkpt lat="44.55193" lon="1.44015">
        <ele>208</ele>
        <time>2022-02-06T16:25:32Z</time>
      </trkpt>
      <trkpt lat="44.55195" lon="1.44021">
        <ele>207.6</ele>
        <time>2022-02-06T16:25:36Z</time>
      </trkpt>
      <trkpt lat="44.55197" lon="1.44028">
        <ele>207.6</ele>
        <time>2022-02-06T16:25:41Z</time>
      </trkpt>
      <trkpt lat="44.55199" lon="1.44034">
        <ele>207.3</ele>
        <time>2022-02-06T16:25:45Z</time>
      </trkpt>
      <trkpt lat="44.55201" lon="1.4404">
        <ele>207.2</ele>
        <time>2022-02-06T16:25:49Z</time>
      </trkpt>
      <trkpt lat="44.55203" lon="1.44047">
        <ele>207.1</ele>
        <time>2022-02-06T16:25:53Z</time>
      </trkpt>
      <trkpt lat="44.55205" lon="1.44053">
        <ele>207.3</ele>
        <time>2022-02-06T16:25:57Z</time>
      </trkpt>
      <trkpt lat="44.55207" lon="1.4406">
        <ele>207.7</ele>
        <time>2022-02-06T16:26:01Z</time>
      </trkpt>
      <trkpt lat="44.55209" lon="1.44066">
        <ele>207.9</ele>
        <time>2022-02-06T16:26:05Z</time>
      </trkpt>
      <trkpt lat="44.55211" lon="1.44072">
        <ele>207.7</ele>
        <time>2022-02-06T16:26:09Z</time>
      </trkpt>
      <trkpt lat="44.55213" lon="1.44077">
        <ele>207.4</ele>
        <time>2022-02-06T16:26:13Z</time>
      </trkpt>
      <trkpt lat="44.55215" lon="1.44083">
        <ele>206.9</ele>
        <time>2022-02-06T16:26:17Z</time>
      </trkpt>
      <trkpt lat="44.55217" lon="1.4409">
        <ele>206.6</ele>
        <time>2022-02-06T16:26:21Z</time>
      </trkpt>
      <trkpt lat="44.55219" lon="1.44096">
        <ele>206</ele>
        <time>2022-02-06T16:26:26Z</time>
      </trkpt>
      <trkpt lat="44.55221" lon="1.44102">
        <ele>205.9</ele>
        <time>2022-02-06T16:26:30Z</time>
      </trkpt>
      <trkpt lat="44.55223" lon="1.44109">
        <ele>206.2</ele>
        <time>2022-02-06T16:26:34Z</time>
      </trkpt>
      <trkpt lat="44.55225" lon="1.44115">
        <ele>206.1</ele>
        <time>2022-02-06T16:26:38Z</time>
      </trkpt>
      <trkpt lat="44.55227" lon="1.44122">
        <ele>206.4</ele>
        <time>2022-02-06T16:26:42Z</time>
      </trkpt>
      <trkpt lat="44.55229" lon="1.44129">
        <ele>206.2</ele>
        <time>2022-02-06T16:26:46Z</time>
      </trkpt>
      <trkpt lat="44.55231" lon="1.44136">
        <ele>205.9</ele>
        <time>2022-02-06T16:26:50Z</time>
      </trkpt>
      <trkpt lat="44.55234" lon="1.44142">
        <ele>205.7</ele>
        <time>2022-02-06T16:26:54Z</time>
      </trkpt>
      <trkpt lat="44.55236" lon="1.44148">
        <ele>205.9</ele>
        <time>2022-02-06T16:26:58Z</time>
      </trkpt>
      <trkpt lat="44.55239" lon="1.44154">
        <ele>206.3</ele>
        <time>2022-02-06T16:27:02Z</time>
      </trkpt>
      <trkpt lat="44.55241" lon="1.44161">
        <ele>206.8</ele>
        <time>2022-02-06T16:27:06Z</time>
      </trkpt>
      <trkpt lat="44.55244" lon="1.44166">
        <ele>206.6</ele>
        <time>2022-02-06T16:27:10Z</time>
      </trkpt>
      <trkpt lat="44.55247" lon="1.44171">
        <ele>206.7</ele>
        <time>2022-02-06T16:27:14Z</time>
      </trkpt>
      <trkpt lat="44.5525" lon="1.44177">
        <ele>206.9</ele>
        <time>2022-02-06T16:27:18Z</time>
      </trkpt>
      <trkpt lat="44.55253" lon="1.44182">
        <ele>206.9</ele>
        <time>2022-02-06T16:27:22Z</time>
      </trkpt>
      <trkpt lat="44.55255" lon="1.44187">
        <ele>207.1</ele>
        <time>2022-02-06T16:27:26Z</time>
      </trkpt>
      <trkpt lat="44.55258" lon="1.44193">
        <ele>207.1</ele>
        <time>2022-02-06T16:27:30Z</time>
      </trkpt>
      <trkpt lat="44.55261" lon="1.44198">
        <ele>207.5</ele>
        <time>2022-02-06T16:27:34Z</time>
      </trkpt>
      <trkpt lat="44.55264" lon="1.44204">
        <ele>207.8</ele>
        <time>2022-02-06T16:27:38Z</time>
      </trkpt>
      <trkpt lat="44.55267" lon="1.4421">
        <ele>207.8</ele>
        <time>2022-02-06T16:27:42Z</time>
      </trkpt>
      <trkpt lat="44.5527" lon="1.44214">
        <ele>208.1</ele>
        <time>2022-02-06T16:27:46Z</time>
      </trkpt>
      <trkpt lat="44.55273" lon="1.44219">
        <ele>208.5</ele>
        <time>2022-02-06T16:27:50Z</time>
      </trkpt>
      <trkpt lat="44.55277" lon="1.44225">
        <ele>209</ele>
        <time>2022-02-06T16:27:54Z</time>
      </trkpt>
      <trkpt lat="44.5528" lon="1.44229">
        <ele>209.6</ele>
        <time>2022-02-06T16:27:58Z</time>
      </trkpt>
      <trkpt lat="44.55284" lon="1.44234">
        <ele>209.9</ele>
        <time>2022-02-06T16:28:02Z</time>
      </trkpt>
      <trkpt lat="44.55288" lon="1.44239">
        <ele>210.5</ele>
        <time>2022-02-06T16:28:06Z</time>
      </trkpt>
      <trkpt lat="44.55292" lon="1.44244">
        <ele>210.8</ele>
        <time>2022-02-06T16:28:10Z</time>
      </trkpt>
      <trkpt lat="44.55296" lon="1.44248">
        <ele>210.9</ele>
        <time>2022-02-06T16:28:14Z</time>
      </trkpt>
      <trkpt lat="44.553" lon="1.44252">
        <ele>210.8</ele>
        <time>2022-02-06T16:28:18Z</time>
      </trkpt>
      <trkpt lat="44.55304" lon="1.44257">
        <ele>210.8</ele>
        <time>2022-02-06T16:28:22Z</time>
      </trkpt>
      <trkpt lat="44.55308" lon="1.44261">
        <ele>210.8</ele>
        <time>2022-02-06T16:28:26Z</time>
      </trkpt>
      <trkpt lat="44.55312" lon="1.44265">
        <ele>210.9</ele>
        <time>2022-02-06T16:28:30Z</time>
      </trkpt>
      <trkpt lat="44.55316" lon="1.44269">
        <ele>210.7</ele>
        <time>2022-02-06T16:28:34Z</time>
      </trkpt>
      <trkpt lat="44.55319" lon="1.44273">
        <ele>210.2</ele>
        <time>2022-02-06T16:28:38Z</time>
      </trkpt>
      <trkpt lat="44.55323" lon="1.44277">
        <ele>210.3</ele>
        <time>2022-02-06T16:28:42Z</time>
      </trkpt>
      <trkpt lat="44.55327" lon="1.44282">
        <ele>210.3</ele>
        <time>2022-02-06T16:28:46Z</time>
      </trkpt>
      <trkpt lat="44.55331" lon="1.44287">
        <ele>210</ele>
        <time>2022-02-06T16:28:51Z</time>
      </trkpt>
      <trkpt lat="44.55335" lon="1.44292">
        <ele>209.8</ele>
        <time>2022-02-06T16:28:55Z</time>
      </trkpt>
      <trkpt lat="44.55339" lon="1.44297">
        <ele>209.6</ele>
        <time>2022-02-06T16:29:00Z</time>
      </trkpt>
      <trkpt lat="44.55342" lon="1.44302">
        <ele>209.6</ele>
        <time>2022-02-06T16:29:05Z</time>
      </trkpt>
      <trkpt lat="44.55347" lon="1.44305">
        <ele>210.3</ele>
        <time>2022-02-06T16:29:10Z</time>
      </trkpt>
      <trkpt lat="44.55351" lon="1.44308">
        <ele>212.2</ele>
        <time>2022-02-06T16:29:17Z</time>
      </trkpt>
      <trkpt lat="44.5535" lon="1.44314">
        <ele>215.5</ele>
        <time>2022-02-06T16:33:37Z</time>
      </trkpt>
      <trkpt lat="44.55354" lon="1.44318">
        <ele>214.3</ele>
        <time>2022-02-06T16:33:46Z</time>
      </trkpt>
      <trkpt lat="44.55359" lon="1.44322">
        <ele>214.6</ele>
        <time>2022-02-06T16:33:52Z</time>
      </trkpt>
      <trkpt lat="44.55363" lon="1.44324">
        <ele>215</ele>
        <time>2022-02-06T16:33:57Z</time>
      </trkpt>
      <trkpt lat="44.55368" lon="1.44324">
        <ele>215.8</ele>
        <time>2022-02-06T16:34:03Z</time>
      </trkpt>
      <trkpt lat="44.55373" lon="1.44325">
        <ele>216.5</ele>
        <time>2022-02-06T16:34:08Z</time>
      </trkpt>
      <trkpt lat="44.55378" lon="1.44324">
        <ele>217.6</ele>
        <time>2022-02-06T16:34:13Z</time>
      </trkpt>
      <trkpt lat="44.55383" lon="1.44323">
        <ele>218.9</ele>
        <time>2022-02-06T16:34:19Z</time>
      </trkpt>
      <trkpt lat="44.55387" lon="1.44323">
        <ele>219.9</ele>
        <time>2022-02-06T16:34:25Z</time>
      </trkpt>
      <trkpt lat="44.55393" lon="1.44323">
        <ele>220.5</ele>
        <time>2022-02-06T16:34:31Z</time>
      </trkpt>
      <trkpt lat="44.55398" lon="1.44323">
        <ele>221</ele>
        <time>2022-02-06T16:34:36Z</time>
      </trkpt>
      <trkpt lat="44.55403" lon="1.44325">
        <ele>220.6</ele>
        <time>2022-02-06T16:34:42Z</time>
      </trkpt>
      <trkpt lat="44.55407" lon="1.44328">
        <ele>219.2</ele>
        <time>2022-02-06T16:34:49Z</time>
      </trkpt>
      <trkpt lat="44.55412" lon="1.44332">
        <ele>217.5</ele>
        <time>2022-02-06T16:34:55Z</time>
      </trkpt>
      <trkpt lat="44.55414" lon="1.44339">
        <ele>216</ele>
        <time>2022-02-06T16:35:00Z</time>
      </trkpt>
      <trkpt lat="44.55416" lon="1.44346">
        <ele>216.2</ele>
        <time>2022-02-06T16:35:06Z</time>
      </trkpt>
      <trkpt lat="44.55417" lon="1.44353">
        <ele>217.1</ele>
        <time>2022-02-06T16:35:11Z</time>
      </trkpt>
      <trkpt lat="44.55418" lon="1.44359">
        <ele>217.2</ele>
        <time>2022-02-06T16:35:16Z</time>
      </trkpt>
      <trkpt lat="44.5542" lon="1.44366">
        <ele>216.7</ele>
        <time>2022-02-06T16:35:22Z</time>
      </trkpt>
      <trkpt lat="44.55422" lon="1.44372">
        <ele>216.8</ele>
        <time>2022-02-06T16:35:27Z</time>
      </trkpt>
      <trkpt lat="44.55424" lon="1.44378">
        <ele>216.9</ele>
        <time>2022-02-06T16:35:32Z</time>
      </trkpt>
      <trkpt lat="44.55426" lon="1.44385">
        <ele>216.6</ele>
        <time>2022-02-06T16:35:37Z</time>
      </trkpt>
      <trkpt lat="44.55429" lon="1.44392">
        <ele>215.3</ele>
        <time>2022-02-06T16:35:42Z</time>
      </trkpt>
      <trkpt lat="44.55432" lon="1.44398">
        <ele>214.4</ele>
        <time>2022-02-06T16:35:47Z</time>
      </trkpt>
      <trkpt lat="44.55434" lon="1.44404">
        <ele>213.6</ele>
        <time>2022-02-06T16:35:51Z</time>
      </trkpt>
      <trkpt lat="44.55435" lon="1.44411">
        <ele>213.3</ele>
        <time>2022-02-06T16:35:56Z</time>
      </trkpt>
      <trkpt lat="44.55435" lon="1.44418">
        <ele>212.9</ele>
        <time>2022-02-06T16:36:01Z</time>
      </trkpt>
      <trkpt lat="44.55434" lon="1.44425">
        <ele>213.8</ele>
        <time>2022-02-06T16:36:06Z</time>
      </trkpt>
      <trkpt lat="44.55434" lon="1.44432">
        <ele>213.3</ele>
        <time>2022-02-06T16:36:11Z</time>
      </trkpt>
      <trkpt lat="44.55433" lon="1.44438">
        <ele>212.7</ele>
        <time>2022-02-06T16:36:16Z</time>
      </trkpt>
      <trkpt lat="44.55432" lon="1.44445">
        <ele>212.4</ele>
        <time>2022-02-06T16:36:21Z</time>
      </trkpt>
      <trkpt lat="44.55432" lon="1.44452">
        <ele>213.2</ele>
        <time>2022-02-06T16:36:26Z</time>
      </trkpt>
      <trkpt lat="44.55434" lon="1.44458">
        <ele>213.7</ele>
        <time>2022-02-06T16:36:31Z</time>
      </trkpt>
      <trkpt lat="44.55435" lon="1.44465">
        <ele>213.3</ele>
        <time>2022-02-06T16:36:37Z</time>
      </trkpt>
      <trkpt lat="44.55437" lon="1.44471">
        <ele>214.2</ele>
        <time>2022-02-06T16:36:43Z</time>
      </trkpt>
      <trkpt lat="44.5544" lon="1.44477">
        <ele>213.8</ele>
        <time>2022-02-06T16:36:49Z</time>
      </trkpt>
      <trkpt lat="44.5544" lon="1.44484">
        <ele>213.4</ele>
        <time>2022-02-06T16:36:56Z</time>
      </trkpt>
      <trkpt lat="44.55436" lon="1.44488">
        <ele>212.8</ele>
        <time>2022-02-06T16:37:02Z</time>
      </trkpt>
      <trkpt lat="44.55434" lon="1.44494">
        <ele>212.1</ele>
        <time>2022-02-06T16:37:08Z</time>
      </trkpt>
      <trkpt lat="44.55433" lon="1.445">
        <ele>211.5</ele>
        <time>2022-02-06T16:37:13Z</time>
      </trkpt>
      <trkpt lat="44.55432" lon="1.44507">
        <ele>211.1</ele>
        <time>2022-02-06T16:37:19Z</time>
      </trkpt>
      <trkpt lat="44.55428" lon="1.44511">
        <ele>211.8</ele>
        <time>2022-02-06T16:37:25Z</time>
      </trkpt>
      <trkpt lat="44.55423" lon="1.44515">
        <ele>212.9</ele>
        <time>2022-02-06T16:37:31Z</time>
      </trkpt>
      <trkpt lat="44.55419" lon="1.44519">
        <ele>214</ele>
        <time>2022-02-06T16:37:37Z</time>
      </trkpt>
      <trkpt lat="44.55416" lon="1.44525">
        <ele>214.5</ele>
        <time>2022-02-06T16:37:43Z</time>
      </trkpt>
      <trkpt lat="44.55414" lon="1.44531">
        <ele>216</ele>
        <time>2022-02-06T16:37:48Z</time>
      </trkpt>
      <trkpt lat="44.55412" lon="1.44536">
        <ele>217.6</ele>
        <time>2022-02-06T16:37:54Z</time>
      </trkpt>
      <trkpt lat="44.55416" lon="1.44541">
        <ele>219.9</ele>
        <time>2022-02-06T16:38:25Z</time>
      </trkpt>
      <trkpt lat="44.5542" lon="1.44543">
        <ele>221.2</ele>
        <time>2022-02-06T16:38:31Z</time>
      </trkpt>
      <trkpt lat="44.55426" lon="1.44544">
        <ele>222.4</ele>
        <time>2022-02-06T16:38:37Z</time>
      </trkpt>
      <trkpt lat="44.5543" lon="1.44544">
        <ele>223.6</ele>
        <time>2022-02-06T16:38:42Z</time>
      </trkpt>
      <trkpt lat="44.55434" lon="1.44548">
        <ele>223.9</ele>
        <time>2022-02-06T16:38:47Z</time>
      </trkpt>
      <trkpt lat="44.55438" lon="1.44552">
        <ele>223.9</ele>
        <time>2022-02-06T16:38:52Z</time>
      </trkpt>
      <trkpt lat="44.55442" lon="1.44557">
        <ele>223.8</ele>
        <time>2022-02-06T16:38:57Z</time>
      </trkpt>
      <trkpt lat="44.55444" lon="1.44563">
        <ele>223.8</ele>
        <time>2022-02-06T16:39:03Z</time>
      </trkpt>
      <trkpt lat="44.55447" lon="1.44569">
        <ele>224</ele>
        <time>2022-02-06T16:39:09Z</time>
      </trkpt>
      <trkpt lat="44.5545" lon="1.44575">
        <ele>224.3</ele>
        <time>2022-02-06T16:39:14Z</time>
      </trkpt>
      <trkpt lat="44.55452" lon="1.44581">
        <ele>224.9</ele>
        <time>2022-02-06T16:39:20Z</time>
      </trkpt>
      <trkpt lat="44.55452" lon="1.44588">
        <ele>225.7</ele>
        <time>2022-02-06T16:39:26Z</time>
      </trkpt>
    </trkseg>
  </trk>
</gpx>